[[{"header":{"parameterUnit":"m.s-1","parameterCategory":1,"la1":31.0,"la2":29.5877,"lo1":-88.7671,"lo2":-86.6584,"dx":0.0162,"dy":0.0185,"nx":115,"ny":88,"refTime":"2023-01-27T18:00:00:Z","depth":0,"parameterNumber":2,"parameterNumberName":"U-component_of_WINDS"},"data":[0.0,0.0,0.0,0.0,0.0,0.0,0.0,0.0,0.0,0.0,0.0,0.0,0.0,0.0,0.0,0.0,0.0,0.0,0.0,0.0,0.0,0.0,0.0,0.0,0.0,0.0,0.0,0.0,0.0,0.0,0.0,0.0,0.0,0.0,0.0,0.0,0.0,0.0,0.0,0.0,0.0,0.0,0.0,0.0,0.0,0.0,0.0,0.0,0.0,0.0,0.0,0.0,0.0,0.0,0.0,0.0,0.0,0.0,0.0,0.0,0.0,0.0,0.0,0.0,0.0,0.0,0.0,0.0,0.0,0.0,0.0,0.0,0.0,0.0,0.0,0.0,0.0,0.0,0.0,0.0,0.0,0.0,0.0,0.0,0.0,0.0,0.0,0.0,0.0,0.0,0.0,0.0,0.0,0.0,0.0,0.0,0.0,0.0,0.0,0.0,0.0,0.0,0.0,0.0,0.0,0.0,0.0,0.0,0.0,0.0,0.0,0.0,0.0,0.0,0.0,0.0,0.0,0.0,0.0,0.0,0.0,0.0,0.0,0.0,0.0,0.0,0.0,0.0,0.0,0.0,0.0,0.0,0.0,0.0,0.0,0.0,0.0,0.0,0.0,0.0,0.0,0.0,0.0,0.0,0.0,0.0,0.0,0.0,0.0,0.0,0.0,0.0,0.0,0.0,0.0,0.0,0.0,0.0,0.0,0.0,0.0,0.0,0.0,0.0,0.0,0.0,0.0,0.0,0.0,0.0,0.0,0.0,0.0,0.0,0.0,0.0,0.0,0.0,0.0,0.0,0.0,0.0,0.0,0.0,0.0,0.0,0.0,0.0,0.0,0.0,0.0,0.0,0.0,0.0,0.0,0.0,0.0,0.0,0.0,0.0,0.0,0.0,0.0,0.0,0.0,0.0,0.0,0.0,0.0,0.0,0.0,0.0,0.0,0.0,0.0,0.0,0.0,0.0,0.0,0.0,0.0,0.0,0.0,0.0,0.0,0.0,0.0,0.0,0.0,0.0,0.0,0.0,0.0,0.0,0.0,0.0,0.0,0.0,0.0,0.0,0.0,0.0,0.0,0.0,0.0,0.0,0.0,0.0,0.0,0.0,0.0,0.0,0.0,0.0,0.0,0.0,0.0,0.0,0.0,0.0,0.0,0.0,0.0,0.0,0.0,0.0,0.0,0.0,0.0,0.0,0.0,0.0,0.0,0.0,0.0,0.0,0.0,0.0,0.0,0.0,0.0,0.0,0.0,0.0,0.0,0.0,0.0,0.0,0.0,0.0,0.0,0.0,0.0,0.0,0.0,0.0,0.0,0.0,0.0,0.0,0.0,0.0,0.0,0.0,0.0,0.0,0.0,0.0,0.0,0.0,0.0,0.0,0.0,0.0,0.0,0.0,0.0,0.0,0.0,0.0,0.0,0.0,0.0,0.0,0.0,0.0,0.0,0.0,0.0,0.0,0.0,0.0,0.0,0.0,0.0,0.0,0.0,0.0,0.0,0.0,0.0,0.0,0.0,0.0,0.0,0.0,0.0,0.0,0.0,0.0,0.0,0.0,0.0,0.0,0.0,0.0,0.0,0.0,0.0,0.0,0.0,0.0,0.0,0.0,0.0,0.0,0.0,0.0,0.0,0.0,0.0,0.0,0.0,0.0,0.0,0.0,0.0,0.0,0.0,0.0,0.0,0.0,0.0,0.0,0.0,0.0,0.0,0.0,0.0,0.0,0.0,0.0,0.0,0.0,0.0,0.0,0.0,0.0,0.0,0.0,0.0,0.0,0.0,0.0,0.0,0.0,0.0,0.0,0.0,0.0,0.0,0.0,0.0,0.0,0.0,0.0,0.0,0.0,0.0,0.0,0.0,0.0,0.0,0.0,0.0,0.0,0.0,0.0,0.0,0.0,0.0,0.0,0.0,0.0,0.0,0.0,0.0,0.0,0.0,0.0,0.0,0.0,0.0,0.0,0.0,0.0,0.0,0.0,0.0,0.0,0.0,0.0,0.0,0.0,0.0,0.0,0.0,0.0,0.0,0.0,0.0,0.0,0.0,0.0,0.0,0.0,0.0,0.0,0.0,0.0,0.0,0.0,0.0,0.0,0.0,0.0,0.0,0.0,0.0,0.0,0.0,0.0,0.0,0.0,0.0,0.0,0.0,0.0,0.0,0.0,0.0,0.0,0.0,0.0,0.0,0.0,0.0,0.0,0.0,0.0,0.0,0.0,0.0,0.0,0.0,0.0,0.0,0.0,0.0,0.0,0.0,0.0,0.0,0.0,0.0,0.0,0.0,0.0,0.0,0.0,0.0,0.0,0.0,0.0,0.0,0.0,0.0,0.0,0.0,0.0,0.0,0.0,0.0,0.0,0.0,0.0,0.0,0.0,0.0,0.0,0.0,0.0,0.0,0.0,0.0,0.0,0.0,0.0,0.0,0.0,0.0,0.0,0.0,0.0,0.0,0.0,0.0,0.0,0.0,0.0,0.0,0.0,0.0,0.0,0.0,0.0,0.0,0.0,0.0,0.0,0.0,0.0,0.0,0.0,0.0,0.0,0.0,0.0,0.0,0.0,0.0,0.0,0.0,0.0,0.0,0.0,0.0,0.0,0.0,0.0,0.0,0.0,0.0,0.0,0.0,0.0,0.0,0.0,0.0,0.0,0.0,0.0,0.0,0.0,0.0,0.0,0.0,0.0,0.0,0.0,0.0,0.0,0.0,0.0,0.0,0.0,0.0,0.0,0.0,0.0,0.0,0.0,0.0,0.0,0.0,0.0,0.0,0.0,0.0,0.0,0.0,0.0,0.0,0.0,0.0,0.0,0.0,0.0,0.0,0.0,0.0,0.0,0.0,0.0,0.0,0.0,0.0,0.0,0.0,0.0,0.0,0.0,0.0,0.0,0.0,0.0,0.0,0.0,0.0,0.0,0.0,0.0,0.0,0.0,0.0,0.0,0.0,0.0,0.0,0.0,0.0,0.0,0.0,0.0,0.0,0.0,0.0,0.0,0.0,0.0,0.0,0.0,0.0,0.0,0.0,0.0,0.0,0.0,0.0,0.0,0.0,0.0,0.0,0.0,0.0,0.0,0.0,0.0,0.0,0.0,0.0,0.0,0.0,0.0,0.0,0.0,0.0,0.0,0.0,0.0,0.0,0.0,0.0,0.0,0.0,0.0,0.0,0.0,0.0,0.0,0.0,0.0,0.0,0.0,0.0,0.0,0.0,0.0,0.0,0.0,0.0,0.0,0.0,0.0,0.0,0.0,0.0,0.0,0.0,0.0,0.0,0.0,0.0,0.0,0.0,0.0,0.0,0.0,0.0,0.0,0.0,0.0,0.0,0.0,0.0,0.0,0.0,0.0,0.0,0.0,0.0,0.0,0.0,0.0,0.0,0.0,0.0,0.0,0.0,0.0,0.0,0.0,0.0,0.0,0.0,0.0,0.0,0.0,0.0,0.0,0.0,0.0,0.0,0.0,0.0,0.0,0.0,0.0,0.0,0.0,0.0,0.0,0.0,0.0,0.0,0.0,0.0,0.0,0.0,0.0,0.0,0.0,0.0,0.0,0.0,0.0,0.0,0.0,0.0,0.0,0.0,0.0,0.0,0.0,0.0,0.0,0.0,0.0,0.0,0.0,0.0,0.0,0.0,0.0,0.0,0.0,0.0,0.0,0.0,0.0,0.0,0.0,0.0,0.0,0.0,0.0,0.0,0.0,0.0,0.0,0.0,0.0,0.0,0.0,0.0,0.0,0.0,0.0,0.0,0.0,0.0,0.0,0.0,0.0,0.0,0.0,0.0,0.0,0.0,0.0,0.0,0.0,0.0,0.0,0.0,0.0,0.0,0.0,0.0,0.0,0.0,0.0,0.0,0.0,0.0,0.0,0.0,0.0,0.0,0.0,0.0,0.0,0.0,0.0,0.0,0.0,0.0,0.0,0.0,0.0,0.0,0.0,0.0,0.0,0.0,0.0,0.0,0.0,0.0,0.0,0.0,0.0,0.0,0.0,0.0,0.0,0.0,0.0,0.0,0.0,0.0,0.0,0.0,0.0,0.0,0.0,0.0,0.0,0.0,0.0,0.0,0.0,0.0,0.0,0.0,0.0,0.0,0.0,0.0,0.0,0.0,0.0,0.0,0.0,0.0,0.0,0.0,0.0,0.0,0.0,0.0,0.0,0.0,0.0,0.0,0.0,0.0,0.0,0.0,0.0,0.0,0.0,0.0,0.0,0.0,0.0,0.0,0.0,0.0,0.0,0.0,0.0,0.0,0.0,0.0,0.0,-1.9182,0.0,0.0,0.0,0.0,0.0,0.0,0.0,0.0,0.0,0.0,0.0,0.0,0.0,0.0,0.0,0.0,0.0,0.0,0.0,0.0,0.0,0.0,0.0,0.0,0.0,0.0,0.0,0.0,0.0,0.0,0.0,0.0,0.0,0.0,0.0,0.0,0.0,0.0,0.0,0.0,0.0,0.0,0.0,0.0,0.0,0.0,0.0,0.0,0.0,0.0,0.0,0.0,0.0,0.0,0.0,0.0,0.0,0.0,0.0,0.0,0.0,0.0,0.0,0.0,0.0,0.0,0.0,0.0,0.0,0.0,0.0,0.0,0.0,0.0,0.0,0.0,0.0,0.0,0.0,0.0,0.0,0.0,0.0,0.0,0.0,0.0,0.0,0.0,0.0,0.0,0.0,0.0,0.0,0.0,0.0,0.0,0.0,0.0,0.0,0.0,0.0,0.0,0.0,0.0,0.0,0.0,0.0,0.0,0.0,0.0,-1.7753,-1.8658,-1.7759,-1.8145,-2.0087,0.0,0.0,0.0,0.0,0.0,0.0,0.0,0.0,0.0,0.0,0.0,0.0,0.0,0.0,0.0,0.0,0.0,0.0,0.0,0.0,0.0,0.0,0.0,0.0,0.0,0.0,0.0,0.0,0.0,0.0,0.0,0.0,0.0,0.0,0.0,0.0,0.0,0.0,0.0,0.0,0.0,0.0,0.0,0.0,0.0,0.0,0.0,0.0,0.0,0.0,0.0,0.0,0.0,0.0,0.0,0.0,0.0,0.0,0.0,0.0,0.0,0.0,0.0,0.0,0.0,0.0,0.0,0.0,0.0,0.0,0.0,0.0,0.0,0.0,0.0,0.0,0.0,0.0,0.0,0.0,0.0,0.0,0.0,0.0,0.0,0.0,0.0,0.0,0.0,0.0,0.0,0.0,0.0,0.0,0.0,0.0,0.0,0.0,0.0,0.0,0.0,0.0,0.0,0.0,0.0,0.0,0.0,0.0,0.0,0.0,0.0,0.0,-1.8536,-1.892,-2.0963,0.0,0.0,0.0,0.0,0.0,0.0,0.0,0.0,0.0,0.0,0.0,0.0,0.0,0.0,0.0,0.0,0.0,0.0,0.0,0.0,0.0,0.0,0.0,0.0,0.0,0.0,0.0,0.0,0.0,0.0,0.0,0.0,0.0,0.0,0.0,0.0,0.0,0.0,0.0,0.0,0.0,0.0,0.0,0.0,0.0,0.0,0.0,0.0,0.0,0.0,0.0,0.0,0.0,0.0,0.0,0.0,0.0,0.0,0.0,0.0,0.0,0.0,0.0,0.0,0.0,0.0,0.0,0.0,0.0,0.0,0.0,0.0,0.0,0.0,0.0,0.0,0.0,0.0,0.0,0.0,0.0,0.0,0.0,0.0,0.0,0.0,0.0,0.0,0.0,0.0,0.0,0.0,0.0,0.0,0.0,0.0,0.0,0.0,0.0,0.0,0.0,0.0,0.0,0.0,0.0,0.0,0.0,0.0,0.0,0.0,-1.9072,-1.92,-1.9072,0.0,-2.2284,0.0,0.0,0.0,0.0,0.0,0.0,0.0,0.0,0.0,0.0,0.0,0.0,0.0,0.0,0.0,0.0,0.0,0.0,0.0,0.0,0.0,0.0,0.0,0.0,0.0,0.0,0.0,0.0,0.0,0.0,0.0,0.0,0.0,0.0,0.0,0.0,0.0,0.0,0.0,0.0,0.0,0.0,0.0,0.0,0.0,0.0,0.0,0.0,0.0,0.0,0.0,0.0,0.0,0.0,0.0,0.0,0.0,0.0,0.0,0.0,0.0,0.0,0.0,0.0,0.0,0.0,0.0,0.0,0.0,0.0,0.0,0.0,0.0,0.0,0.0,0.0,0.0,0.0,0.0,0.0,0.0,0.0,0.0,0.0,0.0,0.0,0.0,0.0,0.0,0.0,0.0,0.0,0.0,0.0,0.0,0.0,0.0,0.0,0.0,0.0,0.0,0.0,0.0,0.0,0.0,0.0,0.0,0.0,0.0,0.0,-1.945,-1.9705,-2.0094,-2.0956,0.0,0.0,0.0,0.0,0.0,0.0,0.0,0.0,0.0,0.0,0.0,0.0,0.0,0.0,0.0,0.0,0.0,0.0,0.0,0.0,0.0,0.0,0.0,0.0,0.0,0.0,0.0,0.0,0.0,0.0,0.0,0.0,0.0,0.0,0.0,0.0,0.0,0.0,0.0,0.0,0.0,0.0,0.0,0.0,0.0,0.0,0.0,0.0,0.0,0.0,0.0,0.0,0.0,0.0,0.0,0.0,0.0,0.0,0.0,0.0,0.0,0.0,0.0,0.0,0.0,0.0,0.0,0.0,0.0,0.0,0.0,0.0,0.0,0.0,0.0,0.0,0.0,0.0,0.0,0.0,0.0,0.0,0.0,0.0,0.0,0.0,0.0,0.0,0.0,0.0,0.0,0.0,0.0,0.0,0.0,0.0,0.0,0.0,0.0,0.0,0.0,0.0,0.0,0.0,0.0,0.0,0.0,0.0,0.0,0.0,-1.9328,-1.9577,-1.9954,-2.0843,-2.1964,-2.3303,0.0,0.0,0.0,0.0,0.0,0.0,0.0,0.0,0.0,0.0,0.0,0.0,0.0,0.0,0.0,0.0,0.0,0.0,0.0,0.0,0.0,0.0,0.0,0.0,0.0,0.0,0.0,0.0,0.0,0.0,0.0,0.0,0.0,0.0,0.0,0.0,0.0,0.0,0.0,0.0,0.0,0.0,0.0,0.0,0.0,0.0,0.0,0.0,0.0,0.0,0.0,0.0,0.0,0.0,0.0,0.0,0.0,0.0,0.0,0.0,0.0,0.0,0.0,0.0,0.0,0.0,0.0,0.0,0.0,0.0,0.0,0.0,0.0,0.0,0.0,0.0,0.0,0.0,0.0,0.0,0.0,0.0,0.0,0.0,0.0,0.0,0.0,0.0,0.0,0.0,0.0,0.0,0.0,0.0,0.0,0.0,0.0,0.0,0.0,0.0,0.0,0.0,0.0,0.0,0.0,0.0,0.0,0.0,-1.9072,-1.9072,-1.9328,-1.9705,-2.1209,-2.3047,0.0,0.0,0.0,0.0,0.0,0.0,0.0,0.0,0.0,0.0,0.0,0.0,0.0,0.0,0.0,0.0,0.0,0.0,0.0,0.0,0.0,0.0,0.0,0.0,0.0,0.0,0.0,0.0,0.0,0.0,0.0,0.0,0.0,0.0,0.0,0.0,0.0,0.0,0.0,0.0,0.0,0.0,0.0,0.0,0.0,0.0,0.0,0.0,0.0,0.0,0.0,0.0,0.0,0.0,0.0,0.0,0.0,0.0,0.0,0.0,0.0,0.0,0.0,0.0,0.0,0.0,0.0,0.0,0.0,0.0,0.0,0.0,0.0,0.0,0.0,0.0,0.0,0.0,0.0,0.0,0.0,0.0,0.0,0.0,0.0,0.0,0.0,0.0,0.0,0.0,0.0,0.0,0.0,0.0,0.0,0.0,0.0,0.0,0.0,0.0,0.0,0.0,0.0,0.0,0.0,0.0,0.0,0.0,0.0,-1.9072,-1.9072,-1.9206,-1.9328,-2.1076,-2.2923,0.0,0.0,0.0,0.0,0.0,0.0,0.0,0.0,0.0,0.0,0.0,0.0,0.0,0.0,0.0,0.0,0.0,0.0,0.0,0.0,0.0,0.0,0.0,0.0,0.0,0.0,0.0,0.0,0.0,0.0,0.0,0.0,0.0,0.0,0.0,0.0,0.0,0.0,0.0,0.0,0.0,0.0,0.0,0.0,0.0,0.0,0.0,0.0,0.0,0.0,0.0,0.0,0.0,0.0,0.0,0.0,0.0,0.0,0.0,0.0,0.0,0.0,0.0,0.0,0.0,0.0,0.0,0.0,0.0,0.0,0.0,0.0,0.0,0.0,0.0,0.0,0.0,0.0,0.0,0.0,0.0,0.0,0.0,0.0,0.0,0.0,0.0,0.0,0.0,0.0,0.0,0.0,0.0,0.0,0.0,0.0,0.0,0.0,0.0,0.0,0.0,0.0,0.0,0.0,0.0,0.0,0.0,0.0,0.0,-1.9072,0.0,-1.945,0.0,-2.156,-2.3522,0.0,0.0,0.0,0.0,0.0,0.0,0.0,0.0,0.0,0.0,0.0,0.0,0.0,0.0,0.0,0.0,0.0,0.0,0.0,0.0,0.0,0.0,0.0,0.0,0.0,0.0,0.0,0.0,0.0,0.0,0.0,0.0,0.0,0.0,0.0,0.0,0.0,0.0,0.0,0.0,0.0,0.0,0.0,0.0,0.0,0.0,0.0,0.0,0.0,0.0,0.0,0.0,0.0,0.0,0.0,0.0,0.0,0.0,0.0,0.0,0.0,0.0,0.0,0.0,0.0,0.0,0.0,0.0,0.0,0.0,0.0,0.0,0.0,0.0,0.0,0.0,0.0,0.0,0.0,0.0,0.0,0.0,0.0,0.0,0.0,0.0,0.0,0.0,0.0,0.0,0.0,0.0,0.0,0.0,0.0,0.0,0.0,0.0,0.0,0.0,0.0,0.0,0.0,0.0,0.0,0.0,0.0,0.0,-1.8425,-1.9072,-2.0081,-2.0202,-1.9705,-2.2769,-2.4854,0.0,0.0,0.0,0.0,0.0,0.0,0.0,0.0,0.0,0.0,0.0,0.0,0.0,0.0,0.0,0.0,0.0,0.0,0.0,0.0,0.0,0.0,0.0,0.0,0.0,0.0,0.0,0.0,0.0,0.0,0.0,0.0,0.0,0.0,0.0,0.0,0.0,0.0,0.0,0.0,0.0,0.0,0.0,0.0,0.0,0.0,0.0,0.0,0.0,0.0,0.0,0.0,0.0,0.0,0.0,0.0,0.0,0.0,0.0,0.0,0.0,0.0,0.0,0.0,0.0,0.0,0.0,0.0,0.0,0.0,0.0,0.0,0.0,0.0,0.0,0.0,0.0,0.0,0.0,0.0,0.0,0.0,0.0,0.0,0.0,0.0,0.0,0.0,0.0,0.0,0.0,0.0,0.0,0.0,0.0,0.0,0.0,0.0,0.0,0.0,0.0,0.0,0.0,0.0,0.0,0.0,0.0,0.0,0.0,-1.8425,-2.0335,-2.0709,-1.9674,-2.3398,-2.5749,0.0,0.0,0.0,0.0,0.0,0.0,0.0,0.0,0.0,0.0,0.0,0.0,0.0,0.0,0.0,0.0,0.0,0.0,0.0,0.0,0.0,0.0,0.0,0.0,0.0,0.0,0.0,0.0,0.0,0.0,0.0,0.0,0.0,0.0,0.0,0.0,0.0,0.0,0.0,0.0,0.0,0.0,0.0,0.0,0.0,0.0,0.0,0.0,0.0,0.0,0.0,0.0,0.0,0.0,0.0,0.0,0.0,0.0,0.0,0.0,0.0,0.0,0.0,0.0,0.0,0.0,0.0,0.0,0.0,0.0,0.0,0.0,0.0,0.0,0.0,0.0,0.0,0.0,0.0,0.0,0.0,0.0,0.0,0.0,0.0,0.0,0.0,0.0,0.0,0.0,0.0,0.0,0.0,0.0,0.0,0.0,0.0,0.0,0.0,0.0,0.0,0.0,0.0,0.0,0.0,0.0,0.0,0.0,0.0,-1.9304,-2.1215,-2.1713,-2.0436,-2.4147,-2.6244,-2.6599,0.0,0.0,0.0,0.0,0.0,0.0,0.0,0.0,0.0,0.0,0.0,0.0,0.0,0.0,0.0,0.0,0.0,0.0,0.0,0.0,0.0,0.0,0.0,0.0,0.0,0.0,0.0,0.0,0.0,0.0,0.0,0.0,0.0,0.0,0.0,0.0,0.0,0.0,0.0,0.0,0.0,0.0,0.0,0.0,0.0,0.0,0.0,0.0,0.0,0.0,0.0,0.0,0.0,0.0,0.0,0.0,0.0,0.0,0.0,0.0,0.0,0.0,0.0,0.0,0.0,0.0,0.0,0.0,0.0,0.0,0.0,0.0,0.0,0.0,0.0,0.0,0.0,0.0,0.0,0.0,0.0,0.0,0.0,0.0,0.0,0.0,0.0,0.0,0.0,0.0,0.0,0.0,0.0,0.0,0.0,0.0,0.0,0.0,0.0,0.0,0.0,0.0,0.0,0.0,0.0,0.0,0.0,0.0,-2.1209,-2.2849,-2.323,-2.223,-2.5024,-2.6599,0.0,0.0,0.0,0.0,0.0,0.0,0.0,0.0,0.0,0.0,0.0,0.0,0.0,0.0,0.0,0.0,0.0,0.0,0.0,0.0,0.0,0.0,0.0,0.0,0.0,0.0,0.0,0.0,0.0,0.0,0.0,0.0,0.0,0.0,0.0,0.0,0.0,0.0,0.0,0.0,0.0,0.0,0.0,0.0,0.0,0.0,0.0,0.0,0.0,0.0,0.0,0.0,0.0,0.0,0.0,0.0,0.0,0.0,0.0,0.0,0.0,0.0,0.0,0.0,0.0,0.0,0.0,0.0,0.0,0.0,0.0,0.0,0.0,0.0,0.0,0.0,0.0,0.0,0.0,0.0,0.0,0.0,0.0,0.0,0.0,0.0,0.0,0.0,0.0,0.0,0.0,0.0,0.0,0.0,0.0,0.0,0.0,0.0,0.0,0.0,0.0,0.0,0.0,0.0,0.0,0.0,0.0,0.0,0.0,-2.2981,-2.4108,-2.3976,-2.2584,-2.5529,-2.7829,0.0,0.0,0.0,0.0,0.0,0.0,0.0,0.0,0.0,0.0,0.0,0.0,0.0,0.0,0.0,0.0,0.0,0.0,0.0,0.0,0.0,0.0,0.0,0.0,0.0,0.0,0.0,0.0,0.0,0.0,0.0,0.0,0.0,0.0,0.0,0.0,0.0,0.0,0.0,0.0,0.0,0.0,0.0,0.0,0.0,0.0,0.0,0.0,0.0,0.0,0.0,0.0,0.0,0.0,0.0,0.0,0.0,0.0,0.0,0.0,0.0,0.0,0.0,0.0,0.0,0.0,0.0,0.0,0.0,0.0,0.0,0.0,0.0,0.0,0.0,0.0,0.0,0.0,0.0,0.0,0.0,0.0,0.0,0.0,0.0,0.0,0.0,0.0,0.0,0.0,0.0,0.0,0.0,0.0,0.0,0.0,0.0,0.0,0.0,0.0,0.0,0.0,0.0,0.0,0.0,0.0,0.0,0.0,-2.2466,-2.4232,-2.4857,-2.461,-2.372,-2.5806,-2.7958,0.0,0.0,0.0,0.0,0.0,0.0,0.0,0.0,0.0,0.0,0.0,0.0,0.0,0.0,0.0,0.0,0.0,0.0,0.0,0.0,0.0,0.0,0.0,0.0,0.0,0.0,0.0,0.0,0.0,0.0,0.0,0.0,0.0,0.0,0.0,0.0,0.0,0.0,0.0,0.0,0.0,0.0,0.0,0.0,0.0,0.0,0.0,0.0,0.0,0.0,0.0,0.0,0.0,0.0,0.0,0.0,0.0,0.0,0.0,0.0,0.0,0.0,0.0,0.0,0.0,0.0,0.0,0.0,0.0,0.0,0.0,0.0,0.0,0.0,0.0,0.0,0.0,0.0,0.0,0.0,0.0,0.0,0.0,0.0,0.0,0.0,0.0,0.0,0.0,0.0,0.0,0.0,0.0,0.0,0.0,0.0,0.0,0.0,0.0,0.0,0.0,0.0,0.0,0.0,0.0,0.0,0.0,0.0,-2.2584,-2.498,-2.5103,-2.5103,-2.5103,-2.5953,-2.7589,0.0,0.0,0.0,0.0,0.0,0.0,0.0,0.0,0.0,0.0,0.0,0.0,0.0,0.0,0.0,0.0,0.0,0.0,0.0,0.0,0.0,0.0,0.0,0.0,0.0,0.0,0.0,0.0,0.0,0.0,0.0,0.0,0.0,0.0,0.0,0.0,0.0,0.0,0.0,0.0,0.0,0.0,0.0,0.0,0.0,0.0,0.0,0.0,0.0,0.0,0.0,0.0,0.0,0.0,0.0,0.0,0.0,0.0,0.0,0.0,0.0,0.0,0.0,0.0,0.0,0.0,0.0,0.0,0.0,0.0,0.0,0.0,0.0,0.0,0.0,0.0,0.0,0.0,0.0,0.0,0.0,0.0,0.0,0.0,0.0,0.0,0.0,0.0,0.0,0.0,0.0,0.0,0.0,0.0,0.0,0.0,0.0,0.0,0.0,0.0,0.0,0.0,0.0,0.0,0.0,0.0,0.0,0.0,-2.372,-2.498,-2.5103,-2.5103,-2.5111,-2.5839,-2.7589,0.0,0.0,0.0,0.0,0.0,0.0,0.0,0.0,0.0,0.0,0.0,0.0,0.0,0.0,0.0,0.0,0.0,0.0,0.0,0.0,0.0,0.0,0.0,0.0,0.0,0.0,0.0,0.0,0.0,0.0,0.0,0.0,0.0,0.0,0.0,0.0,0.0,0.0,0.0,0.0,0.0,0.0,0.0,0.0,0.0,0.0,0.0,0.0,-4.5895,0.0,0.0,0.0,0.0,0.0,0.0,0.0,0.0,0.0,0.0,0.0,0.0,0.0,0.0,0.0,0.0,0.0,0.0,0.0,0.0,0.0,0.0,0.0,0.0,0.0,0.0,0.0,0.0,0.0,0.0,0.0,0.0,0.0,0.0,0.0,0.0,0.0,0.0,0.0,0.0,0.0,0.0,0.0,0.0,0.0,0.0,0.0,0.0,0.0,0.0,0.0,0.0,0.0,0.0,0.0,0.0,0.0,0.0,0.0,-2.4679,-2.5945,-2.6537,-2.6537,-2.6059,-2.69,-2.8417,0.0,0.0,0.0,0.0,0.0,0.0,0.0,0.0,0.0,0.0,0.0,0.0,0.0,0.0,0.0,0.0,0.0,0.0,0.0,0.0,0.0,0.0,0.0,0.0,0.0,0.0,0.0,0.0,0.0,0.0,0.0,0.0,0.0,0.0,0.0,0.0,0.0,0.0,0.0,0.0,0.0,0.0,0.0,0.0,0.0,0.0,0.0,0.0,0.0,0.0,0.0,0.0,0.0,0.0,0.0,0.0,0.0,0.0,0.0,0.0,0.0,0.0,0.0,0.0,0.0,0.0,0.0,0.0,0.0,0.0,0.0,0.0,0.0,0.0,0.0,0.0,0.0,0.0,0.0,0.0,0.0,0.0,0.0,0.0,0.0,0.0,0.0,0.0,0.0,0.0,0.0,0.0,0.0,0.0,0.0,0.0,0.0,0.0,0.0,0.0,0.0,0.0,0.0,0.0,0.0,0.0,0.0,-2.4232,-2.5489,-2.7246,-2.8325,-2.8444,-2.7375,-2.8564,-2.9837,-3.0945,0.0,0.0,0.0,0.0,0.0,0.0,0.0,0.0,0.0,0.0,0.0,0.0,0.0,0.0,0.0,0.0,0.0,0.0,0.0,0.0,0.0,0.0,0.0,0.0,0.0,0.0,0.0,0.0,0.0,0.0,0.0,0.0,0.0,0.0,0.0,0.0,0.0,0.0,-4.5398,-4.5747,0.0,0.0,0.0,0.0,0.0,0.0,0.0,0.0,-4.7649,0.0,0.0,0.0,0.0,0.0,0.0,0.0,0.0,0.0,0.0,0.0,0.0,0.0,0.0,0.0,0.0,0.0,0.0,0.0,0.0,0.0,0.0,0.0,0.0,0.0,0.0,0.0,0.0,0.0,0.0,0.0,0.0,0.0,0.0,0.0,0.0,0.0,0.0,0.0,0.0,0.0,0.0,0.0,0.0,0.0,0.0,0.0,0.0,0.0,0.0,0.0,0.0,0.0,0.0,0.0,0.0,-2.5008,-2.5261,-2.6365,-2.8564,-2.8801,-2.8801,-2.8683,-3.01,-3.1361,-3.2219,0.0,0.0,0.0,0.0,0.0,0.0,0.0,0.0,0.0,0.0,0.0,0.0,0.0,0.0,0.0,0.0,0.0,0.0,0.0,0.0,0.0,0.0,0.0,0.0,0.0,0.0,0.0,0.0,0.0,0.0,0.0,0.0,0.0,0.0,0.0,0.0,0.0,0.0,0.0,-4.6756,-4.7091,0.0,0.0,0.0,0.0,0.0,0.0,0.0,0.0,-4.8355,0.0,0.0,0.0,0.0,0.0,0.0,0.0,0.0,0.0,0.0,0.0,0.0,0.0,0.0,0.0,0.0,0.0,0.0,0.0,0.0,0.0,0.0,0.0,0.0,0.0,0.0,0.0,0.0,0.0,0.0,0.0,0.0,0.0,0.0,0.0,0.0,0.0,0.0,0.0,0.0,0.0,0.0,0.0,0.0,0.0,0.0,0.0,0.0,0.0,0.0,0.0,0.0,0.0,0.0,0.0,-2.5189,-2.7399,-2.9002,-3.01,-3.0917,-3.1033,-3.0441,-3.1747,-3.2995,0.0,0.0,0.0,0.0,0.0,0.0,0.0,0.0,0.0,0.0,0.0,0.0,0.0,0.0,0.0,0.0,0.0,0.0,0.0,0.0,0.0,0.0,0.0,0.0,0.0,0.0,0.0,0.0,0.0,0.0,0.0,0.0,0.0,0.0,0.0,0.0,0.0,0.0,0.0,0.0,-4.6373,-4.6624,-4.6944,0.0,0.0,0.0,0.0,0.0,0.0,-4.8934,-4.9178,0.0,0.0,0.0,0.0,0.0,0.0,0.0,0.0,0.0,0.0,0.0,0.0,0.0,0.0,0.0,0.0,0.0,0.0,0.0,0.0,0.0,0.0,0.0,0.0,0.0,0.0,0.0,0.0,0.0,0.0,0.0,0.0,0.0,0.0,0.0,0.0,0.0,0.0,0.0,0.0,0.0,0.0,0.0,0.0,0.0,0.0,0.0,0.0,0.0,0.0,0.0,0.0,0.0,0.0,0.0,-2.5602,-2.9164,-3.1265,-3.1747,-3.2924,-3.3151,-3.2197,-3.3027,-3.4278,0.0,0.0,0.0,0.0,0.0,0.0,0.0,0.0,0.0,0.0,0.0,0.0,0.0,0.0,0.0,0.0,0.0,0.0,0.0,0.0,0.0,0.0,0.0,0.0,0.0,0.0,0.0,0.0,0.0,0.0,0.0,0.0,0.0,0.0,0.0,0.0,0.0,0.0,0.0,0.0,0.0,-4.6314,-4.6755,-4.7664,0.0,0.0,0.0,0.0,-4.9677,-4.9597,0.0,0.0,0.0,0.0,0.0,0.0,0.0,0.0,0.0,0.0,0.0,0.0,0.0,0.0,0.0,0.0,0.0,0.0,0.0,0.0,0.0,0.0,0.0,0.0,0.0,0.0,0.0,0.0,0.0,0.0,0.0,0.0,0.0,0.0,0.0,0.0,0.0,0.0,0.0,0.0,0.0,0.0,0.0,0.0,0.0,0.0,0.0,0.0,0.0,0.0,0.0,0.0,0.0,0.0,0.0,0.0,-2.7493,-2.9146,-3.107,-3.3161,-3.3501,-3.3501,-3.3388,-3.3512,-3.4278,0.0,0.0,0.0,0.0,0.0,0.0,0.0,0.0,0.0,0.0,0.0,0.0,0.0,0.0,0.0,0.0,0.0,0.0,0.0,0.0,0.0,0.0,0.0,0.0,0.0,0.0,0.0,0.0,0.0,0.0,0.0,0.0,0.0,0.0,0.0,0.0,0.0,0.0,0.0,0.0,0.0,-4.7291,-4.8019,-4.8202,-4.8537,0.0,0.0,0.0,-4.9275,-4.921,0.0,0.0,0.0,0.0,0.0,0.0,0.0,0.0,0.0,0.0,0.0,0.0,0.0,0.0,0.0,0.0,0.0,0.0,0.0,0.0,0.0,0.0,0.0,0.0,0.0,0.0,0.0,0.0,0.0,0.0,0.0,0.0,0.0,0.0,0.0,0.0,0.0,0.0,0.0,0.0,0.0,0.0,0.0,0.0,0.0,0.0,0.0,0.0,0.0,0.0,0.0,0.0,0.0,0.0,0.0,-2.6023,-2.7869,-3.0713,-3.2758,-3.3861,-3.4086,-3.4076,-3.4076,-3.4076,-3.4736,0.0,0.0,0.0,0.0,0.0,0.0,0.0,0.0,0.0,0.0,0.0,0.0,0.0,0.0,0.0,0.0,0.0,0.0,0.0,0.0,0.0,0.0,0.0,0.0,0.0,0.0,0.0,0.0,0.0,0.0,0.0,0.0,0.0,0.0,0.0,0.0,0.0,0.0,0.0,0.0,0.0,0.0,-4.8552,-4.88,0.0,0.0,0.0,-4.9194,-4.9597,0.0,0.0,0.0,0.0,0.0,0.0,0.0,0.0,0.0,0.0,0.0,0.0,0.0,0.0,0.0,0.0,0.0,0.0,0.0,0.0,0.0,0.0,0.0,0.0,0.0,0.0,0.0,0.0,0.0,0.0,0.0,0.0,0.0,0.0,0.0,0.0,0.0,0.0,0.0,0.0,0.0,0.0,0.0,0.0,0.0,0.0,0.0,0.0,0.0,0.0,0.0,0.0,0.0,0.0,0.0,0.0,0.0,-2.8728,-3.2291,-3.4086,-3.4199,-3.4412,-3.4624,-3.4958,-3.4947,0.0,0.0,0.0,0.0,0.0,0.0,0.0,0.0,0.0,0.0,0.0,0.0,0.0,0.0,0.0,0.0,0.0,0.0,0.0,0.0,0.0,0.0,0.0,0.0,0.0,0.0,0.0,-4.2571,0.0,0.0,0.0,0.0,0.0,0.0,0.0,0.0,0.0,0.0,0.0,0.0,0.0,0.0,-4.7189,-4.8567,-4.9047,-4.921,0.0,0.0,-4.9884,-5.0058,-5.012,-5.0026,0.0,0.0,0.0,0.0,0.0,0.0,0.0,0.0,0.0,0.0,0.0,0.0,0.0,0.0,0.0,0.0,0.0,0.0,0.0,0.0,0.0,0.0,0.0,0.0,0.0,0.0,0.0,0.0,0.0,0.0,0.0,0.0,0.0,0.0,0.0,0.0,0.0,0.0,0.0,0.0,0.0,0.0,0.0,0.0,0.0,0.0,0.0,0.0,0.0,0.0,0.0,0.0,0.0,0.0,0.0,-3.0655,-3.2903,-3.4199,-3.4412,-3.4524,-3.4947,-3.6025,-3.6122,-3.6665,0.0,0.0,0.0,0.0,0.0,0.0,0.0,0.0,0.0,0.0,0.0,0.0,0.0,0.0,0.0,0.0,0.0,0.0,0.0,0.0,0.0,0.0,0.0,0.0,0.0,0.0,0.0,0.0,0.0,0.0,0.0,0.0,0.0,0.0,0.0,0.0,0.0,0.0,0.0,0.0,0.0,-4.7634,-4.8034,-4.8635,-4.8996,0.0,0.0,-5.0429,-5.0707,-5.1129,-5.132,-5.1027,0.0,0.0,0.0,0.0,0.0,0.0,0.0,0.0,0.0,0.0,0.0,0.0,0.0,0.0,0.0,0.0,0.0,0.0,0.0,0.0,0.0,0.0,0.0,0.0,0.0,0.0,0.0,0.0,0.0,0.0,0.0,0.0,0.0,0.0,0.0,0.0,0.0,0.0,0.0,0.0,0.0,0.0,0.0,0.0,0.0,0.0,0.0,0.0,0.0,0.0,0.0,0.0,0.0,-3.0286,-3.0781,-3.313,-3.4412,-3.4524,-3.5157,-3.5795,-3.6414,-3.7168,-3.7914,0.0,0.0,0.0,0.0,0.0,0.0,0.0,0.0,0.0,0.0,0.0,0.0,0.0,0.0,0.0,0.0,0.0,0.0,0.0,0.0,0.0,0.0,0.0,0.0,0.0,0.0,0.0,0.0,-4.5685,-4.5805,-4.5609,0.0,0.0,0.0,0.0,0.0,0.0,0.0,0.0,0.0,0.0,-4.8034,-4.8552,-4.8965,0.0,0.0,-5.0338,-5.1011,-5.1459,-5.1776,-5.1905,-5.1647,-5.1343,0.0,0.0,0.0,0.0,0.0,0.0,0.0,0.0,0.0,0.0,0.0,0.0,0.0,0.0,0.0,0.0,0.0,0.0,0.0,0.0,0.0,0.0,0.0,0.0,0.0,0.0,0.0,0.0,0.0,0.0,0.0,0.0,0.0,0.0,0.0,0.0,0.0,0.0,0.0,0.0,0.0,0.0,0.0,0.0,0.0,0.0,0.0,0.0,0.0,0.0,0.0,0.0,-3.1235,-3.1552,-3.3877,-3.5268,-3.5685,-3.6534,-3.7156,-3.7772,-3.8521,-3.9274,0.0,0.0,0.0,0.0,0.0,0.0,0.0,0.0,0.0,0.0,0.0,0.0,0.0,0.0,0.0,0.0,0.0,0.0,0.0,0.0,0.0,0.0,0.0,0.0,0.0,0.0,0.0,0.0,-4.579,-4.579,-4.6135,0.0,0.0,0.0,0.0,0.0,0.0,0.0,0.0,0.0,0.0,-4.8934,-4.9517,-4.9372,-4.9582,-5.0461,-5.1011,-5.1623,-5.2329,-5.2664,-5.2769,-5.242,0.0,0.0,0.0,0.0,0.0,0.0,0.0,0.0,0.0,0.0,0.0,0.0,0.0,0.0,0.0,0.0,0.0,0.0,0.0,0.0,0.0,0.0,0.0,0.0,0.0,0.0,0.0,0.0,0.0,0.0,0.0,0.0,0.0,0.0,0.0,0.0,0.0,0.0,0.0,0.0,0.0,0.0,0.0,0.0,0.0,0.0,0.0,0.0,0.0,0.0,0.0,0.0,0.0,0.0,-3.3332,-3.5474,-3.7037,-3.8113,-3.8509,-3.9134,-4.0198,-4.03,-4.063,-4.1259,0.0,0.0,0.0,0.0,0.0,0.0,0.0,0.0,0.0,0.0,0.0,0.0,0.0,0.0,0.0,0.0,0.0,0.0,0.0,0.0,0.0,0.0,0.0,0.0,0.0,0.0,-4.597,-4.5413,-4.5656,0.0,0.0,0.0,0.0,0.0,0.0,0.0,0.0,0.0,0.0,-4.9771,-5.0338,-5.0919,-4.9884,-4.9646,-5.1303,-5.176,-5.2208,-5.3247,-5.3946,-5.4222,0.0,0.0,0.0,0.0,0.0,0.0,0.0,0.0,0.0,0.0,0.0,0.0,0.0,0.0,0.0,0.0,0.0,0.0,0.0,0.0,0.0,0.0,0.0,0.0,0.0,0.0,0.0,0.0,-2.1623,0.0,0.0,0.0,0.0,0.0,0.0,0.0,0.0,0.0,0.0,0.0,-2.5958,-2.6779,0.0,0.0,0.0,0.0,0.0,0.0,0.0,0.0,0.0,0.0,0.0,0.0,-3.3261,-3.3546,-3.6225,-3.7902,-3.8323,-3.9262,-4.0071,-4.0705,-4.1458,-4.1683,-4.1584,0.0,0.0,0.0,0.0,0.0,0.0,0.0,0.0,0.0,0.0,0.0,0.0,0.0,0.0,0.0,0.0,0.0,0.0,0.0,0.0,0.0,0.0,0.0,0.0,0.0,-4.6844,0.0,0.0,0.0,0.0,0.0,0.0,0.0,0.0,0.0,0.0,0.0,-4.9837,-5.1124,-5.0984,-5.0843,-5.107,-5.08,-5.0995,0.0,0.0,0.0,0.0,0.0,0.0,0.0,0.0,0.0,0.0,0.0,0.0,0.0,0.0,-5.4213,-5.4425,-5.4676,-5.4861,-5.4852,0.0,0.0,0.0,0.0,0.0,0.0,0.0,0.0,0.0,0.0,0.0,0.0,0.0,0.0,0.0,0.0,-2.5457,0.0,0.0,0.0,0.0,0.0,0.0,0.0,0.0,-2.8707,-2.9351,-2.9473,-3.047,-3.0538,0.0,-2.8861,-2.7844,0.0,0.0,0.0,0.0,0.0,0.0,0.0,0.0,-3.467,-3.5263,-3.7805,-3.9353,-3.979,-4.0718,-4.1332,-4.1531,-4.2275,-4.2498,-4.2105,-4.2639,-4.3081,0.0,0.0,0.0,0.0,0.0,0.0,0.0,0.0,0.0,0.0,0.0,0.0,0.0,0.0,0.0,0.0,0.0,0.0,0.0,0.0,0.0,0.0,0.0,-4.7789,0.0,0.0,0.0,0.0,0.0,0.0,0.0,0.0,0.0,-4.8356,-4.9469,-5.0984,-5.2511,-5.2023,-5.159,-5.1954,0.0,0.0,0.0,0.0,0.0,0.0,0.0,-5.4512,-5.4512,-5.4512,-5.4494,-5.4575,-5.4575,-5.4494,-5.4592,0.0,0.0,-5.4824,-5.4859,-5.4938,-5.493,-5.4695,-5.4764,-5.5649,-5.5591,-5.5615,0.0,0.0,0.0,0.0,0.0,0.0,0.0,0.0,-2.8711,-2.8572,0.0,-2.858,0.0,0.0,0.0,0.0,0.0,0.0,0.0,0.0,-3.4746,-3.5541,-3.5489,-3.5102,-3.5582,-3.6898,-3.3735,-3.3064,-3.4415,-3.2085,0.0,0.0,0.0,0.0,0.0,0.0,-3.6383,-3.8503,-4.0033,-4.1332,-4.24,-4.2693,-4.2887,-4.2873,-4.2984,-4.308,-4.3067,-4.4031,-4.4932,-4.5389,-4.584,0.0,0.0,0.0,0.0,0.0,0.0,0.0,0.0,0.0,0.0,0.0,0.0,0.0,0.0,0.0,0.0,0.0,0.0,0.0,0.0,-4.8651,0.0,0.0,0.0,0.0,0.0,0.0,0.0,0.0,0.0,0.0,-4.7981,-5.0497,-5.2817,-5.3365,0.0,0.0,0.0,0.0,-5.2246,-5.3946,-5.3749,-5.3666,-5.4367,-5.4512,-5.4512,-5.4512,0.0,0.0,-5.478,-5.4637,-5.462,-5.478,-5.47,-5.4557,-5.462,-5.4762,-5.4824,-5.493,-5.542,-5.5812,-5.5712,-5.6115,-5.6616,-3.2613,0.0,0.0,0.0,0.0,-3.0669,-3.1166,-3.1907,-3.1011,-3.0588,-3.08,-3.0597,0.0,0.0,0.0,0.0,0.0,0.0,-3.4769,-3.7003,-3.7134,-3.7907,-3.9064,-3.8752,-3.8618,-3.8746,-3.7734,-3.7643,-3.8119,-3.7604,-3.5301,-3.1381,0.0,0.0,0.0,0.0,-3.8202,-3.8723,-4.088,-4.219,-4.2511,-4.279,-4.3245,-4.3857,-4.4591,-4.5052,-4.5207,-4.5465,-4.5929,-4.6359,-4.655,0.0,0.0,0.0,0.0,0.0,0.0,0.0,0.0,0.0,0.0,0.0,0.0,0.0,0.0,0.0,0.0,0.0,0.0,0.0,-4.8548,-4.944,-5.0071,0.0,0.0,0.0,0.0,0.0,0.0,0.0,0.0,0.0,-5.1529,-5.2051,-5.2577,0.0,0.0,-5.3196,-5.3043,-5.3179,-5.3533,-5.4093,0.0,0.0,0.0,-5.4512,-5.4512,-5.4512,-5.4512,-5.4512,-5.4575,-5.4913,-5.5182,-5.5242,-5.5502,-5.5791,-5.5791,-5.5461,-5.5371,-5.5783,-5.6025,-5.6366,-5.6722,-5.6982,-5.7266,-3.7014,-3.445,-3.3569,-3.3454,-3.3953,-3.3953,-3.4728,-3.6019,-3.5118,-3.4821,-3.5036,-3.4831,-3.4182,-3.324,-3.2739,0.0,0.0,0.0,-3.7209,-3.9161,-3.8915,-3.9441,-4.0337,-4.0683,-4.086,-4.0761,-4.0009,-4.0277,-4.1372,-4.0207,-3.8095,-3.5101,0.0,0.0,-3.6156,-3.8436,-3.9829,-4.0223,-4.1828,-4.2706,-4.2693,-4.3149,-4.3695,-4.4312,-4.5221,-4.5854,-4.6107,-4.655,-4.6986,-4.7246,-4.7433,-4.7291,0.0,0.0,0.0,0.0,0.0,0.0,0.0,0.0,0.0,0.0,0.0,-4.7637,0.0,0.0,0.0,0.0,-4.9315,-4.9898,-5.0514,-5.118,0.0,0.0,0.0,0.0,0.0,0.0,0.0,-5.2063,-5.3028,-5.3583,-5.3499,-5.3298,-5.3146,-5.3078,-5.3466,-5.37,-5.3399,0.0,-5.411,-5.4303,-5.4303,-5.4367,-5.4512,-5.4512,-5.4557,-5.4834,-5.4603,-5.4728,-5.5164,-5.5325,-5.5502,-5.5716,-5.6093,-5.6403,-5.6634,-5.6403,-5.6201,-5.6339,-5.6545,-5.6876,-5.7316,-5.7533,-5.7867,-4.0441,-4.0302,-3.774,-3.7231,-3.814,-3.814,-3.8915,-4.0093,-4.0093,-4.0093,-4.0093,-4.0093,-3.943,-3.814,-3.7111,0.0,0.0,-3.86,-3.9372,-4.0556,-4.0556,-4.0556,-4.0556,-4.1724,-4.2526,-4.296,-4.1213,-4.1731,-4.4019,-4.0969,-4.0005,-4.1065,-4.0273,-3.9994,-4.0096,-4.0503,-4.1332,-4.2595,-4.297,-4.3149,-4.3163,-4.4045,-4.4499,-4.4563,-4.5494,-4.6137,-4.6373,-4.7417,-4.8027,-4.8027,-4.8423,-4.8537,-4.8286,0.0,0.0,0.0,0.0,0.0,0.0,0.0,0.0,0.0,0.0,0.0,0.0,0.0,0.0,0.0,-5.1635,0.0,-5.291,-5.3197,0.0,0.0,0.0,-5.2262,-5.2333,-5.3009,-5.3382,-5.3466,0.0,0.0,0.0,0.0,-5.4209,-5.4247,-5.4131,-5.4045,-5.4093,-5.4158,-5.4303,-5.4448,-5.4512,-5.4512,-5.4512,-5.4575,-5.4772,-5.5224,-5.5,-5.5104,-5.6017,-5.6106,-5.5918,-5.6455,-5.6635,-5.6953,-5.7497,-5.7771,-5.7564,-5.7028,-5.7213,-5.7558,-5.7876,-5.8349,-5.8688,-4.3479,-4.3564,-4.2909,-4.1513,-3.957,-3.9581,-3.9826,-4.0093,-4.0093,-4.0093,-4.0093,-4.0093,-4.0186,-4.037,-4.1136,-4.1828,-4.2438,-4.3352,-4.3939,-4.4331,-4.4331,-4.4344,-4.4331,-4.4574,-4.4804,-4.4912,-4.4414,-4.4343,-4.4571,-4.3284,-4.2618,-4.2554,-4.2574,-4.1861,-4.0401,-4.2168,-4.3259,-4.3559,-4.4591,-4.5144,-4.5158,-4.6033,-4.6564,-4.6725,-4.7734,-4.8423,-4.8723,-4.9066,-4.9163,-4.9163,-4.9259,-4.8918,-4.8057,-4.7649,0.0,0.0,0.0,0.0,0.0,0.0,0.0,0.0,0.0,-4.996,-4.891,0.0,-5.1005,0.0,-5.3129,-5.3532,-5.2494,-5.2992,0.0,0.0,-5.2717,-5.27,-5.3781,-5.3666,-5.36,-5.4158,-5.4385,-5.4512,-5.4431,-5.4448,-5.4465,-5.4402,-5.4257,-5.4011,-5.3666,-5.4076,-5.4448,-5.4512,-5.4512,-5.4512,-5.4575,-5.4896,-5.5224,-5.5402,-5.5698,-5.6039,-5.6313,-5.7259,-5.7985,-5.8192,-5.903,-5.9703,-5.99,-5.9983,-5.9964,-5.9881,-5.9458,-5.9274,-6.0011,-6.027,-6.0215,-4.4951,-4.5059,-4.5059,-4.4113,-4.2501,-4.2276,-4.2188,-4.2164,-4.2289,-4.2401,-4.2401,-4.2501,-4.2724,-4.3083,-4.3978,-4.4453,-4.4683,-4.5261,-4.5595,-4.5595,-4.5595,-4.5595,-4.5595,-4.5595,-4.5715,-4.5795,-4.6099,-4.6225,-4.5962,-4.5857,-4.5451,-4.4857,-4.4892,-4.4227,-4.293,-4.3989,-4.4392,-4.4125,-4.5235,-4.5779,-4.5883,-4.6842,-4.7276,-4.7088,-4.8708,-4.9614,-4.9662,-5.029,-5.029,-4.9647,-4.9662,-4.9327,-4.8646,-4.8496,-4.8368,0.0,0.0,0.0,0.0,0.0,0.0,0.0,0.0,0.0,0.0,0.0,-5.2514,0.0,-5.3795,0.0,-5.2855,-5.3432,-5.3881,-5.3881,-5.3713,-5.3939,-5.4817,-5.4765,-5.473,-5.4878,-5.4896,-5.4772,-5.4575,-5.4745,-5.4878,-5.4896,-5.5044,-5.4844,-5.4124,-5.4239,-5.4512,-5.4512,-5.4512,-5.462,-5.4852,-5.5426,-5.5946,-5.6203,-5.6653,-5.7171,-5.7706,-5.8578,-5.9341,-5.9637,-6.0324,-6.0885,-6.0903,-6.0966,-6.1085,-6.1452,-6.1204,-6.0963,-6.1069,-6.1081,-6.0914,-4.5993,-4.5993,-4.598,-4.5993,-4.5993,-4.5435,-4.5033,-4.4843,-4.518,-4.5301,-4.5301,-4.5502,-4.5609,-4.5595,-4.5702,-4.5702,-4.5715,-4.5715,-4.5715,-4.5715,-4.5715,-4.5715,-4.5715,-4.5795,-4.602,-4.6309,-4.7102,-4.7601,-4.7878,-4.8138,-4.799,-4.7326,-4.7105,-4.6585,-4.5808,-4.5764,-4.5479,-4.4854,-4.5689,-4.6048,-4.6151,-4.716,-4.7503,-4.7058,-4.9329,-5.0365,-5.0101,-5.1271,-5.1345,-5.0085,-5.0008,-4.9946,-4.9805,-4.9773,-5.0208,0.0,-5.1141,0.0,0.0,0.0,0.0,0.0,0.0,0.0,0.0,-5.4035,-5.4167,-5.3426,-5.4213,-5.446,-5.3698,-5.4269,-5.4557,-5.4494,-5.5061,-5.5385,-5.5385,-5.5943,-5.6111,-5.556,-5.5502,-5.5284,-5.4913,-5.5224,-5.5502,-5.556,-5.5887,-5.583,-5.5018,-5.4772,-5.4852,-5.4728,-5.4728,-5.5044,-5.5402,-5.6146,-5.6935,-5.7384,-5.7978,-5.8569,-5.955,-6.0008,-6.0408,-6.0896,-6.1244,-6.1426,-6.1352,-6.1452,-6.1781,-6.2438,-6.2506,-6.2257,-6.1775,-6.1626,-6.1484,-4.8125,-4.811,-4.811,-4.811,-4.811,-4.801,-4.693,-4.5488,-4.5488,-4.5502,-4.5502,-4.5609,-4.5702,-4.5901,-4.5914,-4.6034,-4.635,-4.6364,-4.6364,-4.6364,-4.6364,-4.6364,-4.6364,-4.7129,-4.7629,-4.7717,-4.8696,-4.9176,-4.9161,-4.8832,-4.8304,-4.7666,-4.7864,-4.7214,0.0,0.0,0.0,0.0,-4.7664,-4.7593,-4.7593,-4.8496,-4.9088,-4.9137,-5.0731,0.0,-5.1743,-5.1977,-5.2048,-5.1711,-5.1727,0.0,0.0,0.0,0.0,0.0,0.0,0.0,0.0,0.0,0.0,0.0,-5.4321,-5.4285,-5.4069,-5.515,-5.5592,-5.4807,-5.5495,-5.5698,-5.5069,-5.5164,-5.5018,-5.4557,-5.5061,-5.5385,-5.5402,-5.5943,-5.6239,-5.6166,-5.6093,-5.6111,-5.5943,-5.6055,-5.6111,-5.6093,-5.6221,-5.6203,-5.5999,-5.5943,-5.5943,-5.5943,-5.5981,-5.5907,-5.5601,-5.7083,-5.8292,-5.8567,-5.9575,-6.0388,-6.0718,-6.1419,-6.1892,-6.2083,-6.2647,-6.3055,-6.3074,-6.3156,-6.31,-6.3342,-6.336,-6.3342,-6.3193,-6.3156,-6.297,-4.9133,0.0,-4.9133,-4.9133,0.0,-4.9133,-4.8553,-4.7587,-4.7485,-4.7499,-4.7587,-4.7587,-4.7703,-4.7805,-4.7805,-4.7906,-4.8021,-4.8021,-4.8021,-4.8021,-4.8021,-4.8122,-4.8195,-4.8681,-4.8979,-4.9147,-5.0213,-5.0704,-5.0674,-5.0765,-5.0563,-4.9946,-5.0002,-4.9512,-4.8466,-4.9456,-4.9742,-4.9374,-4.9503,-4.9726,-4.9789,-5.0381,-5.0486,-5.0362,0.0,0.0,0.0,0.0,0.0,0.0,0.0,0.0,0.0,0.0,0.0,-5.4313,-5.4547,-5.485,-5.5355,-5.5209,-5.5273,-5.5688,-5.595,-5.595,-5.5653,-5.6295,-5.6527,-5.6115,-5.6222,-5.6148,-5.5887,-5.583,-5.5716,-5.5443,-5.5869,-5.624,-5.6312,-5.6757,-5.7033,-5.6739,-5.6704,-5.6581,-5.633,-5.6528,-5.6686,-5.6686,-5.6964,-5.7134,-5.7083,-5.6652,-5.6312,-5.6367,-5.7028,-5.7384,-5.7333,-5.8583,-5.9816,-5.9973,-6.0876,-6.1575,-6.1693,-6.2406,-6.2989,-6.3026,-6.3342,-6.3602,-6.3602,-6.3602,-6.3602,-6.3602,-6.3602,-6.3602,-6.3602,-6.3602,-6.349,-5.0243,-5.0228,-5.0228,-5.0243,-5.0243,-5.0258,-5.0147,-5.0066,0.0,0.0,0.0,-4.9567,-4.9567,-4.9567,-4.9567,-4.9567,-4.9664,-4.9582,-4.9664,-4.9761,-4.9664,-4.9747,-4.9925,-5.0103,-5.0389,-5.0579,-5.1636,-5.2199,-5.2365,-5.2978,-5.3137,-5.2667,-5.2379,-5.1853,-5.1226,-5.1394,-5.1229,-5.0703,-5.0989,-5.1287,-5.1508,-5.18,-5.1694,-5.1173,-5.2736,-5.3331,-5.2721,-5.3878,-5.4025,-5.296,-5.3309,-5.3648,-5.3759,-5.4296,-5.5049,-5.5865,-5.6349,-5.6707,-5.6975,-5.6724,-5.6599,-5.6599,-5.7033,-5.7284,-5.7284,-5.7284,-5.7284,-5.7266,-5.6861,-5.6546,-5.6438,-5.6438,-5.6384,-5.633,-5.6809,-5.7116,-5.7116,-5.766,-5.7774,-5.7382,-5.7284,-5.7116,-5.6704,-5.7015,-5.7284,-5.7333,-5.7613,-5.8088,-5.805,-5.7361,-5.6758,-5.6991,-5.7891,-5.8695,-5.9067,-6.0157,-6.1159,-6.1215,-6.199,-6.2599,-6.271,-6.3156,-6.3565,-6.3546,-6.3602,-6.3602,-6.3602,-6.3602,-6.3602,-6.3602,-6.3602,-6.3602,-6.3602,-6.3602,-6.3602,-5.2652,-5.2905,-5.2889,-5.2742,-5.2593,-5.2593,-5.2487,-5.2124,-5.0353,-4.9567,-4.9567,-4.9567,-4.9567,-4.9567,-4.9567,-4.9664,-4.9829,-4.9664,-4.9844,0.0,-4.994,-5.0022,-5.0294,-5.1158,-5.1544,-5.1636,-5.2695,-5.349,-5.4115,-5.4301,-5.4468,-5.4365,-5.3808,-5.278,-5.1729,-5.2191,-5.2614,-5.2564,-5.1516,-5.0983,-5.0983,-5.1845,-5.2184,-5.2184,-5.3581,-5.4286,-5.4188,-5.4367,-5.4648,-5.4974,-5.5017,-5.5297,-5.5836,-5.6367,-5.6753,-5.6924,-5.7431,-5.7792,-5.7828,-5.781,-5.7774,-5.7774,-5.7839,-5.7886,-5.7886,-5.7886,-5.7886,-5.7886,-5.7774,-5.7565,-5.7065,-5.7015,-5.6809,-5.6438,-5.6791,-5.7116,-5.7166,-5.7613,-5.7932,-5.7821,-5.7886,-5.7821,-5.7708,-5.7774,-5.7821,-5.7867,-5.7977,-5.8253,-5.8666,-5.8325,-5.7941,-5.8201,-5.8901,-5.9522,-6.0034,-6.1191,-6.2064,-6.2183,-6.2877,-6.3342,-6.3342,-6.3472,-6.3602,-6.3602,-6.3602,-6.3602,-6.3602,-6.3602,-6.3602,-6.3602,-6.3602,-6.3602,-6.3602,-6.3602,-6.3602,-5.4637,-5.472,-5.472,-5.4736,-5.4653,-5.4637,-5.4553,-5.4369,-5.3475,-5.2362,-5.1326,-5.1233,-5.1326,-5.1527,-5.1512,-5.1589,-5.1758,-5.1666,-5.1758,-5.2018,-5.2303,-5.2557,-5.2911,-5.3765,-5.4274,-5.4389,-5.487,-5.5312,-5.5619,-5.5506,-5.5529,-5.5647,-5.4857,-5.3981,-5.3128,-5.3365,-5.3649,-5.3813,-5.3078,-5.2771,-5.2857,-5.3281,-5.3498,-5.3481,-5.4205,-5.4512,-5.4512,-5.4852,-5.5122,-5.5385,-5.5981,-5.6456,-5.6757,-5.7284,-5.7613,-5.7613,-5.7839,-5.7978,-5.7978,-5.7978,-5.7978,-5.7978,-5.7978,-5.7978,-5.7978,-5.7978,-5.7978,-5.7978,-5.7978,-5.7886,-5.7594,-5.7613,-5.7498,-5.7252,-5.7449,-5.7613,-5.7613,-5.7821,-5.7978,-5.7978,-5.7978,-5.7978,-5.7978,-5.7978,-5.7978,-5.8015,-5.8327,-5.8804,-5.9208,-5.9347,-5.9485,-5.9758,-6.0416,-6.0978,-6.1302,-6.2289,-6.2944,-6.3063,-6.336,-6.3583,-6.3602,-6.3602,-6.3602,-6.3602,-6.3602,-6.3602,-6.3602,-6.3602,-6.3602,-6.3602,-6.3602,-6.3602,-6.3602,-6.3602,-6.3602,-5.5985,-5.608,-5.6064,-5.5985,-5.5968,-5.5889,-5.5906,-5.5906,-5.5889,-5.4952,-5.3505,-5.3434,-5.3521,-5.3711,-5.3711,-5.3852,-5.4008,-5.4008,-5.4008,-5.4195,-5.472,-5.5133,-5.5393,-5.6001,-5.6409,-5.6614,-5.663,-5.6674,-5.6827,-5.6624,-5.6621,-5.663,-5.5911,-5.5169,-5.4561,-5.4325,-5.4367,-5.4512,-5.4367,-5.4367,-5.4512,-5.4512,-5.4512,-5.4512,-5.462,-5.4728,-5.4745,-5.5284,-5.5658,-5.583,-5.6616,-5.7166,-5.7333,-5.7708,-5.7978,-5.7978,-5.7978,-5.7978,-5.7978,-5.7978,-5.7978,-5.7978,-5.7978,-5.7978,-5.7997,-5.807,-5.8115,-5.8024,-5.7978,-5.7978,-5.7978,-5.7978,-5.7978,-5.7978,-5.7978,-5.7978,-5.7978,-5.7978,-5.7978,-5.7978,-5.7978,-5.7978,-5.7978,-5.7978,-5.807,-5.8364,-5.8822,-5.9281,-5.9703,-6.0404,-6.0913,-6.132,-6.1782,-6.2151,-6.2591,-6.3137,-6.3527,-6.3602,-6.3602,-6.3602,-6.3602,-6.3602,-6.3602,-6.3602,-6.3602,-6.3602,-6.3602,-6.3602,-6.3602,-6.3602,-6.3602,-6.3602,-6.3602,-6.3602,-6.3602,-5.6315,-5.652,-5.6597,-5.6409,-5.6265,-5.6031,-5.6031,-5.6047,-5.5968,-5.581,-5.5714,-5.5587,-5.5571,-5.5667,-5.5587,-5.5667,-5.581,-5.5747,-5.5843,-5.6192,-5.6159,-5.622,-5.6442,-5.6536,-5.6614,-5.6691,-5.6691,-5.7131,-5.7724,-5.7651,-5.7641,-5.7672,-5.7015,-5.6188,-5.5447,-5.4775,-5.4512,-5.4512,-5.4512,-5.4512,-5.4512,-5.4512,-5.4512,-5.4512,-5.5061,-5.5343,-5.5343,-5.5887,-5.6421,-5.6894,-5.7047,-5.7351,-5.7821,-5.7978,-5.7978,-5.7978,-5.7978,-5.7978,-5.7978,-5.7978,-5.7978,-5.7978,-5.7978,-5.7978,-5.8024,-5.8326,-5.8369,-5.8097,-5.8024,-5.8024,-5.7978,-5.7997,-5.7997,-5.8042,-5.7997,-5.7978,-5.7978,-5.7978,-5.7978,-5.7978,-5.7997,-5.7978,-5.7978,-5.8052,-5.8327,-5.8896,-5.93,-5.9887,-6.0926,-6.1482,-6.1993,-6.2548,-6.2605,-6.2631,-6.3204,-6.3527,-6.3602,-6.3602,-6.3602,-6.3602,-6.3602,-6.3602,-6.3602,-6.3602,-6.3602,-6.3602,-6.3602,-6.3602,-6.3602,-6.3602,-6.3602,-6.3602,-6.3602,-6.3602,-6.3602,-5.8338,-5.9108,-5.8772,-5.8737,-5.8955,-5.8888,-5.8888,-5.882,-5.8496,-5.8479,-5.877,-5.8496,-5.7516,-5.6109,-5.6047,-5.6204,-5.6426,-5.6331,-5.6442,-5.6614,-5.6963,-5.7189,-5.7355,-5.7814,-5.8229,-5.853,-5.8229,-5.837,-5.8926,-5.8685,-5.8342,-5.7824,-5.7167,-5.6408,-5.5632,-5.4874,-5.4512,-5.4512,-5.4512,-5.4512,-5.4557,-5.4834,-5.5,-5.5122,-5.5618,-5.5943,-5.5999,-5.6474,-5.6861,-5.7098,-5.7449,-5.7708,-5.7997,-5.7978,-5.7978,-5.7978,-5.7978,-5.7978,-5.7978,-5.7978,-5.7978,-5.7978,-5.7978,-5.8042,-5.8133,-5.8437,-5.8609,-5.8563,-5.8412,-5.8301,-5.8179,-5.8042,-5.8042,-5.8197,-5.8088,-5.8042,-5.8215,-5.8088,-5.8042,-5.8106,-5.8061,-5.7978,-5.807,-5.8419,-5.8822,-5.9318,-5.9971,-6.0974,-6.1684,-6.2288,-6.2872,-6.3159,-6.315,-6.3159,-6.3546,-6.3602,-6.3602,-6.3602,-6.3602,-6.3602,-6.3602,-6.3602,-6.3602,-6.3602,-6.3602,-6.3602,-6.3602,-6.3602,-6.3602,-6.3602,-6.3602,-6.3602,-6.3602,-6.3602,-6.3602,-5.9791,-6.0572,-6.0344,-6.0511,-6.0897,-6.0915,-6.0915,-6.0838,-6.0468,-6.0511,-6.0838,-6.045,-5.9276,-5.7666,-5.7504,-5.7611,-5.7751,-5.7751,-5.7751,-5.7823,-5.8425,-5.8651,-5.872,-5.9247,-5.9809,-6.0111,-5.9726,-5.9791,-6.0174,-5.9791,-5.9251,-5.8694,-5.798,-5.7213,-5.6446,-5.5697,-5.5209,-5.5018,-5.5018,-5.5018,-5.5061,-5.5543,-5.5716,-5.5502,-5.6166,-5.6546,-5.6546,-5.7047,-5.7333,-5.7382,-5.7755,-5.7978,-5.7978,-5.7978,-5.7978,-5.7978,-5.7978,-5.7978,-5.7978,-5.7978,-5.7978,-5.7997,-5.8042,-5.8133,-5.8363,-5.871,-5.895,-5.8989,-5.8989,-5.8872,-5.8563,-5.8388,-5.8363,-5.8511,-5.8294,-5.8197,-5.8349,-5.8197,-5.8152,-5.8242,-5.8197,-5.8198,-5.8437,-5.8934,-5.9393,-6.012,-6.1069,-6.1982,-6.2214,-6.2872,-6.3363,-6.3382,-6.3492,-6.3602,-6.3602,-6.3602,-6.3602,-6.3602,-6.3602,-6.3602,-6.3602,-6.3602,-6.3602,-6.3602,-6.3602,-6.3602,-6.3602,-6.3602,-6.3602,-6.3602,-6.3602,-6.3602,-6.3602,-6.3602,-6.3628,-6.0019,-6.0129,-6.0615,-6.0974,-6.0974,-6.0956,-6.0956,-6.1015,-6.0897,-6.0897,-6.1015,-6.0915,-6.082,-6.0605,-6.0509,-6.0683,-6.0605,-6.0484,-6.0423,-6.0484,-6.0562,-6.07,-6.0778,-6.0838,-6.0838,-6.0897,-6.0718,-6.0718,-6.0838,-6.0778,-6.0838,-6.0671,-5.9829,-5.9158,-5.8316,-5.7552,-5.6952,-5.6182,-5.6111,-5.6166,-5.6221,-5.6686,-5.6474,-5.5716,-5.6456,-5.7065,-5.7134,-5.7613,-5.7932,-5.795,-5.7997,-5.7978,-5.7978,-5.7978,-5.7978,-5.7978,-5.7978,-5.7978,-5.7978,-5.7978,-5.7997,-5.8042,-5.8179,-5.8338,-5.8605,-5.9103,-5.9376,-5.9305,-5.9682,-5.9728,-5.9408,-5.9008,-5.8852,-5.887,-5.8619,-5.8462,-5.8437,-5.8462,-5.8393,-5.8411,-5.8423,-5.8773,-5.9401,-5.9538,-6.0324,-6.1311,-6.192,-6.2253,-6.2881,-6.3252,-6.3428,-6.3428,-6.3492,-6.3602,-6.3602,-6.3602,-6.3602,-6.3602,-6.3602,-6.3602,-6.3602,-6.3602,-6.3602,-6.3602,-6.3602,-6.3602,-6.3602,-6.3602,-6.3602,-6.3602,-6.3602,-6.3602,-6.3602,-6.3602,-6.3717,-6.0814,-6.1243,-6.186,-6.2094,-6.2094,-6.2094,-6.2094,-6.2076,-6.1806,-6.1915,-6.2111,-6.1951,-6.1986,-6.2391,-6.2357,-6.186,-6.1055,-6.0938,-6.0956,-6.1015,-6.0997,-6.1015,-6.0997,-6.1055,-6.1361,-6.1641,-6.1171,-6.0938,-6.0997,-6.0938,-6.0938,-6.0872,-6.0206,-5.942,-5.8613,-5.7846,-5.7134,-5.642,-5.633,-5.633,-5.6384,-5.6809,-5.6912,-5.6563,-5.7284,-5.766,-5.766,-5.7886,-5.7978,-5.7978,-5.7978,-5.7978,-5.7978,-5.7978,-5.7978,-5.7978,-5.7978,-5.7978,-5.7978,-5.8088,-5.8133,-5.8133,-5.8455,-5.8728,-5.8988,-5.948,-5.9874,-5.9985,-6.0255,-6.043,-6.0208,-5.9644,-5.9286,-5.9413,-5.9214,-5.9008,-5.8889,-5.8788,-5.8642,-5.8603,-5.8843,-5.9483,-6.0266,-6.0794,-6.1348,-6.193,-6.2703,-6.3201,-6.3344,-6.3636,-6.3792,-6.3583,-6.3557,-6.3602,-6.3602,-6.3602,-6.3602,-6.3602,-6.3602,-6.3602,-6.3602,-6.3602,-6.3602,-6.3602,-6.3602,-6.3602,-6.3602,-6.3602,-6.3602,-6.3602,-6.3602,-6.3602,-6.3602,-6.3761,-6.3939,-6.1715,-6.2324,-6.2686,-6.2873,-6.2873,-6.2805,-6.2805,-6.2787,-6.2515,-6.2668,-6.2953,-6.27,-6.28,-6.3147,-6.3213,-6.275,-6.186,-6.1697,-6.1697,-6.1751,-6.1751,-6.1751,-6.1751,-6.1751,-6.2058,-6.2461,-6.1986,-6.1697,-6.1751,-6.1641,-6.1641,-6.1642,-6.1099,-6.0413,-5.9601,-5.8879,-5.8103,-5.7384,-5.7023,-5.6879,-5.6912,-5.7184,-5.7382,-5.7449,-5.7774,-5.7978,-5.7978,-5.7978,-5.7978,-5.7978,-5.7978,-5.7978,-5.7978,-5.7986,-5.7968,-5.7987,-5.7968,-5.8076,-5.8213,-5.8319,-5.8431,-5.8582,-5.8891,-5.9196,-5.9413,-5.9861,-6.0199,-6.0449,-6.0641,-6.08,-6.069,-6.0236,-5.9893,-5.9931,-5.9701,-5.948,-5.9413,-5.9289,-5.9214,-5.9331,-5.9878,-6.0549,-6.1189,-6.1781,-6.2207,-6.2466,-6.3413,-6.3864,-6.3792,-6.392,-6.4109,-6.3811,-6.3691,-6.3602,-6.3602,-6.3602,-6.3602,-6.3602,-6.3602,-6.3602,-6.3602,-6.3602,-6.3602,-6.3602,-6.3602,-6.3602,-6.3602,-6.3602,-6.3602,-6.3602,-6.3602,-6.3647,-6.3786,-6.4023,-6.427,-6.2682,-6.3147,-6.3069,-6.3021,-6.2984,-6.2855,-6.2904,-6.3002,-6.2984,-6.3051,-6.3213,-6.3147,-6.3194,-6.3213,-6.326,-6.3242,-6.3176,-6.3014,-6.2984,-6.3032,-6.3051,-6.3051,-6.3032,-6.2965,-6.2984,-6.3099,-6.3165,-6.3099,-6.3032,-6.2867,-6.2818,-6.2935,-6.2763,-6.215,-6.1539,-6.0713,-6.0026,-5.9058,-5.8297,-5.7959,-5.7978,-5.7978,-5.796,-5.7978,-5.807,-5.8097,-5.807,-5.8024,-5.8024,-5.807,-5.8024,-5.7997,-5.8086,-5.8018,-5.8005,-5.8102,-5.8036,-5.8229,-5.8572,-5.8691,-5.8893,-5.9159,-5.948,-5.9701,-5.9893,-6.0189,-6.0422,-6.0616,-6.0734,-6.08,-6.08,-6.069,-6.0572,-6.0321,-6.0023,-5.9887,-5.9899,-5.9866,-6.0036,-6.0548,-6.1223,-6.1834,-6.2228,-6.2461,-6.2758,-6.3331,-6.3888,-6.4172,-6.4109,-6.419,-6.423,-6.4087,-6.383,-6.3602,-6.3602,-6.3602,-6.3602,-6.3602,-6.3602,-6.3602,-6.3602,-6.3602,-6.3602,-6.3602,-6.3602,-6.3602,-6.3602,-6.3602,-6.3602,-6.3602,-6.3647,-6.3717,-6.3981,-6.423,-6.4612,-6.3543,-6.358,-6.327,-6.3165,-6.3165,-6.3117,-6.3117,-6.3165,-6.326,-6.3289,-6.3354,-6.3447,-6.3484,-6.3465,-6.3465,-6.3511,-6.3557,-6.3511,-6.3419,-6.3354,-6.3354,-6.3354,-6.3354,-6.3336,-6.3307,-6.3213,-6.3307,-6.3354,-6.3307,-6.3213,-6.3165,-6.3242,-6.3147,-6.2675,-6.1937,-6.1558,-6.0746,-5.9476,-5.9016,-5.8584,-5.8116,-5.8301,-5.8412,-5.8455,-5.8688,-5.8831,-5.8772,-5.8301,-5.8301,-5.875,-5.8563,-5.8521,-5.8679,-5.8312,-5.8293,-5.8758,-5.8933,-5.8972,-5.9084,-5.9232,-5.9376,-5.9549,-5.988,-6.0082,-6.0218,-6.0475,-6.0685,-6.0757,-6.0781,-6.08,-6.08,-6.08,-6.0791,-6.0641,-6.0546,-6.0636,-6.098,-6.1292,-6.1837,-6.24,-6.2561,-6.2855,-6.3368,-6.3419,-6.3312,-6.3598,-6.415,-6.4483,-6.4291,-6.4445,-6.4407,-6.423,-6.3897,-6.3717,-6.3786,-6.3786,-6.3717,-6.3673,-6.3647,-6.3602,-6.3602,-6.3602,-6.3602,-6.3602,-6.3602,-6.3602,-6.3602,-6.3602,-6.3602,-6.3602,-6.3602,-6.383,-6.4128,-6.4426,-6.4772,-6.4195,-6.4096,-6.3827,-6.3674,-6.3674,-6.3649,-6.358,-6.3527,-6.3572,-6.3546,-6.3492,-6.3557,-6.3602,-6.3602,-6.3602,-6.3602,-6.3602,-6.3602,-6.3557,-6.3511,-6.3447,-6.3447,-6.3447,-6.3447,-6.3465,-6.3354,-6.3465,-6.3447,-6.3447,-6.3354,-6.3289,-6.3354,-6.3307,-6.302,-6.2419,-6.2058,-6.1357,-6.0444,-6.0129,-5.962,-5.9042,-5.9157,-5.9171,-5.9006,-5.9084,-5.927,-5.9378,-5.8812,-5.8669,-5.9065,-5.893,-5.8969,-5.9158,-5.8742,-5.8719,-5.9192,-5.9613,-5.9753,-5.9601,-5.9682,-5.9861,-6.0034,-6.0302,-6.0475,-6.052,-6.071,-6.0781,-6.08,-6.08,-6.0935,-6.1204,-6.1281,-6.1396,-6.1723,-6.1473,-6.1574,-6.2084,-6.2768,-6.318,-6.3568,-6.3729,-6.3954,-6.4099,-6.4023,-6.3867,-6.3995,-6.4368,-6.4788,-6.463,-6.4807,-6.4701,-6.4557,-6.4331,-6.4193,-6.405,-6.3944,-6.3854,-6.3786,-6.3717,-6.3647,-6.3602,-6.3602,-6.3602,-6.3602,-6.3602,-6.3602,-6.3602,-6.3602,-6.3602,-6.3602,-6.3665,-6.392,-6.4212,-6.4483,-6.4856,-6.4734,-6.4734,-6.4554,-6.4462,-6.4444,-6.4389,-6.4215,-6.4072,-6.4031,-6.3944,-6.3742,-6.3786,-6.3742,-6.3717,-6.3742,-6.3673,-6.3647,-6.3602,-6.362,-6.3602,-6.3557,-6.3557,-6.3557,-6.3557,-6.3557,-6.3557,-6.3557,-6.3602,-6.3575,-6.3465,-6.34,-6.3419,-6.34,-6.3336,-6.3085,-6.2577,-6.2188,-6.1863,-6.1558,-6.0961,-6.0236,-6.0511,-6.0393,-5.9764,-5.975,-5.9892,-6.0183,-5.9782,-5.9383,-5.9307,-5.9306,-5.9395,-5.9389,-5.9303,-5.9387,-5.9597,-6.0216,-6.0281,-6.0121,-6.0103,-6.0283,-6.0572,-6.0666,-6.08,-6.0757,-6.093,-6.1031,-6.1031,-6.1108,-6.1396,-6.1993,-6.2147,-6.2493,-6.3108,-6.2743,-6.2719,-6.332,-6.4097,-6.4446,-6.4345,-6.4753,-6.5079,-6.4539,-6.4328,-6.4287,-6.4366,-6.4576,-6.4875,-6.5093,-6.5175,-6.5268,-6.5041,-6.4718,-6.4538,-6.435,-6.4292,-6.4193,-6.4172,-6.4027,-6.3854,-6.3673,-6.3602,-6.3602,-6.3602,-6.3602,-6.3602,-6.3602,-6.3602,-6.3676,-6.375,-6.3898,-6.4046,-6.4349,-6.4724,-6.5009,-6.5199,-6.5105,-6.4818,-6.4715,-6.4645,-6.4609,-6.4573,-6.4519,-6.4519,-6.4464,-6.4389,-6.4426,-6.435,-6.437,-6.4131,-6.4046,-6.3963,-6.3742,-6.3602,-6.3602,-6.3602,-6.3602,-6.3602,-6.3602,-6.3602,-6.3602,-6.3602,-6.3602,-6.362,-6.3602,-6.3557,-6.3557,-6.3583,-6.3538,-6.3455,-6.3233,-6.294,-6.2617,-6.2421,-6.2047,-6.16,-6.1773,-6.1866,-6.1774,-6.1811,-6.1972,-6.2089,-6.1448,-6.057,-5.9809,-6.0011,-6.0198,-6.0246,-6.0293,-6.0332,-6.0446,-6.0606,-6.0731,-6.0616,-6.0629,-6.0704,-6.0734,-6.0973,-6.08,-6.0819,-6.1416,-6.1685,-6.1858,-6.2243,-6.2685,-6.2935,-6.3012,-6.3416,-6.407,-6.3993,-6.3974,-6.432,-6.5013,-6.5526,-6.5429,-6.5351,-6.5168,-6.4995,-6.4718,-6.4575,-6.459,-6.4818,-6.5137,-6.5329,-6.5378,-6.5407,-6.5219,-6.4957,-6.4769,-6.4664,-6.4592,-6.4575,-6.4575,-6.4445,-6.4193,-6.3878,-6.3602,-6.3602,-6.3602,-6.3602,-6.3602,-6.362,-6.362,-6.3732,-6.3985,-6.4112,-6.4289,-6.4785,-6.517,-6.5352,-6.5632,-6.5586,-6.5389,-6.5282,-6.5253,-6.5242,-6.5149,-6.5022,-6.4957,-6.4837,-6.4734,-6.4699,-6.4699,-6.4664,-6.452,-6.4407,-6.4369,-6.4153,-6.4072,-6.4091,-6.4091,-6.3902,-6.3698,-6.3602,-6.3602,-6.3602,-6.3602,-6.3602,-6.3647,-6.3761,-6.3811,-6.3897,-6.3986,-6.405,-6.4072,-6.3971,-6.3847,-6.3691,-6.3634,-6.3457,-6.2886,-6.3123,-6.3045,-6.2949,-6.2976,-6.3042,-6.2946,-6.2544,-6.1811,-6.0972,-6.0655,-6.0731,-6.1147,-6.1326,-6.1461,-6.1697,-6.2016,-6.2137,-6.1848,-6.1815,-6.1858,-6.1858,-6.1858,-6.1839,-6.1954,-6.2358,-6.2589,-6.2685,-6.307,-6.3435,-6.3858,-6.4147,-6.4589,-6.5032,-6.5147,-6.5147,-6.5147,-6.557,-6.584,-6.5853,-6.5709,-6.5513,-6.5425,-6.5131,-6.5028,-6.5066,-6.5163,-6.5367,-6.5532,-6.5513,-6.5513,-6.5407,-6.5359,-6.5249,-6.5156,-6.5073,-6.4976,-6.4976,-6.4718,-6.4501,-6.4212,-6.383,-6.3673,-6.3628,-6.3647,-6.3647,-6.3717,-6.3848,-6.4037,-6.4222,-6.4347,-6.4615,-6.5075,-6.5394,-6.559,-6.6005,-6.6013,-6.6013,-6.6013,-6.5967,-6.5982,-6.575,-6.5503,-6.5398,-6.5199,-6.4971,-6.4871,-6.4938,-6.4803,-6.4856,-6.4769,-6.4769,-6.4628,-6.4628,-6.4592,-6.4556,-6.4312,-6.3878,-6.3742,-6.3673,-6.3602,-6.3602,-6.3647,-6.3761,-6.4065,-6.419,-6.4291,-6.4538,-6.4664,-6.4556,-6.4628,-6.4699,-6.4727,-6.4856,-6.4749,-6.4316,-6.4383,-6.4262,-6.3873,-6.3725,-6.3679,-6.3583,-6.3315,-6.2885,-6.2221,-6.1339,-6.1461,-6.2087,-6.2323,-6.2592,-6.3045,-6.3397,-6.3512,-6.332,-6.3051,-6.3185,-6.3089,-6.3128,-6.3301,-6.3147,-6.3262,-6.3455,-6.3455,-6.3512,-6.4089,-6.4647,-6.5397,-6.5628,-6.5724,-6.5801,-6.5859,-6.5878,-6.5878,-6.5878,-6.5878,-6.5897,-6.5882,-6.582,-6.5646,-6.5493,-6.5474,-6.5551,-6.5599,-6.5709,-6.5736,-6.5736,-6.5736,-6.5762,-6.5808,-6.5709,-6.558,-6.5456,-6.5329,-6.5022,-6.4753,-6.4557,-6.4212,-6.3878,-6.3742,-6.391,-6.4019,-6.4046,-6.4209,-6.4387,-6.4596,-6.4764,-6.5008,-6.5271,-6.5471,-6.5635,-6.6036,-6.6013,-6.6039,-6.6058,-6.6013,-6.6009,-6.5967,-6.5856,-6.5856,-6.5756,-6.5724,-6.5697,-6.5624,-6.5608,-6.5299,-6.5188,-6.5105,-6.4923,-6.4699,-6.4699,-6.4699,-6.4664,-6.4389,-6.4212,-6.3897,-6.3761,-6.3602,-6.3786,-6.4065,-6.423,-6.435,-6.4592,-6.4718,-6.4734,-6.4734,-6.4803,-6.489,-6.5124,-6.5268,-6.5408,-6.5433,-6.5409,-6.5385,-6.516,-6.5128,-6.5205,-6.5135,-6.4584,-6.4142,-6.3822,-6.3226,-6.2798,-6.2982,-6.3065,-6.3238,-6.3449,-6.3531,-6.3531,-6.3378,-6.3455,-6.3339,-6.3474,-6.3531,-6.3301,-6.3358,-6.4012,-6.4282,-6.4455,-6.4936,-6.5243,-6.5493,-6.5743,-6.5878,-6.5878,-6.5878,-6.5878,-6.5878,-6.5878,-6.5878,-6.5878,-6.5878,-6.5891,-6.5897,-6.5851,-6.5793,-6.5897,-6.5878,-6.5846,-6.5853,-6.5878,-6.5878,-6.5878,-6.5878,-6.5878,-6.5853,-6.5755,-6.5682,-6.5608,-6.5329,-6.5168,-6.4942,-6.4737,-6.4445,-6.4328,-6.4322,-6.4385,-6.4407,-6.4535,-6.4727,-6.4951,-6.5204,-6.5371,-6.5523,-6.5635,-6.569,-6.6102,-6.6102,-6.6142,-6.6123,-6.608,-6.6058,-6.6058,-6.6036,-6.6013,-6.6009,-6.6005,-6.6005,-6.5958,-6.5947,-6.5717,-6.5616,-6.5561,-6.5378,-6.5249,-6.528,-6.5249,-6.5168,-6.4957,-6.4807,-6.4539,-6.4153,-6.4113,-6.4272,-6.4426,-6.4593,-6.4841,-6.499,-6.5156,-6.5299,-6.5249,-6.5249,-6.5378,-6.5532,-6.5589,-6.5709,-6.5872,-6.5872,-6.5846,-6.5897,-6.5872,-6.5891,-6.5782,-6.5449,-6.5218,-6.5064,-6.4718,-6.4251,-6.3949,-6.3935,-6.4089,-6.4455,-6.4512,-6.4512,-6.4532,-6.4512,-6.457,-6.4474,-6.4493,-6.4532,-6.457,-6.4993,-6.5166,-6.5301,-6.557,-6.5878,-6.5878,-6.5878,-6.5878,-6.5878,-6.5878,-6.5878,-6.5878,-6.5878,-6.5878,-6.5878,-6.5878,-6.5878,-6.5878,-6.5878,-6.5897,-6.5884,-6.5884,-6.5853,-6.5853,-6.5878,-6.5878,-6.5878,-6.5878,-6.5878,-6.5878,-6.5853,-6.5853,-6.5781,-6.5682,-6.5608,-6.5504,-6.5299,-6.5073,-6.4898,-6.467,-6.4741,-6.4788,-6.494,-6.5097,-6.5407,-6.5609,-6.5728,-6.5781,-6.5781,-6.5808,-6.6163,-6.6205,-6.6205,-6.6205,-6.6205,-6.6142,-6.6123,-6.6102,-6.6058,-6.6036,-6.6013,-6.6013,-6.6009,-6.6001,-6.5996,-6.5928,-6.5878,-6.5853,-6.5736,-6.5762,-6.5736,-6.5616,-6.5407,-6.5299,-6.5188,-6.4871,-6.4664,-6.4682,-6.4856,-6.5105,-6.5238,-6.5407,-6.5682,-6.5736,-6.5853,-6.5878,-6.5808,-6.5808,-6.5827,-6.5853,-6.5897,-6.5897,-6.5897,-6.5897,-6.5897,-6.5897,-6.5878,-6.5801,-6.582,-6.5878,-6.5878,-6.5493,-6.5032,-6.4839,-6.507,-6.5801,-6.5667,-6.559,-6.5551,-6.5686,-6.5724,-6.5878,-6.582,-6.582,-6.5801,-6.5724,-6.5743,-6.5801,-6.5878,-6.5878,-6.5878,-6.5878,-6.5878,-6.5878,-6.5878,-6.5878,-6.5878,-6.5878,-6.5878,-6.5878,-6.5878,-6.5878,-6.5878,-6.5878,-6.5878,-6.5878,-6.5878,-6.5878,-6.5878,-6.5878,-6.5878,-6.5878,-6.5878,-6.5878,-6.5878,-6.5878,-6.5878,-6.5878,-6.5872,-6.5853,-6.5827,-6.5663,-6.5407,-6.5073,-6.4962,-6.506,-6.5207,-6.5291,-6.5503,-6.5808,-6.5878,-6.5853,-6.5853,-6.5878,-6.5878,-6.6205,-6.6205,-6.6205,-6.6185,-6.6185,-6.6185,-6.6126,-6.6184,-6.6125,-6.6142,-6.608,-6.608,-6.6058,-6.6029,-6.602,-6.5972,-6.5923,-6.5897,-6.5878,-6.5878,-6.5878,-6.5808,-6.5762,-6.5709,-6.569,-6.5513,-6.5156,-6.4957,-6.5156,-6.5268,-6.5485,-6.5755,-6.5853,-6.5878,-6.5878,-6.5878,-6.5878,-6.5878,-6.5878,-6.5878,-6.5878,-6.5878,-6.5878,-6.5878,-6.5878,-6.5878,-6.5878,-6.5878,-6.5878,-6.5878,-6.5878,-6.5801,-6.5628,-6.559,-6.5705,-6.584,-6.5878,-6.5878,-6.5878,-6.5878,-6.5878,-6.5878,-6.5878,-6.5878,-6.5878,-6.5878,-6.5878,-6.5878,-6.5878,-6.5878,-6.5878,-6.5878,-6.5878,-6.5878,-6.5878,-6.5878,-6.5878,-6.5878,-6.5878,-6.5878,-6.5878,-6.5878,-6.5878,-6.5878,-6.5878,-6.5878,-6.5878,-6.5878,-6.5878,-6.5878,-6.5878,-6.5878,-6.5878,-6.5878,-6.5878,-6.5878,-6.5878,-6.5878,-6.5878,-6.5897,-6.5878,-6.5878,-6.5663,-6.5378,-6.5329,-6.5485,-6.5589,-6.5635,-6.5709,-6.5878,-6.5878,-6.5878,-6.5878,-6.5878,-6.5878,-6.6205,-6.6166,-6.576,-6.5566,-6.5586,-6.5586,-6.5586,-6.5663,-6.6011,-6.6184,-6.6163,-6.6163,-6.6123,-6.6077,-6.6074,-6.6025,-6.5972,-6.5923,-6.5897,-6.5878,-6.5878,-6.5878,-6.5878,-6.5878,-6.5878,-6.5781,-6.5513,-6.5359,-6.5608,-6.5608,-6.5709,-6.5808,-6.5878,-6.5878,-6.5878,-6.5878,-6.5878,-6.5878,-6.5878,-6.5878,-6.5878,-6.5878,-6.5878,-6.5878,-6.5878,-6.5878,-6.5878,-6.5878,-6.5878,-6.5878,-6.5878,-6.5878,-6.5878,-6.5878,-6.5878,-6.5878,-6.5878,-6.5878,-6.5878,-6.5878,-6.5878,-6.5878,-6.5878,-6.5878,-6.5878,-6.5878,-6.5878,-6.5878,-6.5878,-6.5878,-6.5878,-6.5878,-6.5878,-6.5878,-6.5878,-6.5878,-6.5878,-6.5878,-6.5878,-6.5878,-6.5878,-6.5878,-6.5878,-6.5878,-6.5878,-6.5878,-6.5878,-6.5878,-6.5878,-6.5878,-6.5878,-6.5878,-6.5878,-6.5878,-6.5878,-6.5878,-6.5878,-6.5878,-6.5878,-6.5878,-6.5878,-6.5878,-6.5853,-6.5682,-6.5755,-6.5762,-6.5781,-6.5781,-6.5853,-6.5878,-6.5878,-6.5878,-6.5878,-6.5878,-6.5878,-6.6108,-6.5915,-6.5276,-6.4889,-6.4773,-6.4928,-6.5025,-6.516,-6.5876,-6.6205,-6.6205,-6.6205,-6.6184,-6.6123,-6.6099,-6.6052,-6.5977,-6.5923,-6.5897,-6.5878,-6.5878,-6.5878,-6.5878,-6.5878,-6.5878,-6.5878,-6.5853,-6.5878,-6.5853,-6.5853,-6.5878,-6.5878,-6.5878,-6.5878,-6.5878,-6.5878,-6.5878,-6.5878,-6.5878,-6.5878,-6.5878,-6.5878,-6.5878,-6.5878,-6.5878,-6.5878,-6.5878,-6.5878,-6.5878,-6.5878,-6.5878,-6.5878,-6.5878,-6.5878,-6.5878,-6.5878,-6.5878,-6.5878,-6.5878,-6.5878,-6.5878,-6.5878,-6.5878,-6.5878,-6.5878,-6.5878,-6.5878,-6.5878,-6.5878,-6.5878,-6.5878,-6.5878,-6.5878,-6.5878,-6.5878,-6.5878,-6.5878,-6.5878,-6.5878,-6.5878,-6.5878,-6.5878,-6.5878,-6.5878,-6.5878,-6.5878,-6.5878,-6.5878,-6.5878,-6.5878,-6.5878,-6.5878,-6.5878,-6.5878,-6.5878,-6.5878,-6.5878,-6.5878,-6.5878,-6.5878,-6.5878,-6.5878,-6.5853,-6.5827,-6.5853,-6.5853,-6.5878,-6.5878,-6.5878,-6.5878,-6.5878,-6.5878,-6.5878,-6.5878,-6.5878,-6.5779,-6.5141,-6.5025,-6.4541,-6.4019,-6.4638,-6.4967,-6.5064,-6.5818,-6.6185,-6.6205,-6.6185,-6.6205,-6.6165,-6.6061,-6.6009,-6.6001,-6.5947,-6.5897,-6.5897,-6.5878,-6.5878,-6.5878,-6.5878,-6.5878,-6.5878,-6.5878,-6.5878,-6.5878,-6.5878,-6.5878,-6.5878,-6.5878,-6.5878,-6.5878,-6.5878,-6.5878,-6.5878,-6.5878,-6.5878,-6.5878,-6.5878,-6.5878,-6.5878,-6.5878,-6.5878,-6.5878,-6.5878,-6.5878,-6.5878,-6.5878,-6.5878,-6.5878,-6.5878,-6.5878,-6.5878,-6.5878,-6.5878,-6.5878,-6.5878,-6.5878,-6.5878,-6.5878,-6.5878,-6.5878,-6.5878,-6.5878,-6.5878,-6.5878,-6.5878,-6.5878,-6.5878,-6.5878,-6.5878,-6.5878,-6.5878,-6.5878,-6.5878,-6.5878,-6.5878,-6.5878,-6.5878,-6.5878,-6.5878,-6.5878,-6.5878,-6.5878,-6.5878,-6.5878,-6.5878,-6.5878,-6.5878,-6.5878,-6.5878,-6.5878,-6.5878,-6.5878,-6.5878,-6.5878,-6.5878,-6.5878,-6.5878,-6.5878,-6.5878,-6.5878,-6.5878,-6.5878,-6.5878,-6.5878,-6.5878,-6.5878,-6.5878,-6.5878,-6.5878,-6.5878,-6.5315,-6.4909,-6.3922,-6.3304,-6.3091,-6.3884,-6.4251,-6.4522,-6.5624,-6.6205,-6.6205,-6.6185,-6.6225,-6.6263,-6.6126,-6.6082,-6.6084,-6.6009,-6.5947,-6.5923,-6.5878,-6.5878,-6.5878,-6.5878,-6.5878,-6.5878,-6.5878,-6.5878,-6.5878,-6.5878,-6.5878,-6.5878,-6.5878,-6.5878,-6.5878,-6.5878,-6.5878,-6.5878,-6.5878,-6.5878,-6.5878,-6.5878,-6.5878,-6.5878,-6.5878,-6.5878,-6.5878,-6.5878,-6.5878,-6.5878,-6.5878,-6.5878,-6.5878,-6.5878,-6.5878,-6.5878,-6.5878,-6.5878,-6.5878,-6.5878,-6.5878,-6.5878,-6.5878,-6.5878,-6.5878,-6.5878,-6.5878,-6.5878,-6.5878,-6.5878,-6.5878,-6.5878,-6.5878,-6.5878,-6.5878,-6.5878,-6.5878,-6.5878,-6.5878,-6.5878,-6.5878,-6.5878,-6.5878,-6.5878,-6.5878,-6.5878,-6.5878,-6.5878,-6.5878,-6.5878,-6.5878,-6.5878,-6.5878,-6.5878,-6.5878,-6.5878,-6.5878,-6.5878,-6.5878,-6.5878,-6.5878,-6.5878,-6.5878,-6.5878,-6.5878,-6.5878,-6.5878,-6.5878,-6.5878,-6.5878,-6.5878,-6.5878,-6.5878,-6.5878,-6.5878,-6.4632,-6.4285,-6.2955,-6.2278,-6.2201,-6.3226,-6.371,-6.3922,-6.5489,-6.6205,-6.6205,-6.6185,-6.6282,-6.6331,-6.6206,-6.6147,-6.6221,-6.6104,-6.6005,-6.5953,-6.5953,-6.5953,-6.5903,-6.5878,-6.5878,-6.5878,-6.5878,-6.5878,-6.5878,-6.5878,-6.5878,-6.5878,-6.5878,-6.5878,-6.5878,-6.5878,-6.5878,-6.5878,-6.5878,-6.5878,-6.5878,-6.5878,-6.5878,-6.5878,-6.5878,-6.5878,-6.5878,-6.5878,-6.5878,-6.5878,-6.5878,-6.5878,-6.5878,-6.5878,-6.5878,-6.5878,-6.5878,-6.5878,-6.5878,-6.5878,-6.5878,-6.5878,-6.5878,-6.5878,-6.5878,-6.5878,-6.5878,-6.5878,-6.5878,-6.5878,-6.5878,-6.5878,-6.5878,-6.5878,-6.5878,-6.5878,-6.5878,-6.5878,-6.5878,-6.5878,-6.5878,-6.5878,-6.5878,-6.5878,-6.5878,-6.5878,-6.5878,-6.5878,-6.5878,-6.5878,-6.5878,-6.5878,-6.5878,-6.5878,-6.5878,-6.5878,-6.5878,-6.5878,-6.5878,-6.5878,-6.5878,-6.5878,-6.5878,-6.5878,-6.5878,-6.5878,-6.5878,-6.5878,-6.5878,-6.5878,-6.5878,-6.5878,-6.5878,-6.5878,-6.5878,-6.3584,-6.2841,-6.2519,-6.193,-6.1369,-6.2994,-6.369,-6.3864,-6.547,-6.6206,-6.6225,-6.6225,-6.6297,-6.6329,-6.626,-6.6205,-6.629,-6.6224,-6.6105,-6.6039,-6.6039,-6.6013,-6.5958,-6.5897,-6.5878,-6.5878,-6.5878,-6.5878,-6.5878,-6.5878,-6.5878,-6.5878,-6.5878,-6.5878,-6.5878,-6.5878,-6.5878,-6.5878,-6.5878,-6.5878,-6.5878,-6.5878,-6.5878,-6.5878,-6.5878,-6.5878,-6.5878,-6.5878,-6.5878,-6.5878,-6.5878,-6.5878,-6.5878,-6.5878,-6.5878,-6.5878,-6.5878,-6.5878,-6.5878,-6.5878,-6.5878,-6.5878,-6.5878,-6.5878,-6.5878,-6.5878,-6.5878,-6.5878,-6.5878,-6.5878,-6.5878,-6.5878,-6.5878,-6.5878,-6.5878,-6.5878,-6.5878,-6.5878,-6.5878,-6.5878,-6.5878,-6.5878,-6.5878,-6.5878,-6.5878,-6.5878,-6.5878,-6.5878,-6.5878,-6.5878,-6.5878,-6.5878,-6.5878,-6.5878,-6.5878,-6.5878,-6.5878,-6.5878,-6.5878,-6.5878,-6.5878,-6.5878,-6.5878,-6.5878,-6.5878,-6.5878,-6.5878,-6.5878,-6.5878,-6.5878,-6.5878,-6.5878,-6.5878,-6.5878,-6.5878,-6.2689,-6.1909,-6.1822,-6.159,-6.1421,-6.3049,-6.3773,-6.4064,-6.5558,-6.6361,-6.6436,-6.645,-6.6497,-6.6516,-6.6477,-6.6432,-6.6466,-6.6419,-6.6254,-6.6129,-6.6109,-6.6044,-6.5986,-6.5923,-6.5947,-6.5903,-6.5878,-6.5878,-6.5878,-6.5878,-6.5878,-6.5878,-6.5878,-6.5878,-6.5878,-6.5878,-6.5878,-6.5878,-6.5878,-6.5878,-6.5878,-6.5878,-6.5878,-6.5878,-6.5878,-6.5878,-6.5878,-6.5878,-6.5878,-6.5878,-6.5878,-6.5878,-6.5878,-6.5878,-6.5878,-6.5878,-6.5878,-6.5878,-6.5878,-6.5878,-6.5878,-6.5878,-6.5878,-6.5878,-6.5878,-6.5878,-6.5878,-6.5878,-6.5878,-6.5878,-6.5878,-6.5878,-6.5878,-6.5878,-6.5878,-6.5878,-6.5878,-6.5878,-6.5878,-6.5878,-6.5878,-6.5878,-6.5878,-6.5878,-6.5878,-6.5878,-6.5878,-6.5878,-6.5878,-6.5878,-6.5878,-6.5878,-6.5878,-6.5878,-6.5878,-6.5878,-6.5878,-6.5878,-6.5878,-6.5878,-6.5878,-6.5878,-6.5878,-6.5878,-6.5878,-6.5878,-6.5878,-6.5878,-6.5878,-6.5878,-6.5878,-6.5878,-6.5878,-6.5878,-6.5878,-6.2265,-6.153,-6.1472,-6.1463,-6.1617,-6.3145,-6.3845,-6.4176,-6.5706,-6.6504,-6.6595,-6.6595,-6.6631,-6.6668,-6.6622,-6.6614,-6.6608,-6.6566,-6.64,-6.6303,-6.6221,-6.6108,-6.6009,-6.5947,-6.5923,-6.5878,-6.5878,-6.5878,-6.5878,-6.5878,-6.5878,-6.5878,-6.5878,-6.5878,-6.5878,-6.5878,-6.5878,-6.5878,-6.5878,-6.5878,-6.5878,-6.5878,-6.5878,-6.5878,-6.5878,-6.5878,-6.5878,-6.5878,-6.5878,-6.5878,-6.5878,-6.5878,-6.5878,-6.5878,-6.5878,-6.5878,-6.5878,-6.5878,-6.5878,-6.5878,-6.5878,-6.5878,-6.5878,-6.5878,-6.5878,-6.5878,-6.5878,-6.5878,-6.5878,-6.5878,-6.5878,-6.5878,-6.5878,-6.5878,-6.5878,-6.5878,-6.5878,-6.5878,-6.5878,-6.5878,-6.5878,-6.5878,-6.5878,-6.5878,-6.5878,-6.5878,-6.5878,-6.5878,-6.5878,-6.5878,-6.5878,-6.5878,-6.5878,-6.5878,-6.5878,-6.5878,-6.5878,-6.5878,-6.5878,-6.5878,-6.5878,-6.5878,-6.5878,-6.5878,-6.5878,-6.5878,-6.5878,-6.5878,-6.5878,-6.5878,-6.5878,-6.5878,-6.5878,-6.5878,-6.5878,-6.2461,-6.1738,-6.1699,-6.1596,-6.1693,-6.3263,-6.4023,-6.4325,-6.5825,-6.6605,-6.6624,-6.6624,-6.6666,-6.6706,-6.6674,-6.6688,-6.6697,-6.67,-6.6576,-6.6373,-6.6349,-6.6223,-6.608,-6.5953,-6.5923,-6.5878,-6.5878,-6.5878,-6.5878,-6.5878,-6.5878,-6.5878,-6.5878,-6.5878,-6.5878,-6.5878,-6.5878,-6.5878,-6.5878,-6.5878,-6.5878,-6.5878,-6.5878,-6.5878,-6.5878,-6.5878,-6.5878,-6.5878,-6.5878,-6.5878,-6.5878,-6.5878,-6.5878,-6.5878,-6.5878,-6.5878,-6.5878,-6.5878,-6.5878,-6.5878,-6.5878,-6.5878,-6.5878,-6.5878,-6.5878,-6.5878,-6.5878,-6.5878,-6.5878,-6.5878,-6.5878,-6.5878,-6.5878,-6.5878,-6.5878,-6.5878,-6.5878,-6.5878,-6.5878,-6.5878,-6.5878,-6.5878,-6.5878,-6.5878,-6.5878,-6.5878,-6.5878,-6.5878,-6.5878,-6.5878,-6.5878,-6.5878,-6.5878,-6.5878,-6.5878,-6.5878,-6.5878,-6.5878,-6.5878,-6.5878,-6.5878,-6.5878,-6.5878,-6.5878,-6.5878,-6.5878,-6.5878,-6.5878,-6.5878,-6.5878,-6.5878,-6.5878,-6.5878,-6.5878,-6.5878,-6.1973,-6.1699,-6.1699,-6.199,-6.2579,-6.3598,-6.4379,-6.5062,-6.6102,-6.6726,-6.6793,-6.6777,-6.68,-6.6826,-6.6816,-6.6797,-6.6816,-6.683,-6.6712,-6.6517,-6.6474,-6.6283,-6.6128,-6.6009,-6.5947,-6.5923,-6.5878,-6.5878,-6.5878,-6.5878,-6.5878,-6.5878,-6.5878,-6.5878,-6.5878,-6.5878,-6.5878,-6.5878,-6.5878,-6.5878,-6.5878,-6.5878,-6.5878,-6.5878,-6.5878,-6.5878,-6.5878,-6.5878,-6.5878,-6.5878,-6.5878,-6.5878,-6.5878,-6.5878,-6.5878,-6.5878,-6.5878,-6.5878,-6.5878,-6.5878,-6.5878,-6.5878,-6.5878,-6.5878,-6.5878,-6.5878,-6.5878,-6.5878,-6.5878,-6.5878,-6.5878,-6.5878,-6.5878,-6.5878,-6.5878,-6.5878,-6.5878,-6.5878,-6.5878,-6.5878,-6.5878,-6.5878,-6.5878,-6.5878,-6.5878,-6.5878,-6.5878,-6.5878,-6.5878,-6.5878,-6.5878,-6.5878,-6.5878,-6.5878,-6.5878,-6.5878,-6.5878,-6.5878,-6.5878,-6.5878,-6.5878,-6.5878,-6.5878,-6.5878,-6.5878,-6.5878,-6.5878,-6.5878,-6.5878,-6.5878,-6.5878,-6.5878,-6.5878,-6.5878,-6.5878,-6.1699,-6.1699,-6.1699,-6.2383,-6.3418,-6.3974,-6.4805,-6.5863,-6.6527,-6.6811,-6.6875,-6.6894,-6.6894,-6.6894,-6.6894,-6.6894,-6.6894,-6.6894,-6.683,-6.6642,-6.6527,-6.6358,-6.6166,-6.6019,-6.5953,-6.5923,-6.5878,-6.5878,-6.5878,-6.5878,-6.5878,-6.5878,-6.5878,-6.5878,-6.5878,-6.5878,-6.5878,-6.5878,-6.5878,-6.5878,-6.5878,-6.5878,-6.5878,-6.5878,-6.5878,-6.5878,-6.5878,-6.5878,-6.5878,-6.5878,-6.5878,-6.5878,-6.5878,-6.5878,-6.5878,-6.5878,-6.5878,-6.5878,-6.5878,-6.5878,-6.5878,-6.5878,-6.5878,-6.5878,-6.5878,-6.5878,-6.5878,-6.5878,-6.5878,-6.5878,-6.5878,-6.5878,-6.5878,-6.5878,-6.5878,-6.5878,-6.5878,-6.5878,-6.5878,-6.5878,-6.5878,-6.5878,-6.5878,-6.5878,-6.5878,-6.5878,-6.5878,-6.5878,-6.5878,-6.5878,-6.5878,-6.5878,-6.5878,-6.5878,-6.5878,-6.5878,-6.5878,-6.5878,-6.5878,-6.5878,-6.5878,-6.5878,-6.5878,-6.5878,-6.5878,-6.5878,-6.5878,-6.5878,-6.5878,-6.5878,-6.5878,-6.5878,-6.5878,-6.5878,-6.5878,-6.1699,-6.1699,-6.1738,-6.2734,-6.4121,-6.4453,-6.541,-6.6836,-6.6875,-6.6894,-6.6894,-6.6894,-6.6894,-6.6894,-6.6894,-6.6894,-6.6894,-6.6894,-6.6836,-6.6712,-6.6566,-6.638,-6.6219,-6.6063,-6.5977,-6.5923,-6.5878,-6.5878,-6.5878,-6.5878,-6.5878,-6.5878,-6.5878,-6.5878,-6.5878,-6.5878,-6.5878,-6.5878,-6.5878,-6.5878,-6.5878,-6.5878,-6.5878,-6.5878,-6.5878,-6.5878,-6.5878,-6.5878,-6.5878,-6.5878,-6.5878,-6.5878,-6.5878,-6.5878,-6.5878,-6.5878,-6.5878,-6.5878,-6.5878,-6.5878,-6.5878,-6.5878,-6.5878,-6.5878,-6.5878,-6.5878,-6.5878,-6.5878,-6.5878,-6.5878,-6.5878,-6.5878,-6.5878,-6.5878,-6.5878,-6.5878,-6.5878,-6.5878,-6.5878,-6.5878,-6.5878,-6.5878,-6.5878,-6.5878,-6.5878,-6.5878,-6.5878,-6.5878,-6.5878,-6.5878,-6.5878,-6.5878,-6.5878,-6.5878,-6.5878,-6.5878,-6.5878,-6.5878,-6.5878,-6.5878,-6.5878,-6.5878,-6.5878,-6.5878,-6.5878,-6.5878,-6.5878,-6.5878,-6.5878,-6.5878,-6.5878,-6.5878,-6.5878,-6.5878,-6.5878,-6.1699,-6.1777,-6.2363,-6.3281,-6.4394,-6.5625,-6.6465,-6.6875,-6.6894,-6.6894,-6.6894,-6.6894,-6.6894,-6.6894,-6.6894,-6.6894,-6.6894,-6.6894,-6.6875,-6.6754,-6.6603,-6.6462,-6.6303,-6.6107,-6.5982,-6.5923,-6.5878,-6.5878,-6.5878,-6.5878,-6.5878,-6.5878,-6.5878,-6.5878,-6.5878,-6.5878,-6.5878,-6.5878,-6.5878,-6.5878,-6.5878,-6.5878,-6.5878,-6.5878,-6.5878,-6.5878,-6.5878,-6.5878,-6.5878,-6.5878,-6.5878,-6.5878,-6.5878,-6.5878,-6.5878,-6.5878,-6.5878,-6.5878,-6.5878,-6.5878,-6.5878,-6.5878,-6.5878,-6.5878,-6.5878,-6.5878,-6.5878,-6.5878,-6.5878,-6.5878,-6.5878,-6.5878,-6.5878,-6.5878,-6.5878,-6.5878,-6.5878,-6.5878,-6.5878,-6.5878,-6.5878,-6.5878,-6.5878,-6.5878,-6.5878,-6.5878,-6.5878,-6.5878,-6.5878,-6.5878,-6.5878,-6.5878,-6.5878,-6.5878,-6.5878,-6.5878,-6.5878,-6.5878,-6.5878,-6.5878,-6.5878,-6.5878,-6.5878,-6.5878,-6.5878,-6.5878,-6.5878,-6.5878,-6.5878,-6.5878,-6.5878,-6.5878,-6.5878,-6.5878,-6.5878,-6.1894,-6.2265,-6.2754,-6.3691,-6.4941,-6.6308,-6.6894,-6.6894,-6.6894,-6.6894,-6.6894,-6.6894,-6.6894,-6.6894,-6.6894,-6.6894,-6.6894,-6.6894,-6.6873,-6.675,-6.6611,-6.6438,-6.6287,-6.6127,-6.5982,-6.5923,-6.5878,-6.5878,-6.5878,-6.5878,-6.5878,-6.5878,-6.5878,-6.5878,-6.5878,-6.5878,-6.5878,-6.5878,-6.5878,-6.5878,-6.5878,-6.5878,-6.5878,-6.5878,-6.5878,-6.5878,-6.5878,-6.5878,-6.5878,-6.5878,-6.5878,-6.5878,-6.5878,-6.5878,-6.5878,-6.5878,-6.5878,-6.5878,-6.5878,-6.5878,-6.5878,-6.5878,-6.5878,-6.5878,-6.5878,-6.5878,-6.5878,-6.5878,-6.5878,-6.5878,-6.5878,-6.5878,-6.5878,-6.5878,-6.5878,-6.5878,-6.5878,-6.5878,-6.5878,-6.5878,-6.5878,-6.5878,-6.5878,-6.5878,-6.5878,-6.5878,-6.5878,-6.5878,-6.5878,-6.5878,-6.5878,-6.5878,-6.5878,-6.5878,-6.5878,-6.5878,-6.5878,-6.5878,-6.5878,-6.5878,-6.5878,-6.5878,-6.5878,-6.5878,-6.5878,-6.5878,-6.5878,-6.5878,-6.5878,-6.5878,-6.5878,-6.5878,-6.5878,-6.5878,-6.5878,-6.2207,-6.2988,-6.3144,-6.4258,-6.5683,-6.6562,-6.6894,-6.6894,-6.6894,-6.6894,-6.6894,-6.6894,-6.6894,-6.6894,-6.6894,-6.6894,-6.6894,-6.6894,-6.6854,-6.6722,-6.6627,-6.6462,-6.6287,-6.6084,-6.6009,-6.5909,-6.5878,-6.5878,-6.5878,-6.5878,-6.5878,-6.5878,-6.5878,-6.5878,-6.5878,-6.5878,-6.5878,-6.5878,-6.5878,-6.5878,-6.5878,-6.5878,-6.5878,-6.5878,-6.5878,-6.5878,-6.5878,-6.5878,-6.5878,-6.5878,-6.5878,-6.5878,-6.5878,-6.5895,-6.587,-6.5878,-6.5878,-6.5878,-6.5878,-6.5878,-6.5878,-6.5878,-6.5878,-6.5878,-6.5878,-6.5878,-6.5878,-6.5878,-6.5878,-6.5878,-6.5878,-6.5878,-6.5878,-6.5878,-6.5878,-6.5878,-6.5878,-6.5878,-6.5878,-6.5878,-6.5878,-6.5878,-6.5878,-6.5878,-6.5878,-6.5878,-6.5878,-6.5878,-6.5878,-6.5878,-6.5878,-6.5878,-6.5878,-6.5878,-6.5878,-6.5878,-6.5878,-6.5878,-6.5878,-6.5878,-6.5878,-6.5878,-6.5878,-6.5878,-6.5878,-6.5878,-6.5878,-6.5878,-6.5878,-6.5878,-6.5878,-6.5878,-6.5878,-6.5878,-6.5878,-6.2207,-6.3125,-6.4414,-6.5625,-6.6543,-6.6816,-6.6894,-6.6894,-6.6894,-6.6894,-6.6894,-6.6894,-6.6894,-6.6894,-6.6894,-6.6894,-6.6894,-6.6875,-6.6875,-6.6781,-6.6675,-6.6462,-6.6339,-6.6148,-6.6041,-6.5933,-6.5878,-6.5878,-6.5878,-6.5878,-6.5878,-6.5878,-6.5878,-6.5878,-6.5878,-6.5878,-6.5878,-6.5878,-6.5878,-6.5878,-6.5878,-6.5878,-6.5878,-6.5878,-6.5878,-6.5903,-6.5903,-6.5878,-6.5878,-6.5878,-6.5878,-6.5878,-6.5878,-6.5874,-6.5894,-6.589,-6.5878,-6.5903,-6.5903,-6.5903,-6.5903,-6.5923,-6.5923,-6.5878,-6.5878,-6.5878,-6.5878,-6.5878,-6.5878,-6.5878,-6.5878,-6.5878,-6.5878,-6.5878,-6.5878,-6.5878,-6.5878,-6.5878,-6.5878,-6.5878,-6.5878,-6.5878,-6.5878,-6.5878,-6.5878,-6.5878,-6.5878,-6.5878,-6.5878,-6.5878,-6.5878,-6.5878,-6.5878,-6.5878,-6.5878,-6.5878,-6.5878,-6.5878,-6.5878,-6.5878,-6.5878,-6.5878,-6.5878,-6.5878,-6.5878,-6.5878,-6.5878,-6.5878,-6.5878,-6.5878,-6.5878,-6.5878,-6.5878,-6.5878,-6.5878,-6.2793,-6.375,-6.5449,-6.6445,-6.6836,-6.6894,-6.6894,-6.6894,-6.6894,-6.6894,-6.6894,-6.6894,-6.6894,-6.6894,-6.6894,-6.6894,-6.6875,-6.6816,-6.6754,-6.6712,-6.6635,-6.638,-6.6251,-6.6167,-6.6039,-6.5928,-6.5878,-6.5878,-6.5878,-6.5878,-6.5878,-6.5878,-6.5878,-6.5878,-6.5878,-6.5878,-6.5878,-6.5878,-6.5878,-6.5878,-6.5878,-6.5897,-6.5878,-6.5878,-6.5878,-6.5928,-6.5958,-6.5962,-6.599,-6.6016,-6.6041,-6.5938,-6.5914,-6.5881,-6.5905,-6.589,-6.5903,-6.5909,-6.5958,-6.5933,-6.5928,-6.5933,-6.5923,-6.5923,-6.5928,-6.5928,-6.5938,-6.5938,-6.5903,-6.5878,-6.5878,-6.5878,-6.5878,-6.5878,-6.5878,-6.5878,-6.5878,-6.5878,-6.5878,-6.5878,-6.5878,-6.5878,-6.5878,-6.5878,-6.5878,-6.5878,-6.5878,-6.5878,-6.5878,-6.5878,-6.5878,-6.5878,-6.5878,-6.5878,-6.5878,-6.5878,-6.5878,-6.5878,-6.5878,-6.5878,-6.5878,-6.5878,-6.5878,-6.5878,-6.5878,-6.5878,-6.5878,-6.5878,-6.5878,-6.5878,-6.5878,-6.5878,-6.5878,-6.5878,-6.5878,-6.3535,-6.4648,-6.6211,-6.6894,-6.6894,-6.6894,-6.6894,-6.6894,-6.6894,-6.6894,-6.6894,-6.6894,-6.6894,-6.6894,-6.6894,-6.6894,-6.6875,-6.6836,-6.6737,-6.6639,-6.6493,-6.6386,-6.6256,-6.6082,-6.6009,-6.5933,-6.5878,-6.5878,-6.5878,-6.5878,-6.5878,-6.5878,-6.5878,-6.5878,-6.5878,-6.5878,-6.5878,-6.5878,-6.5878,-6.5903,-6.5923,-6.5923,-6.5897,-6.5878,-6.5909,-6.5971,-6.6039,-6.6063,-6.6107,-6.6148,-6.6167,-6.6022,-6.5962,-6.5938,-6.5933,-6.5923,-6.5878,-6.5938,-6.599,-6.5958,-6.5967,-6.599,-6.5933,-6.5928,-6.5953,-6.5958,-6.5967,-6.5967,-6.5933,-6.5933,-6.5933,-6.5878,-6.5878,-6.5909,-6.5909,-6.5903,-6.5903,-6.5903,-6.5878,-6.5878,-6.5878,-6.5878,-6.5878,-6.5878,-6.5878,-6.5878,-6.5878,-6.5878,-6.5878,-6.5878,-6.5878,-6.5878,-6.5878,-6.5878,-6.5878,-6.5878,-6.5878,-6.5878,-6.5878,-6.5878,-6.5878,-6.5878,-6.5878,-6.5878,-6.5878,-6.5878,-6.5878,-6.5878,-6.5878,-6.5878,-6.5878,-6.5878,-6.5878,-6.5878,-6.5878,-6.3925,-6.5449,-6.6484,-6.6894,-6.6894,-6.6894,-6.6894,-6.6894,-6.6894,-6.6894,-6.6894,-6.6894,-6.6894,-6.6894,-6.6894,-6.6894,-6.6894,-6.6851,-6.6853,-6.6808,-6.6603,-6.6505,-6.6349,-6.6127,-6.6041,-6.5943,-6.5878,-6.5878,-6.5878,-6.5878,-6.5878,-6.5878,-6.5878,-6.5878,-6.5878,-6.5903,-6.5928,-6.5909,-6.5938,-6.5986,-6.5994,-6.5967,-6.5903,-6.5933,-6.5997,-6.6044,-6.6088,-6.6067,-6.6167,-6.6254,-6.6287,-6.6109,-6.6019,-6.599,-6.5986,-6.5947,-6.5903,-6.5962,-6.599,-6.5962,-6.5994,-6.5994,-6.5958,-6.5903,-6.5953,-6.5982,-6.5986,-6.5994,-6.599,-6.6022,-6.6019,-6.5933,-6.5903,-6.5986,-6.6013,-6.5958,-6.5928,-6.5928,-6.5909,-6.5903,-6.5878,-6.5878,-6.5878,-6.5878,-6.5878,-6.5878,-6.5878,-6.5878,-6.5878,-6.5878,-6.5878,-6.5878,-6.5878,-6.5878,-6.5878,-6.5878,-6.5878,-6.5878,-6.5878,-6.5878,-6.5878,-6.5878,-6.5878,-6.5878,-6.5878,-6.5878,-6.5878,-6.5878,-6.5878,-6.5878,-6.5878,-6.5878,-6.5878,-6.5878,-6.5878]},{"header":{"parameterUnit":"m.s-1","parameterCategory":1,"la1":31.0,"la2":29.5877,"lo1":-88.7671,"lo2":-86.6584,"dx":0.0162,"dy":0.0185,"nx":115,"ny":88,"refTime":"2023-01-27T18:00:00:Z","depth":0,"parameterNumber":3,"parameterNumberName":"V-component_of_WINDS"},"data":[0.0,0.0,0.0,0.0,0.0,0.0,0.0,0.0,0.0,0.0,0.0,0.0,0.0,0.0,0.0,0.0,0.0,0.0,0.0,0.0,0.0,0.0,0.0,0.0,0.0,0.0,0.0,0.0,0.0,0.0,0.0,0.0,0.0,0.0,0.0,0.0,0.0,0.0,0.0,0.0,0.0,0.0,0.0,0.0,0.0,0.0,0.0,0.0,0.0,0.0,0.0,0.0,0.0,0.0,0.0,0.0,0.0,0.0,0.0,0.0,0.0,0.0,0.0,0.0,0.0,0.0,0.0,0.0,0.0,0.0,0.0,0.0,0.0,0.0,0.0,0.0,0.0,0.0,0.0,0.0,0.0,0.0,0.0,0.0,0.0,0.0,0.0,0.0,0.0,0.0,0.0,0.0,0.0,0.0,0.0,0.0,0.0,0.0,0.0,0.0,0.0,0.0,0.0,0.0,0.0,0.0,0.0,0.0,0.0,0.0,0.0,0.0,0.0,0.0,0.0,0.0,0.0,0.0,0.0,0.0,0.0,0.0,0.0,0.0,0.0,0.0,0.0,0.0,0.0,0.0,0.0,0.0,0.0,0.0,0.0,0.0,0.0,0.0,0.0,0.0,0.0,0.0,0.0,0.0,0.0,0.0,0.0,0.0,0.0,0.0,0.0,0.0,0.0,0.0,0.0,0.0,0.0,0.0,0.0,0.0,0.0,0.0,0.0,0.0,0.0,0.0,0.0,0.0,0.0,0.0,0.0,0.0,0.0,0.0,0.0,0.0,0.0,0.0,0.0,0.0,0.0,0.0,0.0,0.0,0.0,0.0,0.0,0.0,0.0,0.0,0.0,0.0,0.0,0.0,0.0,0.0,0.0,0.0,0.0,0.0,0.0,0.0,0.0,0.0,0.0,0.0,0.0,0.0,0.0,0.0,0.0,0.0,0.0,0.0,0.0,0.0,0.0,0.0,0.0,0.0,0.0,0.0,0.0,0.0,0.0,0.0,0.0,0.0,0.0,0.0,0.0,0.0,0.0,0.0,0.0,0.0,0.0,0.0,0.0,0.0,0.0,0.0,0.0,0.0,0.0,0.0,0.0,0.0,0.0,0.0,0.0,0.0,0.0,0.0,0.0,0.0,0.0,0.0,0.0,0.0,0.0,0.0,0.0,0.0,0.0,0.0,0.0,0.0,0.0,0.0,0.0,0.0,0.0,0.0,0.0,0.0,0.0,0.0,0.0,0.0,0.0,0.0,0.0,0.0,0.0,0.0,0.0,0.0,0.0,0.0,0.0,0.0,0.0,0.0,0.0,0.0,0.0,0.0,0.0,0.0,0.0,0.0,0.0,0.0,0.0,0.0,0.0,0.0,0.0,0.0,0.0,0.0,0.0,0.0,0.0,0.0,0.0,0.0,0.0,0.0,0.0,0.0,0.0,0.0,0.0,0.0,0.0,0.0,0.0,0.0,0.0,0.0,0.0,0.0,0.0,0.0,0.0,0.0,0.0,0.0,0.0,0.0,0.0,0.0,0.0,0.0,0.0,0.0,0.0,0.0,0.0,0.0,0.0,0.0,0.0,0.0,0.0,0.0,0.0,0.0,0.0,0.0,0.0,0.0,0.0,0.0,0.0,0.0,0.0,0.0,0.0,0.0,0.0,0.0,0.0,0.0,0.0,0.0,0.0,0.0,0.0,0.0,0.0,0.0,0.0,0.0,0.0,0.0,0.0,0.0,0.0,0.0,0.0,0.0,0.0,0.0,0.0,0.0,0.0,0.0,0.0,0.0,0.0,0.0,0.0,0.0,0.0,0.0,0.0,0.0,0.0,0.0,0.0,0.0,0.0,0.0,0.0,0.0,0.0,0.0,0.0,0.0,0.0,0.0,0.0,0.0,0.0,0.0,0.0,0.0,0.0,0.0,0.0,0.0,0.0,0.0,0.0,0.0,0.0,0.0,0.0,0.0,0.0,0.0,0.0,0.0,0.0,0.0,0.0,0.0,0.0,0.0,0.0,0.0,0.0,0.0,0.0,0.0,0.0,0.0,0.0,0.0,0.0,0.0,0.0,0.0,0.0,0.0,0.0,0.0,0.0,0.0,0.0,0.0,0.0,0.0,0.0,0.0,0.0,0.0,0.0,0.0,0.0,0.0,0.0,0.0,0.0,0.0,0.0,0.0,0.0,0.0,0.0,0.0,0.0,0.0,0.0,0.0,0.0,0.0,0.0,0.0,0.0,0.0,0.0,0.0,0.0,0.0,0.0,0.0,0.0,0.0,0.0,0.0,0.0,0.0,0.0,0.0,0.0,0.0,0.0,0.0,0.0,0.0,0.0,0.0,0.0,0.0,0.0,0.0,0.0,0.0,0.0,0.0,0.0,0.0,0.0,0.0,0.0,0.0,0.0,0.0,0.0,0.0,0.0,0.0,0.0,0.0,0.0,0.0,0.0,0.0,0.0,0.0,0.0,0.0,0.0,0.0,0.0,0.0,0.0,0.0,0.0,0.0,0.0,0.0,0.0,0.0,0.0,0.0,0.0,0.0,0.0,0.0,0.0,0.0,0.0,0.0,0.0,0.0,0.0,0.0,0.0,0.0,0.0,0.0,0.0,0.0,0.0,0.0,0.0,0.0,0.0,0.0,0.0,0.0,0.0,0.0,0.0,0.0,0.0,0.0,0.0,0.0,0.0,0.0,0.0,0.0,0.0,0.0,0.0,0.0,0.0,0.0,0.0,0.0,0.0,0.0,0.0,0.0,0.0,0.0,0.0,0.0,0.0,0.0,0.0,0.0,0.0,0.0,0.0,0.0,0.0,0.0,0.0,0.0,0.0,0.0,0.0,0.0,0.0,0.0,0.0,0.0,0.0,0.0,0.0,0.0,0.0,0.0,0.0,0.0,0.0,0.0,0.0,0.0,0.0,0.0,0.0,0.0,0.0,0.0,0.0,0.0,0.0,0.0,0.0,0.0,0.0,0.0,0.0,0.0,0.0,0.0,0.0,0.0,0.0,0.0,0.0,0.0,0.0,0.0,0.0,0.0,0.0,0.0,0.0,0.0,0.0,0.0,0.0,0.0,0.0,0.0,0.0,0.0,0.0,0.0,0.0,0.0,0.0,0.0,0.0,0.0,0.0,0.0,0.0,0.0,0.0,0.0,0.0,0.0,0.0,0.0,0.0,0.0,0.0,0.0,0.0,0.0,0.0,0.0,0.0,0.0,0.0,0.0,0.0,0.0,0.0,0.0,0.0,0.0,0.0,0.0,0.0,0.0,0.0,0.0,0.0,0.0,0.0,0.0,0.0,0.0,0.0,0.0,0.0,0.0,0.0,0.0,0.0,0.0,0.0,0.0,0.0,0.0,0.0,0.0,0.0,0.0,0.0,0.0,0.0,0.0,0.0,0.0,0.0,0.0,0.0,0.0,0.0,0.0,0.0,0.0,0.0,0.0,0.0,0.0,0.0,0.0,0.0,0.0,0.0,0.0,0.0,0.0,0.0,0.0,0.0,0.0,0.0,0.0,0.0,0.0,0.0,0.0,0.0,0.0,0.0,0.0,0.0,0.0,0.0,0.0,0.0,0.0,0.0,0.0,0.0,0.0,0.0,0.0,0.0,0.0,0.0,0.0,0.0,0.0,0.0,0.0,0.0,0.0,0.0,0.0,0.0,0.0,0.0,0.0,0.0,0.0,0.0,0.0,0.0,0.0,0.0,0.0,0.0,0.0,0.0,0.0,0.0,0.0,0.0,0.0,0.0,0.0,0.0,0.0,0.0,0.0,0.0,0.0,0.0,0.0,0.0,0.0,0.0,0.0,0.0,0.0,0.0,0.0,0.0,0.0,0.0,0.0,0.0,0.0,0.0,0.0,0.0,0.0,0.0,0.0,0.0,0.0,0.0,0.0,0.0,0.0,0.0,0.0,0.0,0.0,0.0,0.0,0.0,0.0,0.0,0.0,0.0,0.0,0.0,0.0,0.0,0.0,0.0,0.0,0.0,0.0,0.0,0.0,0.0,0.0,0.0,0.0,0.0,0.0,0.0,0.0,0.0,0.0,0.0,0.0,0.0,0.0,0.0,0.0,0.0,0.0,0.0,0.0,0.0,0.0,0.0,0.0,0.0,0.0,0.0,0.0,0.0,0.0,0.0,0.0,0.0,0.0,0.0,0.0,0.0,0.0,0.0,0.0,0.0,0.0,0.0,0.0,0.0,0.0,0.0,0.0,0.0,0.0,0.0,0.0,0.0,0.0,0.0,0.0,0.0,0.0,0.0,0.0,0.0,0.0,0.0,0.0,-5.86,0.0,0.0,0.0,0.0,0.0,0.0,0.0,0.0,0.0,0.0,0.0,0.0,0.0,0.0,0.0,0.0,0.0,0.0,0.0,0.0,0.0,0.0,0.0,0.0,0.0,0.0,0.0,0.0,0.0,0.0,0.0,0.0,0.0,0.0,0.0,0.0,0.0,0.0,0.0,0.0,0.0,0.0,0.0,0.0,0.0,0.0,0.0,0.0,0.0,0.0,0.0,0.0,0.0,0.0,0.0,0.0,0.0,0.0,0.0,0.0,0.0,0.0,0.0,0.0,0.0,0.0,0.0,0.0,0.0,0.0,0.0,0.0,0.0,0.0,0.0,0.0,0.0,0.0,0.0,0.0,0.0,0.0,0.0,0.0,0.0,0.0,0.0,0.0,0.0,0.0,0.0,0.0,0.0,0.0,0.0,0.0,0.0,0.0,0.0,0.0,0.0,0.0,0.0,0.0,0.0,0.0,0.0,0.0,0.0,0.0,-5.8988,-5.8728,-5.9006,-5.8889,-5.8338,0.0,0.0,0.0,0.0,0.0,0.0,0.0,0.0,0.0,0.0,0.0,0.0,0.0,0.0,0.0,0.0,0.0,0.0,0.0,0.0,0.0,0.0,0.0,0.0,0.0,0.0,0.0,0.0,0.0,0.0,0.0,0.0,0.0,0.0,0.0,0.0,0.0,0.0,0.0,0.0,0.0,0.0,0.0,0.0,0.0,0.0,0.0,0.0,0.0,0.0,0.0,0.0,0.0,0.0,0.0,0.0,0.0,0.0,0.0,0.0,0.0,0.0,0.0,0.0,0.0,0.0,0.0,0.0,0.0,0.0,0.0,0.0,0.0,0.0,0.0,0.0,0.0,0.0,0.0,0.0,0.0,0.0,0.0,0.0,0.0,0.0,0.0,0.0,0.0,0.0,0.0,0.0,0.0,0.0,0.0,0.0,0.0,0.0,0.0,0.0,0.0,0.0,0.0,0.0,0.0,0.0,0.0,0.0,0.0,0.0,0.0,0.0,-5.8788,-5.8665,-5.7987,0.0,0.0,0.0,0.0,0.0,0.0,0.0,0.0,0.0,0.0,0.0,0.0,0.0,0.0,0.0,0.0,0.0,0.0,0.0,0.0,0.0,0.0,0.0,0.0,0.0,0.0,0.0,0.0,0.0,0.0,0.0,0.0,0.0,0.0,0.0,0.0,0.0,0.0,0.0,0.0,0.0,0.0,0.0,0.0,0.0,0.0,0.0,0.0,0.0,0.0,0.0,0.0,0.0,0.0,0.0,0.0,0.0,0.0,0.0,0.0,0.0,0.0,0.0,0.0,0.0,0.0,0.0,0.0,0.0,0.0,0.0,0.0,0.0,0.0,0.0,0.0,0.0,0.0,0.0,0.0,0.0,0.0,0.0,0.0,0.0,0.0,0.0,0.0,0.0,0.0,0.0,0.0,0.0,0.0,0.0,0.0,0.0,0.0,0.0,0.0,0.0,0.0,0.0,0.0,0.0,0.0,0.0,0.0,0.0,0.0,-5.8698,-5.8656,-5.8698,0.0,-5.7304,0.0,0.0,0.0,0.0,0.0,0.0,0.0,0.0,0.0,0.0,0.0,0.0,0.0,0.0,0.0,0.0,0.0,0.0,0.0,0.0,0.0,0.0,0.0,0.0,0.0,0.0,0.0,0.0,0.0,0.0,0.0,0.0,0.0,0.0,0.0,0.0,0.0,0.0,0.0,0.0,0.0,0.0,0.0,0.0,0.0,0.0,0.0,0.0,0.0,0.0,0.0,0.0,0.0,0.0,0.0,0.0,0.0,0.0,0.0,0.0,0.0,0.0,0.0,0.0,0.0,0.0,0.0,0.0,0.0,0.0,0.0,0.0,0.0,0.0,0.0,0.0,0.0,0.0,0.0,0.0,0.0,0.0,0.0,0.0,0.0,0.0,0.0,0.0,0.0,0.0,0.0,0.0,0.0,0.0,0.0,0.0,0.0,0.0,0.0,0.0,0.0,0.0,0.0,0.0,0.0,0.0,0.0,0.0,0.0,0.0,-5.8553,-5.8468,-5.8356,-5.7969,0.0,0.0,0.0,0.0,0.0,0.0,0.0,0.0,0.0,0.0,0.0,0.0,0.0,0.0,0.0,0.0,0.0,0.0,0.0,0.0,0.0,0.0,0.0,0.0,0.0,0.0,0.0,0.0,0.0,0.0,0.0,0.0,0.0,0.0,0.0,0.0,0.0,0.0,0.0,0.0,0.0,0.0,0.0,0.0,0.0,0.0,0.0,0.0,0.0,0.0,0.0,0.0,0.0,0.0,0.0,0.0,0.0,0.0,0.0,0.0,0.0,0.0,0.0,0.0,0.0,0.0,0.0,0.0,0.0,0.0,0.0,0.0,0.0,0.0,0.0,0.0,0.0,0.0,0.0,0.0,0.0,0.0,0.0,0.0,0.0,0.0,0.0,0.0,0.0,0.0,0.0,0.0,0.0,0.0,0.0,0.0,0.0,0.0,0.0,0.0,0.0,0.0,0.0,0.0,0.0,0.0,0.0,0.0,0.0,0.0,-5.8614,-5.8511,-5.8363,-5.8051,-5.7594,-5.696,0.0,0.0,0.0,0.0,0.0,0.0,0.0,0.0,0.0,0.0,0.0,0.0,0.0,0.0,0.0,0.0,0.0,0.0,0.0,0.0,0.0,0.0,0.0,0.0,0.0,0.0,0.0,0.0,0.0,0.0,0.0,0.0,0.0,0.0,0.0,0.0,0.0,0.0,0.0,0.0,0.0,0.0,0.0,0.0,0.0,0.0,0.0,0.0,0.0,0.0,0.0,0.0,0.0,0.0,0.0,0.0,0.0,0.0,0.0,0.0,0.0,0.0,0.0,0.0,0.0,0.0,0.0,0.0,0.0,0.0,0.0,0.0,0.0,0.0,0.0,0.0,0.0,0.0,0.0,0.0,0.0,0.0,0.0,0.0,0.0,0.0,0.0,0.0,0.0,0.0,0.0,0.0,0.0,0.0,0.0,0.0,0.0,0.0,0.0,0.0,0.0,0.0,0.0,0.0,0.0,0.0,0.0,0.0,-5.8698,-5.8698,-5.8614,-5.8468,-5.7877,-5.7043,0.0,0.0,0.0,0.0,0.0,0.0,0.0,0.0,0.0,0.0,0.0,0.0,0.0,0.0,0.0,0.0,0.0,0.0,0.0,0.0,0.0,0.0,0.0,0.0,0.0,0.0,0.0,0.0,0.0,0.0,0.0,0.0,0.0,0.0,0.0,0.0,0.0,0.0,0.0,0.0,0.0,0.0,0.0,0.0,0.0,0.0,0.0,0.0,0.0,0.0,0.0,0.0,0.0,0.0,0.0,0.0,0.0,0.0,0.0,0.0,0.0,0.0,0.0,0.0,0.0,0.0,0.0,0.0,0.0,0.0,0.0,0.0,0.0,0.0,0.0,0.0,0.0,0.0,0.0,0.0,0.0,0.0,0.0,0.0,0.0,0.0,0.0,0.0,0.0,0.0,0.0,0.0,0.0,0.0,0.0,0.0,0.0,0.0,0.0,0.0,0.0,0.0,0.0,0.0,0.0,0.0,0.0,0.0,0.0,-5.8698,-5.8698,-5.8675,-5.8614,-5.7905,-5.7094,0.0,0.0,0.0,0.0,0.0,0.0,0.0,0.0,0.0,0.0,0.0,0.0,0.0,0.0,0.0,0.0,0.0,0.0,0.0,0.0,0.0,0.0,0.0,0.0,0.0,0.0,0.0,0.0,0.0,0.0,0.0,0.0,0.0,0.0,0.0,0.0,0.0,0.0,0.0,0.0,0.0,0.0,0.0,0.0,0.0,0.0,0.0,0.0,0.0,0.0,0.0,0.0,0.0,0.0,0.0,0.0,0.0,0.0,0.0,0.0,0.0,0.0,0.0,0.0,0.0,0.0,0.0,0.0,0.0,0.0,0.0,0.0,0.0,0.0,0.0,0.0,0.0,0.0,0.0,0.0,0.0,0.0,0.0,0.0,0.0,0.0,0.0,0.0,0.0,0.0,0.0,0.0,0.0,0.0,0.0,0.0,0.0,0.0,0.0,0.0,0.0,0.0,0.0,0.0,0.0,0.0,0.0,0.0,0.0,-5.8698,0.0,-5.8553,0.0,-5.7664,-5.6786,0.0,0.0,0.0,0.0,0.0,0.0,0.0,0.0,0.0,0.0,0.0,0.0,0.0,0.0,0.0,0.0,0.0,0.0,0.0,0.0,0.0,0.0,0.0,0.0,0.0,0.0,0.0,0.0,0.0,0.0,0.0,0.0,0.0,0.0,0.0,0.0,0.0,0.0,0.0,0.0,0.0,0.0,0.0,0.0,0.0,0.0,0.0,0.0,0.0,0.0,0.0,0.0,0.0,0.0,0.0,0.0,0.0,0.0,0.0,0.0,0.0,0.0,0.0,0.0,0.0,0.0,0.0,0.0,0.0,0.0,0.0,0.0,0.0,0.0,0.0,0.0,0.0,0.0,0.0,0.0,0.0,0.0,0.0,0.0,0.0,0.0,0.0,0.0,0.0,0.0,0.0,0.0,0.0,0.0,0.0,0.0,0.0,0.0,0.0,0.0,0.0,0.0,0.0,0.0,0.0,0.0,0.0,0.0,-5.8884,-5.8698,-5.8319,-5.8257,-5.8468,-5.7071,-5.6152,0.0,0.0,0.0,0.0,0.0,0.0,0.0,0.0,0.0,0.0,0.0,0.0,0.0,0.0,0.0,0.0,0.0,0.0,0.0,0.0,0.0,0.0,0.0,0.0,0.0,0.0,0.0,0.0,0.0,0.0,0.0,0.0,0.0,0.0,0.0,0.0,0.0,0.0,0.0,0.0,0.0,0.0,0.0,0.0,0.0,0.0,0.0,0.0,0.0,0.0,0.0,0.0,0.0,0.0,0.0,0.0,0.0,0.0,0.0,0.0,0.0,0.0,0.0,0.0,0.0,0.0,0.0,0.0,0.0,0.0,0.0,0.0,0.0,0.0,0.0,0.0,0.0,0.0,0.0,0.0,0.0,0.0,0.0,0.0,0.0,0.0,0.0,0.0,0.0,0.0,0.0,0.0,0.0,0.0,0.0,0.0,0.0,0.0,0.0,0.0,0.0,0.0,0.0,0.0,0.0,0.0,0.0,0.0,0.0,-5.8884,-5.8231,-5.8078,-5.8375,-5.6837,-5.5854,0.0,0.0,0.0,0.0,0.0,0.0,0.0,0.0,0.0,0.0,0.0,0.0,0.0,0.0,0.0,0.0,0.0,0.0,0.0,0.0,0.0,0.0,0.0,0.0,0.0,0.0,0.0,0.0,0.0,0.0,0.0,0.0,0.0,0.0,0.0,0.0,0.0,0.0,0.0,0.0,0.0,0.0,0.0,0.0,0.0,0.0,0.0,0.0,0.0,0.0,0.0,0.0,0.0,0.0,0.0,0.0,0.0,0.0,0.0,0.0,0.0,0.0,0.0,0.0,0.0,0.0,0.0,0.0,0.0,0.0,0.0,0.0,0.0,0.0,0.0,0.0,0.0,0.0,0.0,0.0,0.0,0.0,0.0,0.0,0.0,0.0,0.0,0.0,0.0,0.0,0.0,0.0,0.0,0.0,0.0,0.0,0.0,0.0,0.0,0.0,0.0,0.0,0.0,0.0,0.0,0.0,0.0,0.0,0.0,-5.854,-5.7895,-5.769,-5.8113,-5.6544,-5.5645,-5.5454,0.0,0.0,0.0,0.0,0.0,0.0,0.0,0.0,0.0,0.0,0.0,0.0,0.0,0.0,0.0,0.0,0.0,0.0,0.0,0.0,0.0,0.0,0.0,0.0,0.0,0.0,0.0,0.0,0.0,0.0,0.0,0.0,0.0,0.0,0.0,0.0,0.0,0.0,0.0,0.0,0.0,0.0,0.0,0.0,0.0,0.0,0.0,0.0,0.0,0.0,0.0,0.0,0.0,0.0,0.0,0.0,0.0,0.0,0.0,0.0,0.0,0.0,0.0,0.0,0.0,0.0,0.0,0.0,0.0,0.0,0.0,0.0,0.0,0.0,0.0,0.0,0.0,0.0,0.0,0.0,0.0,0.0,0.0,0.0,0.0,0.0,0.0,0.0,0.0,0.0,0.0,0.0,0.0,0.0,0.0,0.0,0.0,0.0,0.0,0.0,0.0,0.0,0.0,0.0,0.0,0.0,0.0,0.0,-5.7877,-5.727,-5.7138,-5.7534,-5.6204,-5.5454,0.0,0.0,0.0,0.0,0.0,0.0,0.0,0.0,0.0,0.0,0.0,0.0,0.0,0.0,0.0,0.0,0.0,0.0,0.0,0.0,0.0,0.0,0.0,0.0,0.0,0.0,0.0,0.0,0.0,0.0,0.0,0.0,0.0,0.0,0.0,0.0,0.0,0.0,0.0,0.0,0.0,0.0,0.0,0.0,0.0,0.0,0.0,0.0,0.0,0.0,0.0,0.0,0.0,0.0,0.0,0.0,0.0,0.0,0.0,0.0,0.0,0.0,0.0,0.0,0.0,0.0,0.0,0.0,0.0,0.0,0.0,0.0,0.0,0.0,0.0,0.0,0.0,0.0,0.0,0.0,0.0,0.0,0.0,0.0,0.0,0.0,0.0,0.0,0.0,0.0,0.0,0.0,0.0,0.0,0.0,0.0,0.0,0.0,0.0,0.0,0.0,0.0,0.0,0.0,0.0,0.0,0.0,0.0,0.0,-5.7239,-5.6794,-5.6829,-5.7333,-5.6019,-5.4913,0.0,0.0,0.0,0.0,0.0,0.0,0.0,0.0,0.0,0.0,0.0,0.0,0.0,0.0,0.0,0.0,0.0,0.0,0.0,0.0,0.0,0.0,0.0,0.0,0.0,0.0,0.0,0.0,0.0,0.0,0.0,0.0,0.0,0.0,0.0,0.0,0.0,0.0,0.0,0.0,0.0,0.0,0.0,0.0,0.0,0.0,0.0,0.0,0.0,0.0,0.0,0.0,0.0,0.0,0.0,0.0,0.0,0.0,0.0,0.0,0.0,0.0,0.0,0.0,0.0,0.0,0.0,0.0,0.0,0.0,0.0,0.0,0.0,0.0,0.0,0.0,0.0,0.0,0.0,0.0,0.0,0.0,0.0,0.0,0.0,0.0,0.0,0.0,0.0,0.0,0.0,0.0,0.0,0.0,0.0,0.0,0.0,0.0,0.0,0.0,0.0,0.0,0.0,0.0,0.0,0.0,0.0,0.0,-5.7401,-5.6742,-5.6492,-5.66,-5.6915,-5.5978,-5.487,0.0,0.0,0.0,0.0,0.0,0.0,0.0,0.0,0.0,0.0,0.0,0.0,0.0,0.0,0.0,0.0,0.0,0.0,0.0,0.0,0.0,0.0,0.0,0.0,0.0,0.0,0.0,0.0,0.0,0.0,0.0,0.0,0.0,0.0,0.0,0.0,0.0,0.0,0.0,0.0,0.0,0.0,0.0,0.0,0.0,0.0,0.0,0.0,0.0,0.0,0.0,0.0,0.0,0.0,0.0,0.0,0.0,0.0,0.0,0.0,0.0,0.0,0.0,0.0,0.0,0.0,0.0,0.0,0.0,0.0,0.0,0.0,0.0,0.0,0.0,0.0,0.0,0.0,0.0,0.0,0.0,0.0,0.0,0.0,0.0,0.0,0.0,0.0,0.0,0.0,0.0,0.0,0.0,0.0,0.0,0.0,0.0,0.0,0.0,0.0,0.0,0.0,0.0,0.0,0.0,0.0,0.0,0.0,-5.7333,-5.6437,-5.6383,-5.6383,-5.6383,-5.5975,-5.5034,0.0,0.0,0.0,0.0,0.0,0.0,0.0,0.0,0.0,0.0,0.0,0.0,0.0,0.0,0.0,0.0,0.0,0.0,0.0,0.0,0.0,0.0,0.0,0.0,0.0,0.0,0.0,0.0,0.0,0.0,0.0,0.0,0.0,0.0,0.0,0.0,0.0,0.0,0.0,0.0,0.0,0.0,0.0,0.0,0.0,0.0,0.0,0.0,0.0,0.0,0.0,0.0,0.0,0.0,0.0,0.0,0.0,0.0,0.0,0.0,0.0,0.0,0.0,0.0,0.0,0.0,0.0,0.0,0.0,0.0,0.0,0.0,0.0,0.0,0.0,0.0,0.0,0.0,0.0,0.0,0.0,0.0,0.0,0.0,0.0,0.0,0.0,0.0,0.0,0.0,0.0,0.0,0.0,0.0,0.0,0.0,0.0,0.0,0.0,0.0,0.0,0.0,0.0,0.0,0.0,0.0,0.0,0.0,-5.6915,-5.6437,-5.6383,-5.6383,-5.6401,-5.6049,-5.5034,0.0,0.0,0.0,0.0,0.0,0.0,0.0,0.0,0.0,0.0,0.0,0.0,0.0,0.0,0.0,0.0,0.0,0.0,0.0,0.0,0.0,0.0,0.0,0.0,0.0,0.0,0.0,0.0,0.0,0.0,0.0,0.0,0.0,0.0,0.0,0.0,0.0,0.0,0.0,0.0,0.0,0.0,0.0,0.0,0.0,0.0,0.0,0.0,-4.1324,0.0,0.0,0.0,0.0,0.0,0.0,0.0,0.0,0.0,0.0,0.0,0.0,0.0,0.0,0.0,0.0,0.0,0.0,0.0,0.0,0.0,0.0,0.0,0.0,0.0,0.0,0.0,0.0,0.0,0.0,0.0,0.0,0.0,0.0,0.0,0.0,0.0,0.0,0.0,0.0,0.0,0.0,0.0,0.0,0.0,0.0,0.0,0.0,0.0,0.0,0.0,0.0,0.0,0.0,0.0,0.0,0.0,0.0,0.0,-5.6421,-5.5957,-5.5636,-5.5636,-5.5883,-5.5461,-5.4589,0.0,0.0,0.0,0.0,0.0,0.0,0.0,0.0,0.0,0.0,0.0,0.0,0.0,0.0,0.0,0.0,0.0,0.0,0.0,0.0,0.0,0.0,0.0,0.0,0.0,0.0,0.0,0.0,0.0,0.0,0.0,0.0,0.0,0.0,0.0,0.0,0.0,0.0,0.0,0.0,0.0,0.0,0.0,0.0,0.0,0.0,0.0,0.0,0.0,0.0,0.0,0.0,0.0,0.0,0.0,0.0,0.0,0.0,0.0,0.0,0.0,0.0,0.0,0.0,0.0,0.0,0.0,0.0,0.0,0.0,0.0,0.0,0.0,0.0,0.0,0.0,0.0,0.0,0.0,0.0,0.0,0.0,0.0,0.0,0.0,0.0,0.0,0.0,0.0,0.0,0.0,0.0,0.0,0.0,0.0,0.0,0.0,0.0,0.0,0.0,0.0,0.0,0.0,0.0,0.0,0.0,0.0,-5.6401,-5.5931,-5.5249,-5.4703,-5.4641,-5.5207,-5.4579,-5.3827,-5.3062,0.0,0.0,0.0,0.0,0.0,0.0,0.0,0.0,0.0,0.0,0.0,0.0,0.0,0.0,0.0,0.0,0.0,0.0,0.0,0.0,0.0,0.0,0.0,0.0,0.0,0.0,0.0,0.0,0.0,0.0,0.0,0.0,0.0,0.0,0.0,0.0,0.0,0.0,-4.1782,-4.1372,0.0,0.0,0.0,0.0,0.0,0.0,0.0,0.0,-3.9104,0.0,0.0,0.0,0.0,0.0,0.0,0.0,0.0,0.0,0.0,0.0,0.0,0.0,0.0,0.0,0.0,0.0,0.0,0.0,0.0,0.0,0.0,0.0,0.0,0.0,0.0,0.0,0.0,0.0,0.0,0.0,0.0,0.0,0.0,0.0,0.0,0.0,0.0,0.0,0.0,0.0,0.0,0.0,0.0,0.0,0.0,0.0,0.0,0.0,0.0,0.0,0.0,0.0,0.0,0.0,0.0,-5.6169,-5.6077,-5.5588,-5.4579,-5.4454,-5.4454,-5.4516,-5.3747,-5.2976,-5.232,0.0,0.0,0.0,0.0,0.0,0.0,0.0,0.0,0.0,0.0,0.0,0.0,0.0,0.0,0.0,0.0,0.0,0.0,0.0,0.0,0.0,0.0,0.0,0.0,0.0,0.0,0.0,0.0,0.0,0.0,0.0,0.0,0.0,0.0,0.0,0.0,0.0,0.0,0.0,-4.0287,-3.9865,0.0,0.0,0.0,0.0,0.0,0.0,0.0,0.0,-3.8291,0.0,0.0,0.0,0.0,0.0,0.0,0.0,0.0,0.0,0.0,0.0,0.0,0.0,0.0,0.0,0.0,0.0,0.0,0.0,0.0,0.0,0.0,0.0,0.0,0.0,0.0,0.0,0.0,0.0,0.0,0.0,0.0,0.0,0.0,0.0,0.0,0.0,0.0,0.0,0.0,0.0,0.0,0.0,0.0,0.0,0.0,0.0,0.0,0.0,0.0,0.0,0.0,0.0,0.0,0.0,-5.5917,-5.4954,-5.4259,-5.3747,-5.3281,-5.3213,-5.3532,-5.2836,-5.2043,0.0,0.0,0.0,0.0,0.0,0.0,0.0,0.0,0.0,0.0,0.0,0.0,0.0,0.0,0.0,0.0,0.0,0.0,0.0,0.0,0.0,0.0,0.0,0.0,0.0,0.0,0.0,0.0,0.0,0.0,0.0,0.0,0.0,0.0,0.0,0.0,0.0,0.0,0.0,0.0,-4.0668,-4.0351,-3.9917,0.0,0.0,0.0,0.0,0.0,0.0,-3.7548,-3.7227,0.0,0.0,0.0,0.0,0.0,0.0,0.0,0.0,0.0,0.0,0.0,0.0,0.0,0.0,0.0,0.0,0.0,0.0,0.0,0.0,0.0,0.0,0.0,0.0,0.0,0.0,0.0,0.0,0.0,0.0,0.0,0.0,0.0,0.0,0.0,0.0,0.0,0.0,0.0,0.0,0.0,0.0,0.0,0.0,0.0,0.0,0.0,0.0,0.0,0.0,0.0,0.0,0.0,0.0,0.0,-5.5535,-5.3994,-5.3078,-5.2836,-5.2181,-5.2036,-5.254,-5.2092,-5.1301,0.0,0.0,0.0,0.0,0.0,0.0,0.0,0.0,0.0,0.0,0.0,0.0,0.0,0.0,0.0,0.0,0.0,0.0,0.0,0.0,0.0,0.0,0.0,0.0,0.0,0.0,0.0,0.0,0.0,0.0,0.0,0.0,0.0,0.0,0.0,0.0,0.0,0.0,0.0,0.0,0.0,-4.0617,-4.0109,-3.9117,0.0,0.0,0.0,0.0,-3.6592,-3.67,0.0,0.0,0.0,0.0,0.0,0.0,0.0,0.0,0.0,0.0,0.0,0.0,0.0,0.0,0.0,0.0,0.0,0.0,0.0,0.0,0.0,0.0,0.0,0.0,0.0,0.0,0.0,0.0,0.0,0.0,0.0,0.0,0.0,0.0,0.0,0.0,0.0,0.0,0.0,0.0,0.0,0.0,0.0,0.0,0.0,0.0,0.0,0.0,0.0,0.0,0.0,0.0,0.0,0.0,0.0,0.0,-5.4842,-5.396,-5.3011,-5.2053,-5.1835,-5.1835,-5.1908,-5.1851,-5.1301,0.0,0.0,0.0,0.0,0.0,0.0,0.0,0.0,0.0,0.0,0.0,0.0,0.0,0.0,0.0,0.0,0.0,0.0,0.0,0.0,0.0,0.0,0.0,0.0,0.0,0.0,0.0,0.0,0.0,0.0,0.0,0.0,0.0,0.0,0.0,0.0,0.0,0.0,0.0,0.0,0.0,-3.9506,-3.8712,-3.8514,-3.8092,0.0,0.0,0.0,-3.7131,-3.7251,0.0,0.0,0.0,0.0,0.0,0.0,0.0,0.0,0.0,0.0,0.0,0.0,0.0,0.0,0.0,0.0,0.0,0.0,0.0,0.0,0.0,0.0,0.0,0.0,0.0,0.0,0.0,0.0,0.0,0.0,0.0,0.0,0.0,0.0,0.0,0.0,0.0,0.0,0.0,0.0,0.0,0.0,0.0,0.0,0.0,0.0,0.0,0.0,0.0,0.0,0.0,0.0,0.0,0.0,0.0,-5.549,-5.4696,-5.3196,-5.217,-5.1647,-5.1499,-5.1483,-5.1483,-5.1483,-5.1016,0.0,0.0,0.0,0.0,0.0,0.0,0.0,0.0,0.0,0.0,0.0,0.0,0.0,0.0,0.0,0.0,0.0,0.0,0.0,0.0,0.0,0.0,0.0,0.0,0.0,0.0,0.0,0.0,0.0,0.0,0.0,0.0,0.0,0.0,0.0,0.0,0.0,0.0,0.0,0.0,0.0,0.0,-3.8104,-3.7785,0.0,0.0,0.0,-3.7239,-3.67,0.0,0.0,0.0,0.0,0.0,0.0,0.0,0.0,0.0,0.0,0.0,0.0,0.0,0.0,0.0,0.0,0.0,0.0,0.0,0.0,0.0,0.0,0.0,0.0,0.0,0.0,0.0,0.0,0.0,0.0,0.0,0.0,0.0,0.0,0.0,0.0,0.0,0.0,0.0,0.0,0.0,0.0,0.0,0.0,0.0,0.0,0.0,0.0,0.0,0.0,0.0,0.0,0.0,0.0,0.0,0.0,0.0,-5.4316,-5.2437,-5.1499,-5.1424,-5.1258,-5.1092,-5.0864,-5.0848,0.0,0.0,0.0,0.0,0.0,0.0,0.0,0.0,0.0,0.0,0.0,0.0,0.0,0.0,0.0,0.0,0.0,0.0,0.0,0.0,0.0,0.0,0.0,0.0,0.0,0.0,0.0,-4.447,0.0,0.0,0.0,0.0,0.0,0.0,0.0,0.0,0.0,0.0,0.0,0.0,0.0,0.0,-3.9597,-3.8116,-3.7465,-3.7251,0.0,0.0,-3.6243,-3.6036,-3.5916,-3.6013,0.0,0.0,0.0,0.0,0.0,0.0,0.0,0.0,0.0,0.0,0.0,0.0,0.0,0.0,0.0,0.0,0.0,0.0,0.0,0.0,0.0,0.0,0.0,0.0,0.0,0.0,0.0,0.0,0.0,0.0,0.0,0.0,0.0,0.0,0.0,0.0,0.0,0.0,0.0,0.0,0.0,0.0,0.0,0.0,0.0,0.0,0.0,0.0,0.0,0.0,0.0,0.0,0.0,0.0,0.0,-5.3365,-5.2148,-5.1424,-5.1258,-5.1183,-5.0848,-5.0042,-4.9947,-4.955,0.0,0.0,0.0,0.0,0.0,0.0,0.0,0.0,0.0,0.0,0.0,0.0,0.0,0.0,0.0,0.0,0.0,0.0,0.0,0.0,0.0,0.0,0.0,0.0,0.0,0.0,0.0,0.0,0.0,0.0,0.0,0.0,0.0,0.0,0.0,0.0,0.0,0.0,0.0,0.0,0.0,-3.9092,-3.8724,-3.7998,-3.7596,0.0,0.0,-3.5311,-3.5013,-3.4325,-3.3968,-3.458,0.0,0.0,0.0,0.0,0.0,0.0,0.0,0.0,0.0,0.0,0.0,0.0,0.0,0.0,0.0,0.0,0.0,0.0,0.0,0.0,0.0,0.0,0.0,0.0,0.0,0.0,0.0,0.0,0.0,0.0,0.0,0.0,0.0,0.0,0.0,0.0,0.0,0.0,0.0,0.0,0.0,0.0,0.0,0.0,0.0,0.0,0.0,0.0,0.0,0.0,0.0,0.0,0.0,-5.353,-5.3315,-5.2004,-5.1258,-5.1183,-5.0679,-5.0182,-4.9662,-4.9101,-4.8527,0.0,0.0,0.0,0.0,0.0,0.0,0.0,0.0,0.0,0.0,0.0,0.0,0.0,0.0,0.0,0.0,0.0,0.0,0.0,0.0,0.0,0.0,0.0,0.0,0.0,0.0,0.0,0.0,-4.1498,-4.1424,-4.161,0.0,0.0,0.0,0.0,0.0,0.0,0.0,0.0,0.0,0.0,-3.8724,-3.8104,-3.7572,0.0,0.0,-3.5576,-3.4569,-3.3899,-3.3304,-3.3067,-3.354,-3.3183,0.0,0.0,0.0,0.0,0.0,0.0,0.0,0.0,0.0,0.0,0.0,0.0,0.0,0.0,0.0,0.0,0.0,0.0,0.0,0.0,0.0,0.0,0.0,0.0,0.0,0.0,0.0,0.0,0.0,0.0,0.0,0.0,0.0,0.0,0.0,0.0,0.0,0.0,0.0,0.0,0.0,0.0,0.0,0.0,0.0,0.0,0.0,0.0,0.0,0.0,0.0,0.0,-5.3027,-5.2771,-5.1426,-5.0602,-5.026,-4.9599,-4.9085,-4.8564,-4.7996,-4.7433,0.0,0.0,0.0,0.0,0.0,0.0,0.0,0.0,0.0,0.0,0.0,0.0,0.0,0.0,0.0,0.0,0.0,0.0,0.0,0.0,0.0,0.0,0.0,0.0,0.0,0.0,0.0,0.0,-4.1411,-4.1411,-4.0997,0.0,0.0,0.0,0.0,0.0,0.0,0.0,0.0,0.0,0.0,-3.7548,-3.6808,-3.7036,-3.6688,-3.5333,-3.4569,-3.3685,-3.254,-3.1957,-3.1707,-3.2281,0.0,0.0,0.0,0.0,0.0,0.0,0.0,0.0,0.0,0.0,0.0,0.0,0.0,0.0,0.0,0.0,0.0,0.0,0.0,0.0,0.0,0.0,0.0,0.0,0.0,0.0,0.0,0.0,0.0,0.0,0.0,0.0,0.0,0.0,0.0,0.0,0.0,0.0,0.0,0.0,0.0,0.0,0.0,0.0,0.0,0.0,0.0,0.0,0.0,0.0,0.0,0.0,0.0,0.0,-5.1572,-5.0195,-4.915,-4.8346,-4.7981,-4.7473,-4.6652,-4.6564,-4.6329,-4.5822,0.0,0.0,0.0,0.0,0.0,0.0,0.0,0.0,0.0,0.0,0.0,0.0,0.0,0.0,0.0,0.0,0.0,0.0,0.0,0.0,0.0,0.0,0.0,0.0,0.0,0.0,-4.1211,-4.1796,-4.1471,0.0,0.0,0.0,0.0,0.0,0.0,0.0,0.0,0.0,0.0,-3.5665,-3.5576,-3.467,-3.6243,-3.6569,-3.3957,-3.3293,-3.2623,-3.1053,-2.9903,-2.944,0.0,0.0,0.0,0.0,0.0,0.0,0.0,0.0,0.0,0.0,0.0,0.0,0.0,0.0,0.0,0.0,0.0,0.0,0.0,0.0,0.0,0.0,0.0,0.0,0.0,0.0,0.0,0.0,-6.1919,0.0,0.0,0.0,0.0,0.0,0.0,0.0,0.0,0.0,0.0,0.0,-5.9698,-5.8089,0.0,0.0,0.0,0.0,0.0,0.0,0.0,0.0,0.0,0.0,0.0,0.0,-5.1711,-5.141,-4.9631,-4.8512,-4.8179,-4.7417,-4.671,-4.6211,-4.5642,-4.5489,-4.558,0.0,0.0,0.0,0.0,0.0,0.0,0.0,0.0,0.0,0.0,0.0,0.0,0.0,0.0,0.0,0.0,0.0,0.0,0.0,0.0,0.0,0.0,0.0,0.0,0.0,-4.0185,0.0,0.0,0.0,0.0,0.0,0.0,0.0,0.0,0.0,0.0,0.0,-3.6208,-3.4646,-3.4714,-3.4781,-3.4447,-3.4914,-3.4558,0.0,0.0,0.0,0.0,0.0,0.0,0.0,0.0,0.0,0.0,0.0,0.0,0.0,0.0,-2.9129,-2.8938,-2.8462,-2.8104,-2.825,0.0,0.0,0.0,0.0,0.0,0.0,0.0,0.0,0.0,0.0,0.0,0.0,0.0,0.0,0.0,0.0,-6.1459,0.0,0.0,0.0,0.0,0.0,0.0,0.0,0.0,-5.9186,-5.887,-5.9114,-5.7305,-5.6537,0.0,-5.6338,-5.5846,0.0,0.0,0.0,0.0,0.0,0.0,0.0,0.0,-5.0682,-5.0128,-4.8389,-4.7317,-4.7001,-4.6226,-4.5703,-4.5522,-4.494,-4.4783,-4.5152,-4.4541,-4.4031,0.0,0.0,0.0,0.0,0.0,0.0,0.0,0.0,0.0,0.0,0.0,0.0,0.0,0.0,0.0,0.0,0.0,0.0,0.0,0.0,0.0,0.0,0.0,-3.8871,0.0,0.0,0.0,0.0,0.0,0.0,0.0,0.0,0.0,-3.5619,-3.5449,-3.4714,-3.3132,-3.3462,-3.3663,-3.3098,0.0,0.0,0.0,0.0,0.0,0.0,0.0,-2.8984,-2.8984,-2.8984,-2.8975,-2.8865,-2.8865,-2.8975,-2.8874,0.0,0.0,-2.8388,-2.8406,-2.8295,-2.814,-2.7568,-2.6858,-2.6098,-2.5481,-2.4907,0.0,0.0,0.0,0.0,0.0,0.0,0.0,0.0,-5.9857,-5.9902,0.0,-5.992,0.0,0.0,0.0,0.0,0.0,0.0,0.0,0.0,-5.698,-5.6603,-5.652,-5.5633,-5.4792,-5.3938,-5.4782,-5.3956,-5.175,-5.2357,0.0,0.0,0.0,0.0,0.0,0.0,-4.9394,-4.776,-4.6666,-4.5703,-4.4876,-4.4597,-4.4411,-4.4397,-4.4317,-4.4223,-4.4209,-4.3081,-4.2084,-4.1591,-4.1093,0.0,0.0,0.0,0.0,0.0,0.0,0.0,0.0,0.0,0.0,0.0,0.0,0.0,0.0,0.0,0.0,0.0,0.0,0.0,0.0,-3.75,0.0,0.0,0.0,0.0,0.0,0.0,0.0,0.0,0.0,0.0,-3.4541,-3.3265,-3.1893,-3.1122,0.0,0.0,0.0,0.0,-3.2488,-2.9903,-3.0255,-3.0363,-2.9213,-2.8984,-2.8984,-2.8984,0.0,0.0,-2.8517,-2.8746,-2.8737,-2.8517,-2.8627,-2.8856,-2.8737,-2.8507,-2.8388,-2.814,-2.703,-2.6026,-2.5684,-2.4984,-2.4178,-5.706,0.0,0.0,0.0,0.0,-5.923,-5.8925,-5.8461,-5.8941,-5.9074,-5.8853,-5.9091,0.0,0.0,0.0,0.0,0.0,0.0,-5.6186,-5.5118,-5.5053,-5.4643,-5.4014,-5.383,-5.3397,-5.2602,-5.2901,-5.1812,-4.9677,-4.9677,-5.065,-5.2486,0.0,0.0,0.0,0.0,-4.8026,-4.7607,-4.6004,-4.5046,-4.4797,-4.4504,-4.4007,-4.3286,-4.2501,-4.2012,-4.1789,-4.1479,-4.0993,-4.0477,-4.0287,0.0,0.0,0.0,0.0,0.0,0.0,0.0,0.0,0.0,0.0,0.0,0.0,0.0,0.0,0.0,0.0,0.0,0.0,0.0,-3.776,-3.6584,-3.5715,0.0,0.0,0.0,0.0,0.0,0.0,0.0,0.0,0.0,-3.2199,-3.221,-3.2062,0.0,0.0,-3.1179,-3.1401,-3.1169,-3.0597,-2.9677,0.0,0.0,0.0,-2.8984,-2.8984,-2.8984,-2.8984,-2.8984,-2.8865,-2.8131,-2.7513,-2.7392,-2.6771,-2.6164,-2.6164,-2.69,-2.7306,-2.6907,-2.6125,-2.4949,-2.4077,-2.3457,-2.2702,-5.5134,-5.6771,-5.7274,-5.7364,-5.707,-5.707,-5.667,-5.5998,-5.6475,-5.6545,-5.6342,-5.6561,-5.6888,-5.7285,-5.7573,0.0,0.0,0.0,-5.4648,-5.3654,-5.3809,-5.3546,-5.3046,-5.2781,-5.2298,-5.1705,-5.2141,-5.1091,-4.8655,-4.8992,-4.9646,-5.0599,0.0,0.0,-4.9537,-4.789,-4.684,-4.6476,-4.525,-4.4612,-4.4597,-4.4101,-4.3505,-4.2792,-4.1802,-4.1106,-4.0792,-4.0287,-3.9777,-3.9469,-3.9274,-3.9506,0.0,0.0,0.0,0.0,0.0,0.0,0.0,0.0,0.0,0.0,0.0,-3.8748,0.0,0.0,0.0,0.0,-3.6491,-3.5756,-3.488,-3.4036,0.0,0.0,0.0,0.0,0.0,0.0,0.0,-3.1592,-3.077,-3.047,-3.0577,-3.0927,-3.1149,-3.1265,-3.0713,-3.0382,-3.083,0.0,-2.9686,-2.9331,-2.9331,-2.9213,-2.8984,-2.8984,-2.8856,-2.8241,-2.8728,-2.8489,-2.7504,-2.7134,-2.6771,-2.6277,-2.5415,-2.4671,-2.4186,-2.4671,-2.5317,-2.5675,-2.4881,-2.3559,-2.2145,-2.1797,-2.1348,-5.2942,-5.2999,-5.4402,-5.4681,-5.4218,-5.4218,-5.3809,-5.3206,-5.3206,-5.3206,-5.3206,-5.3206,-5.353,-5.4218,-5.4762,0.0,0.0,-5.3867,-5.3451,-5.2854,-5.2854,-5.2854,-5.2854,-5.1987,-5.1359,-5.0971,-5.2045,-5.1077,-4.8461,-4.9478,-4.9183,-4.7658,-4.7154,-4.6827,-4.674,-4.6388,-4.5703,-4.469,-4.4303,-4.4101,-4.4115,-4.3095,-4.2598,-4.2474,-4.1505,-4.0818,-4.049,-3.9262,-3.8546,-3.8546,-3.8173,-3.8092,-3.8409,0.0,0.0,0.0,0.0,0.0,0.0,0.0,0.0,0.0,0.0,0.0,0.0,0.0,0.0,0.0,-3.3054,0.0,-3.1011,-3.0868,0.0,0.0,0.0,-3.2499,-3.2385,-3.1381,-3.082,-3.0713,0.0,0.0,0.0,0.0,-2.9587,-2.9761,-2.9851,-2.9804,-2.9677,-2.9558,-2.9331,-2.9103,-2.8984,-2.8984,-2.8984,-2.8865,-2.8361,-2.7383,-2.7873,-2.7624,-2.5676,-2.5717,-2.6075,-2.4988,-2.4479,-2.3882,-2.2649,-2.2321,-2.253,-2.4207,-2.3407,-2.195,-2.0637,-2.0234,-2.0208,-5.0683,-5.0558,-5.0911,-5.1956,-5.3475,-5.3491,-5.3333,-5.3206,-5.3206,-5.3206,-5.3206,-5.3206,-5.3087,-5.2849,-5.2181,-5.1653,-5.1254,-5.0535,-5.0103,-4.9887,-4.9887,-4.9902,-4.9887,-4.9722,-4.9542,-4.9444,-4.9761,-4.9248,-4.8007,-4.7862,-4.7332,-4.644,-4.506,-4.5087,-4.6476,-4.4826,-4.3829,-4.3559,-4.2501,-4.1914,-4.1927,-4.0906,-4.03,-4.0084,-3.9,-3.8173,-3.7725,-3.7311,-3.7215,-3.7215,-3.712,-3.7536,-3.857,-3.9104,0.0,0.0,0.0,0.0,0.0,0.0,0.0,0.0,0.0,-3.5636,-3.7192,0.0,-3.4403,0.0,-3.0984,-3.0441,-3.2011,-3.1371,0.0,0.0,-3.1832,-3.1822,-3.0119,-3.0363,-3.048,-2.9558,-2.9222,-2.8984,-2.9094,-2.9103,-2.9112,-2.9231,-2.9459,-2.9785,-3.0363,-2.9667,-2.9103,-2.8984,-2.8984,-2.8984,-2.8865,-2.8122,-2.7383,-2.7021,-2.6269,-2.5391,-2.4778,-2.4011,-2.3427,-2.3069,-2.2365,-2.173,-2.1359,-2.1241,-2.1235,-2.1352,-2.1201,-2.0844,-2.0079,-2.0166,-2.0148,-4.9488,-4.9389,-4.9389,-5.008,-5.1329,-5.1514,-5.1636,-5.1606,-5.1529,-5.1436,-5.1436,-5.1329,-5.1143,-5.0892,-5.0147,-4.9805,-4.9625,-4.9178,-4.8895,-4.8895,-4.8895,-4.8895,-4.8895,-4.8895,-4.881,-4.8681,-4.8366,-4.7867,-4.7387,-4.6259,-4.5451,-4.4857,-4.3541,-4.3272,-4.4069,-4.304,-4.2682,-4.2985,-4.1815,-4.1219,-4.1132,-4.0007,-3.9494,-3.9687,-3.7713,-3.6545,-3.6414,-3.5542,-3.5542,-3.6402,-3.6414,-3.6834,-3.7666,-3.789,-3.7959,0.0,0.0,0.0,0.0,0.0,0.0,0.0,0.0,0.0,0.0,0.0,-3.1866,0.0,-2.9973,0.0,-3.1602,-3.0694,-3.002,-3.002,-3.0081,-2.9592,-2.8233,-2.8206,-2.8188,-2.8113,-2.8122,-2.8361,-2.8865,-2.8498,-2.8113,-2.8122,-2.7744,-2.8095,-2.954,-2.945,-2.8984,-2.8984,-2.8984,-2.8737,-2.825,-2.6883,-2.5644,-2.517,-2.4781,-2.412,-2.3022,-2.278,-2.2482,-2.1854,-2.1214,-2.0668,-2.0674,-2.0547,-2.0439,-2.0264,-2.033,-2.025,-1.999,-2.0142,-2.0086,-4.8467,-4.8467,-4.8453,-4.8467,-4.8467,-4.8937,-4.936,-4.9585,-4.9305,-4.9221,-4.9221,-4.9009,-4.8909,-4.8895,-4.8795,-4.8795,-4.881,-4.881,-4.881,-4.881,-4.881,-4.881,-4.881,-4.8681,-4.8495,-4.8165,-4.7308,-4.6777,-4.6438,-4.4889,-4.3782,-4.3177,-4.2228,-4.1578,-4.1246,-4.1206,-4.1492,-4.2195,-4.1319,-4.0919,-4.0831,-3.9572,-3.9158,-3.9662,-3.6668,-3.5266,-3.5572,-3.3935,-3.3823,-3.5561,-3.567,-3.579,-3.6019,-3.5997,-3.532,0.0,-3.3849,0.0,0.0,0.0,0.0,0.0,0.0,0.0,0.0,-2.8882,-2.8801,-3.0073,-2.9129,-2.8957,-3.0227,-2.9313,-2.8856,-2.8975,-2.7753,-2.7013,-2.7013,-2.579,-2.5423,-2.665,-2.6771,-2.7263,-2.8131,-2.7383,-2.6771,-2.665,-2.5912,-2.6034,-2.7882,-2.8361,-2.825,-2.8489,-2.8489,-2.7744,-2.7021,-2.5439,-2.3875,-2.3039,-2.3131,-2.3071,-2.0942,-2.1693,-2.2136,-2.1117,-2.0641,-2.0404,-2.0379,-2.0264,-2.0074,-2.0137,-2.0309,-2.0379,-2.0221,-2.0172,-1.9977,-4.6069,-4.6056,-4.6056,-4.6056,-4.6056,-4.6161,-4.7341,-4.8994,-4.8994,-4.9009,-4.9009,-4.8909,-4.8795,-4.8581,-4.8595,-4.8509,-4.8207,-4.8221,-4.8221,-4.8221,-4.8221,-4.8221,-4.8221,-4.7335,-4.6805,-4.6687,-4.5608,-4.5061,-4.5048,-4.4162,-4.3493,-4.2918,-4.1425,-4.0862,0.0,0.0,0.0,0.0,-3.9117,-3.9233,-3.9233,-3.789,-3.699,-3.686,-3.4703,0.0,-3.3283,-3.2954,-3.284,-3.3261,-3.3272,0.0,0.0,0.0,0.0,0.0,0.0,0.0,0.0,0.0,0.0,0.0,-2.8128,-2.841,-2.8901,-2.7048,-2.6219,-2.7475,-2.647,-2.6269,-2.7607,-2.7504,-2.7882,-2.8856,-2.7753,-2.7013,-2.7021,-2.579,-2.5186,-2.5301,-2.5415,-2.5423,-2.579,-2.5546,-2.5423,-2.5415,-2.5178,-2.517,-2.5668,-2.579,-2.579,-2.579,-2.566,-2.5774,-2.652,-2.4525,-2.2815,-2.2482,-2.1683,-2.1089,-2.0611,-2.055,-2.0859,-2.0472,-2.0506,-2.064,-2.0646,-2.0521,-2.0503,-2.0581,-2.0587,-2.0581,-2.0533,-2.0521,-2.046,-4.5022,0.0,-4.5022,-4.5022,0.0,-4.5022,-4.5674,-4.6764,-4.6867,-4.6881,-4.6764,-4.6764,-4.6673,-4.6569,-4.6569,-4.6465,-4.6374,-4.6374,-4.6374,-4.6374,-4.6374,-4.6269,-4.6137,-4.5595,-4.5275,-4.5035,-4.3843,-4.3305,-4.328,-4.2597,-4.1496,-4.0086,-3.9419,-3.8683,-3.7866,-3.6595,-3.6306,-3.6869,-3.663,-3.6294,-3.6174,-3.5277,-3.5024,-3.51,0.0,0.0,0.0,0.0,0.0,0.0,0.0,0.0,0.0,0.0,0.0,-2.7973,-2.7644,-2.7347,-2.6849,-2.6927,-2.6661,-2.5968,-2.5351,-2.5351,-2.5951,-2.477,-2.4286,-2.4984,-2.5032,-2.5293,-2.5912,-2.6034,-2.6277,-2.6892,-2.5904,-2.504,-2.4925,-2.3946,-2.3333,-2.3938,-2.407,-2.4309,-2.4933,-2.4432,-2.4062,-2.4062,-2.345,-2.3084,-2.3208,-2.4193,-2.4925,-2.4802,-2.4207,-2.3916,-2.4189,-2.2929,-2.1476,-2.1385,-2.0813,-2.0453,-2.0343,-2.0427,-2.0466,-2.0478,-2.0581,-2.0665,-2.0665,-2.0665,-2.0665,-2.0665,-2.0665,-2.0665,-2.0665,-2.0665,-2.0629,-4.3868,-4.3855,-4.3855,-4.3868,-4.3868,-4.3881,-4.3978,-4.41,0.0,0.0,0.0,-4.463,-4.463,-4.463,-4.463,-4.463,-4.4522,-4.4643,-4.4522,-4.4414,-4.4522,-4.4401,-4.417,-4.3939,-4.361,-4.339,-4.2188,-4.1521,-4.1281,-4.0651,-3.914,-3.7221,-3.7189,-3.6308,-3.439,-3.3856,-3.4069,-3.4847,-3.4392,-3.3946,-3.361,-3.3159,-3.3251,-3.3871,-3.1687,-3.0791,-3.1522,-2.9865,-2.9639,-3.1041,-3.0161,-2.9432,-2.9189,-2.7964,-2.6405,-2.4873,-2.4501,-2.4363,-2.4331,-2.4371,-2.4317,-2.4317,-2.3333,-2.2709,-2.2709,-2.2709,-2.2709,-2.2702,-2.3698,-2.444,-2.4687,-2.4687,-2.481,-2.4933,-2.3822,-2.3076,-2.3076,-2.1846,-2.1601,-2.2459,-2.2709,-2.3076,-2.407,-2.3325,-2.2709,-2.2584,-2.1971,-2.1142,-2.1416,-2.2885,-2.4092,-2.4045,-2.3243,-2.2531,-2.2378,-2.1451,-2.0464,-2.0482,-2.0441,-2.034,-2.0376,-2.0521,-2.0653,-2.0647,-2.0665,-2.0665,-2.0665,-2.0665,-2.0665,-2.0665,-2.0665,-2.0665,-2.0665,-2.0665,-2.0665,-4.1136,-4.0779,-4.0767,-4.1021,-4.1275,-4.1275,-4.1378,-4.1834,-4.3771,-4.463,-4.463,-4.463,-4.463,-4.463,-4.463,-4.4522,-4.4279,-4.4522,-4.4292,0.0,-4.4183,-4.4061,-4.372,-4.2737,-4.2301,-4.2188,-4.0985,-3.9943,-3.8957,-3.8732,-3.761,-3.5984,-3.5446,-3.4769,-3.3593,-3.2613,-3.1927,-3.1896,-3.3455,-3.4227,-3.4227,-3.287,-3.2292,-3.2292,-3.0315,-2.9322,-2.9422,-2.9213,-2.86,-2.7709,-2.758,-2.697,-2.5741,-2.4509,-2.3653,-2.3288,-2.2334,-2.1607,-2.1621,-2.1614,-2.1601,-2.1601,-2.1481,-2.1355,-2.1355,-2.1355,-2.1355,-2.1355,-2.1601,-2.2097,-2.3201,-2.3325,-2.3822,-2.4687,-2.3814,-2.3076,-2.2952,-2.1971,-2.1229,-2.1475,-2.1355,-2.1475,-2.172,-2.1601,-2.1475,-2.1348,-2.1389,-2.1203,-2.1498,-2.1517,-2.2097,-2.2779,-2.1876,-2.1371,-2.185,-2.1219,-2.0466,-2.0355,-2.043,-2.0581,-2.0581,-2.0623,-2.0665,-2.0665,-2.0665,-2.0665,-2.0665,-2.0665,-2.0665,-2.0665,-2.0665,-2.0665,-2.0665,-2.0665,-2.0665,-3.8257,-3.8138,-3.8138,-3.8149,-3.8268,-3.8257,-3.8376,-3.8602,-3.957,-4.1094,-4.2687,-4.2799,-4.2687,-4.2476,-4.2463,-4.2338,-4.21,-4.2213,-4.21,-4.1749,-4.1233,-4.0877,-4.0417,-3.9242,-3.8535,-3.8439,-3.7887,-3.7309,-3.6814,-3.6913,-3.6061,-3.4268,-3.3124,-3.2116,-3.1295,-3.081,-3.0353,-2.9982,-3.111,-3.1552,-3.1446,-3.0762,-3.0422,-3.0412,-2.9431,-2.8984,-2.8984,-2.825,-2.7633,-2.7013,-2.566,-2.4548,-2.3946,-2.2709,-2.1971,-2.1971,-2.1481,-2.1102,-2.1102,-2.1102,-2.1102,-2.1102,-2.1102,-2.1102,-2.1102,-2.1102,-2.1102,-2.1102,-2.1102,-2.1355,-2.1964,-2.1971,-2.2215,-2.2841,-2.2341,-2.1971,-2.1971,-2.1475,-2.1102,-2.1102,-2.1102,-2.1102,-2.1102,-2.1102,-2.1102,-2.1116,-2.1229,-2.1403,-2.155,-2.1454,-2.1357,-2.175,-2.1246,-2.0997,-2.1258,-2.0842,-2.0604,-2.049,-2.0587,-2.0659,-2.0665,-2.0665,-2.0665,-2.0665,-2.0665,-2.0665,-2.0665,-2.0665,-2.0665,-2.0665,-2.0665,-2.0665,-2.0665,-2.0665,-2.0665,-3.6184,-3.6072,-3.6061,-3.6184,-3.6173,-3.6295,-3.6306,-3.6306,-3.6295,-3.7768,-3.9954,-4.0083,-3.9966,-3.9744,-3.9744,-3.9486,-3.9239,-3.9239,-3.9239,-3.9015,-3.8138,-3.7539,-3.7188,-3.6194,-3.5592,-3.5376,-3.5387,-3.5242,-3.4995,-3.5211,-3.4359,-3.2695,-3.1152,-3.0111,-2.947,-2.9496,-2.9213,-2.8984,-2.9213,-2.9213,-2.8984,-2.8984,-2.8984,-2.8984,-2.8737,-2.8489,-2.8498,-2.7263,-2.6399,-2.6034,-2.4178,-2.2952,-2.2584,-2.172,-2.1102,-2.1102,-2.1102,-2.1102,-2.1102,-2.1102,-2.1102,-2.1102,-2.1102,-2.1102,-2.1109,-2.0849,-2.0722,-2.0976,-2.1102,-2.1102,-2.1102,-2.1102,-2.1102,-2.1102,-2.1102,-2.1102,-2.1102,-2.1102,-2.1102,-2.1102,-2.1102,-2.1102,-2.1102,-2.1102,-2.1136,-2.1243,-2.141,-2.1577,-2.173,-2.1687,-2.1421,-2.1264,-2.1123,-2.0946,-2.0488,-2.0515,-2.0641,-2.0665,-2.0665,-2.0665,-2.0665,-2.0665,-2.0665,-2.0665,-2.0665,-2.0665,-2.0665,-2.0665,-2.0665,-2.0665,-2.0665,-2.0665,-2.0665,-2.0665,-2.0665,-3.5704,-3.5489,-3.5366,-3.5592,-3.5673,-3.604,-3.604,-3.6051,-3.6173,-3.6417,-3.6528,-3.6792,-3.6781,-3.6671,-3.6792,-3.6671,-3.6417,-3.6549,-3.6438,-3.5971,-3.5949,-3.5816,-3.5612,-3.55,-3.5376,-3.5253,-3.5253,-3.4497,-3.3495,-3.3621,-3.2778,-3.115,-3.0475,-3.0033,-2.9637,-2.9278,-2.8984,-2.8984,-2.8984,-2.8984,-2.8984,-2.8984,-2.8984,-2.8984,-2.7753,-2.7142,-2.7142,-2.5912,-2.4679,-2.3566,-2.3193,-2.2591,-2.1475,-2.1102,-2.1102,-2.1102,-2.1102,-2.1102,-2.1102,-2.1102,-2.1102,-2.1102,-2.1102,-2.1102,-2.0976,-1.9941,-1.9814,-2.0716,-2.0976,-2.0976,-2.1102,-2.1109,-2.1109,-2.0982,-2.1109,-2.1102,-2.1102,-2.1102,-2.1102,-2.1102,-2.1109,-2.1102,-2.1102,-2.1129,-2.1229,-2.1436,-2.1583,-2.1797,-2.2025,-2.1923,-2.1649,-2.1537,-2.1251,-2.0804,-2.0689,-2.0641,-2.0665,-2.0665,-2.0665,-2.0665,-2.0665,-2.0665,-2.0665,-2.0665,-2.0665,-2.0665,-2.0665,-2.0665,-2.0665,-2.0665,-2.0665,-2.0665,-2.0665,-2.0665,-2.0665,-3.2171,-3.0606,-3.1414,-3.1396,-3.069,-3.0819,-3.0819,-3.0947,-3.1761,-3.1751,-3.1084,-3.1761,-3.3542,-3.5918,-3.6051,-3.5806,-3.5602,-3.5715,-3.5612,-3.5376,-3.4736,-3.4363,-3.4123,-3.3379,-3.261,-3.1944,-3.261,-3.2355,-3.1332,-3.1863,-3.1677,-3.0908,-3.0396,-2.9993,-2.958,-2.9177,-2.8984,-2.8984,-2.8984,-2.8984,-2.8856,-2.8241,-2.7873,-2.7633,-2.6529,-2.579,-2.5668,-2.4556,-2.3698,-2.3069,-2.2341,-2.172,-2.1109,-2.1102,-2.1102,-2.1102,-2.1102,-2.1102,-2.1102,-2.1102,-2.1102,-2.1102,-2.1102,-2.0982,-2.0729,-1.9553,-1.8902,-1.917,-1.9686,-2.0075,-2.0602,-2.0982,-2.0982,-2.0609,-2.0856,-2.0982,-2.0615,-2.0856,-2.0982,-2.0862,-2.0989,-2.1102,-2.1136,-2.1263,-2.141,-2.159,-2.168,-2.1892,-2.1995,-2.1752,-2.1495,-2.144,-2.0977,-2.0827,-2.0647,-2.0665,-2.0665,-2.0665,-2.0665,-2.0665,-2.0665,-2.0665,-2.0665,-2.0665,-2.0665,-2.0665,-2.0665,-2.0665,-2.0665,-2.0665,-2.0665,-2.0665,-2.0665,-2.0665,-2.0665,-2.9648,-2.7924,-2.846,-2.8056,-2.7113,-2.7121,-2.7121,-2.7246,-2.8196,-2.8056,-2.7246,-2.8188,-3.0366,-3.3126,-3.3368,-3.3262,-3.3175,-3.3175,-3.3175,-3.3049,-3.2053,-3.168,-3.1551,-3.0678,-2.9657,-2.8994,-2.9778,-2.9648,-2.8863,-2.9648,-3.0027,-2.9745,-2.9383,-2.8994,-2.8606,-2.8226,-2.7979,-2.7882,-2.7882,-2.7882,-2.7753,-2.6641,-2.6277,-2.6771,-2.5301,-2.444,-2.444,-2.3193,-2.2584,-2.2459,-2.1594,-2.1102,-2.1102,-2.1102,-2.1102,-2.1102,-2.1102,-2.1102,-2.1102,-2.1102,-2.1102,-2.1109,-2.0982,-2.0729,-1.9954,-1.8652,-1.7742,-1.7613,-1.7613,-1.7999,-1.917,-1.982,-1.9954,-1.9577,-2.0214,-2.0609,-2.0234,-2.0609,-2.0736,-2.0482,-2.0609,-2.0895,-2.0981,-2.1159,-2.1324,-2.1437,-2.1626,-2.1797,-2.1726,-2.1495,-2.1201,-2.1207,-2.0937,-2.0665,-2.0665,-2.0665,-2.0665,-2.0665,-2.0665,-2.0665,-2.0665,-2.0665,-2.0665,-2.0665,-2.0665,-2.0665,-2.0665,-2.0665,-2.0665,-2.0665,-2.0665,-2.0665,-2.0665,-2.0665,-2.0521,-2.9273,-2.9003,-2.7784,-2.6988,-2.6988,-2.698,-2.698,-2.6847,-2.7113,-2.7113,-2.6847,-2.7121,-2.7238,-2.7619,-2.7735,-2.7495,-2.7619,-2.7883,-2.8015,-2.7883,-2.7759,-2.7503,-2.7379,-2.7246,-2.7246,-2.7113,-2.7511,-2.7511,-2.7246,-2.7379,-2.7246,-2.733,-2.7108,-2.6649,-2.6423,-2.6076,-2.5506,-2.5456,-2.5423,-2.5301,-2.5178,-2.4062,-2.4556,-2.6277,-2.4548,-2.3201,-2.3084,-2.1971,-2.1229,-2.1235,-2.1109,-2.1102,-2.1102,-2.1102,-2.1102,-2.1102,-2.1102,-2.1102,-2.1102,-2.1102,-2.1109,-2.0982,-2.0602,-2.0087,-1.9042,-1.7227,-1.6188,-1.6447,-1.5019,-1.4754,-1.5918,-1.7479,-1.8133,-1.8139,-1.9188,-1.9845,-1.9979,-1.9845,-2.0106,-2.0113,-2.0259,-2.0381,-2.0598,-2.0501,-2.0918,-2.1111,-2.1321,-2.1435,-2.1652,-2.1471,-2.1069,-2.1069,-2.0937,-2.0665,-2.0665,-2.0665,-2.0665,-2.0665,-2.0665,-2.0665,-2.0665,-2.0665,-2.0665,-2.0665,-2.0665,-2.0665,-2.0665,-2.0665,-2.0665,-2.0665,-2.0665,-2.0665,-2.0665,-2.0665,-2.0243,-2.7395,-2.647,-2.4993,-2.446,-2.446,-2.446,-2.446,-2.4452,-2.5128,-2.4858,-2.431,-2.4716,-2.4573,-2.3638,-2.3781,-2.4836,-2.6706,-2.6972,-2.698,-2.6847,-2.6839,-2.6847,-2.6839,-2.6706,-2.6046,-2.5375,-2.6439,-2.6972,-2.6839,-2.6972,-2.6972,-2.6784,-2.6648,-2.63,-2.6096,-2.5755,-2.5288,-2.4972,-2.4933,-2.4933,-2.481,-2.3822,-2.3574,-2.4301,-2.2709,-2.1846,-2.1846,-2.1355,-2.1102,-2.1102,-2.1102,-2.1102,-2.1102,-2.1102,-2.1102,-2.1102,-2.1102,-2.1102,-2.1102,-2.0856,-2.0729,-2.0729,-1.9559,-1.8658,-1.7753,-1.5799,-1.4236,-1.3849,-1.2808,-1.2157,-1.2935,-1.5009,-1.6441,-1.6198,-1.684,-1.7619,-1.8145,-1.8536,-1.9054,-1.9608,-2.0118,-2.0481,-2.0604,-2.0933,-2.1124,-2.1173,-2.0525,-2.0383,-2.0888,-2.037,-1.9808,-2.0659,-2.0804,-2.0665,-2.0665,-2.0665,-2.0665,-2.0665,-2.0665,-2.0665,-2.0665,-2.0665,-2.0665,-2.0665,-2.0665,-2.0665,-2.0665,-2.0665,-2.0665,-2.0665,-2.0665,-2.0665,-2.0665,-2.0104,-1.9396,-2.5248,-2.3924,-2.3126,-2.2729,-2.2729,-2.2859,-2.2859,-2.2853,-2.3529,-2.3119,-2.2448,-2.2976,-2.2702,-2.1897,-2.1766,-2.2839,-2.4836,-2.5241,-2.5241,-2.5106,-2.5106,-2.5106,-2.5106,-2.5106,-2.4445,-2.3509,-2.4573,-2.5241,-2.5106,-2.5375,-2.5375,-2.5219,-2.5152,-2.5024,-2.484,-2.4389,-2.4067,-2.3916,-2.3766,-2.3705,-2.3574,-2.2959,-2.2459,-2.2341,-2.1601,-2.1102,-2.1102,-2.1102,-2.1102,-2.1102,-2.1102,-2.1102,-2.1102,-2.0676,-2.067,-2.0963,-2.067,-2.0423,-2.0329,-2.0081,-1.9693,-1.9176,-1.8005,-1.6974,-1.6198,-1.4371,-1.307,-1.2161,-1.1376,-1.0721,-1.1111,-1.2804,-1.4241,-1.425,-1.5024,-1.5799,-1.6198,-1.6721,-1.754,-1.8565,-1.9167,-1.982,-2.0622,-2.0822,-2.0965,-2.1052,-1.9842,-1.9373,-1.9808,-1.939,-1.8686,-1.9814,-2.0388,-2.0665,-2.0665,-2.0665,-2.0665,-2.0665,-2.0665,-2.0665,-2.0665,-2.0665,-2.0665,-2.0665,-2.0665,-2.0665,-2.0665,-2.0665,-2.0665,-2.0665,-2.0665,-2.0527,-1.9959,-1.9117,-1.8126,-2.2969,-2.1897,-2.2179,-2.2317,-2.2304,-2.2722,-2.2585,-2.231,-2.2304,-2.2173,-2.1766,-2.1897,-2.176,-2.1766,-2.1628,-2.1622,-2.1753,-2.216,-2.2304,-2.2166,-2.2173,-2.2173,-2.2166,-2.2297,-2.2304,-2.2035,-2.1904,-2.2035,-2.2166,-2.2572,-2.2709,-2.2441,-2.2689,-2.2774,-2.2398,-2.2098,-2.17,-2.1788,-2.1651,-2.1382,-2.1102,-2.1102,-2.1096,-2.1102,-2.0849,-2.0716,-2.0849,-2.0976,-2.0976,-2.0849,-2.0976,-2.1109,-2.0569,-1.9694,-1.9549,-2.029,-1.9701,-1.906,-1.889,-1.8646,-1.7865,-1.6964,-1.5799,-1.5024,-1.4241,-1.3206,-1.2293,-1.1508,-1.0982,-1.0721,-1.0721,-1.1111,-1.1637,-1.2684,-1.3857,-1.4516,-1.4796,-1.4926,-1.5526,-1.7076,-1.77,-1.8463,-1.977,-2.0446,-2.0543,-2.0425,-1.9228,-1.8401,-1.8686,-1.8406,-1.8266,-1.8832,-1.982,-2.0665,-2.0665,-2.0665,-2.0665,-2.0665,-2.0665,-2.0665,-2.0665,-2.0665,-2.0665,-2.0665,-2.0665,-2.0665,-2.0665,-2.0665,-2.0665,-2.0665,-2.0527,-2.0243,-1.9256,-1.8266,-1.671,-2.034,-2.0352,-2.1477,-2.1904,-2.1904,-2.2042,-2.2042,-2.1904,-2.1628,-2.1484,-2.1352,-2.1075,-2.1087,-2.1081,-2.1081,-2.0943,-2.0804,-2.0943,-2.122,-2.1352,-2.1352,-2.1352,-2.1352,-2.1346,-2.149,-2.1766,-2.149,-2.1352,-2.149,-2.1766,-2.1904,-2.1622,-2.1897,-2.1887,-2.1629,-2.1648,-2.166,-2.1208,-2.1334,-2.1323,-2.1009,-2.0075,-1.9686,-1.9559,-1.8786,-1.8267,-1.839,-2.0075,-2.0075,-1.8524,-1.917,-1.9297,-1.8361,-1.7828,-1.7822,-1.8104,-1.7597,-1.7189,-1.7082,-1.6705,-1.6188,-1.5539,-1.4376,-1.3595,-1.3075,-1.2029,-1.1247,-1.085,-1.0717,-1.0721,-1.0721,-1.0721,-1.0993,-1.1376,-1.1769,-1.2612,-1.3519,-1.4432,-1.5418,-1.6138,-1.7203,-1.8172,-1.8921,-1.9692,-2.0419,-2.0358,-1.8546,-1.7127,-1.7981,-1.7268,-1.7409,-1.8266,-1.9535,-2.0243,-1.9959,-1.9959,-2.0243,-2.0382,-2.0527,-2.0665,-2.0665,-2.0665,-2.0665,-2.0665,-2.0665,-2.0665,-2.0665,-2.0665,-2.0665,-2.0665,-2.0665,-1.982,-1.8692,-1.7414,-1.5999,-1.8105,-1.8379,-1.9362,-1.9924,-1.9924,-2.0069,-2.0352,-2.0641,-2.0503,-2.0647,-2.0937,-2.0804,-2.0665,-2.0665,-2.0665,-2.0665,-2.0665,-2.0665,-2.0804,-2.0943,-2.1075,-2.1075,-2.1075,-2.1075,-2.1081,-2.1352,-2.1081,-2.1075,-2.1075,-2.1352,-2.1484,-2.1352,-2.149,-2.1546,-2.1493,-2.152,-2.1277,-2.1108,-2.0704,-2.0383,-1.9898,-1.8794,-1.809,-1.7759,-1.7361,-1.6716,-1.6328,-1.8262,-1.878,-1.7496,-1.7876,-1.7748,-1.6824,-1.6429,-1.6146,-1.6415,-1.5834,-1.5453,-1.5414,-1.5019,-1.4371,-1.3722,-1.268,-1.2029,-1.1901,-1.1115,-1.0717,-1.0721,-1.0721,-1.0744,-1.0792,-1.0806,-1.0826,-1.0884,-1.0839,-1.1273,-1.2349,-1.3199,-1.4151,-1.4822,-1.5742,-1.6987,-1.8229,-1.9117,-1.9831,-1.9413,-1.77,-1.5853,-1.6564,-1.5858,-1.6282,-1.6846,-1.7689,-1.8256,-1.8821,-1.9245,-1.9675,-1.9959,-2.0243,-2.0527,-2.0665,-2.0665,-2.0665,-2.0665,-2.0665,-2.0665,-2.0665,-2.0665,-2.0665,-2.0665,-2.0533,-1.939,-1.8261,-1.7127,-1.5571,-1.599,-1.599,-1.6545,-1.6821,-1.6967,-1.7253,-1.7959,-1.8675,-1.8815,-1.9245,-2.0098,-1.9959,-2.0098,-2.0243,-2.0098,-2.0382,-2.0527,-2.0665,-2.0671,-2.0665,-2.0804,-2.0804,-2.0804,-2.0804,-2.0804,-2.0804,-2.0804,-2.0665,-2.081,-2.1081,-2.1214,-2.122,-2.1214,-2.1346,-2.1415,-2.109,-2.0959,-2.0699,-1.9557,-1.8783,-1.8416,-1.7208,-1.6465,-1.5874,-1.615,-1.5768,-1.4866,-1.5879,-1.6748,-1.6726,-1.6586,-1.6193,-1.5913,-1.4923,-1.4669,-1.5274,-1.4318,-1.3779,-1.3604,-1.3325,-1.2676,-1.1637,-1.1244,-1.0721,-1.085,-1.0881,-1.0761,-1.0761,-1.0775,-1.0826,-1.0931,-1.0958,-1.1019,-1.1128,-1.1063,-1.12,-1.1165,-1.1591,-1.2381,-1.3384,-1.3911,-1.4875,-1.7444,-1.7991,-1.8282,-1.8002,-1.6851,-1.5575,-1.4729,-1.4449,-1.4022,-1.4867,-1.6136,-1.6841,-1.7544,-1.783,-1.8256,-1.8401,-1.8966,-1.9675,-2.0382,-2.0665,-2.0665,-2.0665,-2.0665,-2.0665,-2.0665,-2.0665,-2.069,-2.0714,-1.9994,-1.8971,-1.7845,-1.6588,-1.5008,-1.4156,-1.4583,-1.5561,-1.5985,-1.6268,-1.6409,-1.6549,-1.6836,-1.6836,-1.7122,-1.7404,-1.7263,-1.7544,-1.7398,-1.8541,-1.8971,-1.9251,-2.0098,-2.0665,-2.0665,-2.0665,-2.0665,-2.0665,-2.0665,-2.0665,-2.0665,-2.0665,-2.0665,-2.0671,-2.0665,-2.0804,-2.0804,-2.0659,-2.0798,-2.0924,-2.0851,-2.0299,-1.9443,-1.9084,-1.8085,-1.6939,-1.5832,-1.5139,-1.4688,-1.427,-1.3739,-1.3197,-1.3482,-1.4262,-1.4912,-1.3993,-1.3346,-1.3218,-1.2816,-1.2824,-1.2848,-1.2468,-1.1943,-1.192,-1.1648,-1.1251,-1.0982,-1.0751,-1.0721,-1.0724,-1.0829,-1.0877,-1.0907,-1.0975,-1.1053,-1.1097,-1.1111,-1.1182,-1.1297,-1.1284,-1.128,-1.1341,-1.1463,-1.1701,-1.2126,-1.3147,-1.4298,-1.5155,-1.6136,-1.67,-1.6404,-1.5561,-1.4441,-1.3737,-1.3599,-1.3456,-1.416,-1.5146,-1.5849,-1.6272,-1.6554,-1.67,-1.67,-1.7268,-1.8256,-1.9529,-2.0665,-2.0665,-2.0665,-2.0665,-2.0665,-2.0671,-2.0671,-2.0708,-2.0174,-1.9296,-1.8131,-1.7208,-1.6098,-1.4189,-1.2312,-1.2452,-1.3155,-1.3579,-1.3721,-1.3868,-1.4294,-1.4862,-1.5146,-1.5566,-1.599,-1.6131,-1.6131,-1.6272,-1.6987,-1.7409,-1.7549,-1.8396,-1.8675,-1.8681,-1.8681,-1.9384,-2.0237,-2.0665,-2.0665,-2.0665,-2.0665,-2.0665,-2.0527,-2.0104,-1.9814,-1.9535,-1.9105,-1.8821,-1.8675,-1.8949,-1.861,-1.7513,-1.72,-1.6263,-1.5243,-1.4139,-1.3401,-1.3093,-1.267,-1.254,-1.2521,-1.2441,-1.2716,-1.3099,-1.2616,-1.1943,-1.1747,-1.1643,-1.1669,-1.1574,-1.1354,-1.1236,-1.1184,-1.1039,-1.0907,-1.0907,-1.0907,-1.0904,-1.0924,-1.0995,-1.1036,-1.1053,-1.1121,-1.1185,-1.126,-1.1311,-1.1389,-1.1467,-1.1487,-1.1487,-1.1487,-1.1562,-1.1609,-1.176,-1.2327,-1.3329,-1.3757,-1.4738,-1.5013,-1.5022,-1.4595,-1.3745,-1.3035,-1.3031,-1.3031,-1.3456,-1.3595,-1.4018,-1.4445,-1.4725,-1.515,-1.515,-1.6136,-1.6982,-1.8261,-1.982,-2.0382,-2.0521,-2.0527,-2.0527,-2.0243,-1.9825,-1.9273,-1.8719,-1.7996,-1.7163,-1.6074,-1.5248,-1.3344,-1.075,-1.0455,-1.0455,-1.0455,-1.0743,-1.0894,-1.189,-1.2881,-1.3305,-1.4156,-1.5,-1.5425,-1.5141,-1.5707,-1.5571,-1.5849,-1.5849,-1.6413,-1.6413,-1.6554,-1.6695,-1.7684,-1.9529,-2.0098,-2.0382,-2.0665,-2.0665,-2.0527,-2.0104,-1.8977,-1.8406,-1.7981,-1.6841,-1.6272,-1.6695,-1.6413,-1.6131,-1.5689,-1.4973,-1.4206,-1.3524,-1.2807,-1.2201,-1.1838,-1.2099,-1.2234,-1.2215,-1.2164,-1.2224,-1.1954,-1.1784,-1.1669,-1.1507,-1.141,-1.146,-1.1258,-1.1179,-1.1199,-1.1165,-1.1118,-1.1141,-1.1124,-1.1131,-1.1162,-1.1134,-1.1155,-1.1189,-1.1189,-1.1199,-1.1301,-1.1399,-1.1531,-1.1572,-1.1589,-1.1603,-1.1613,-1.1616,-1.1616,-1.1616,-1.1616,-1.1619,-1.2359,-1.3092,-1.3654,-1.3622,-1.3619,-1.3337,-1.29,-1.2327,-1.2183,-1.2183,-1.2183,-1.204,-1.19,-1.2327,-1.2896,-1.3317,-1.3737,-1.4862,-1.5995,-1.6846,-1.8261,-1.9529,-2.0098,-1.9692,-1.9267,-1.8971,-1.8412,-1.7705,-1.7308,-1.6749,-1.5607,-1.447,-1.3916,-1.261,-1.0311,-1.0455,-1.0164,-1.0167,-1.0455,-1.0603,-1.0743,-1.1168,-1.1168,-1.1743,-1.2033,-1.2176,-1.2459,-1.2753,-1.388,-1.4303,-1.4583,-1.5287,-1.6131,-1.6131,-1.6131,-1.6272,-1.7404,-1.8261,-1.9535,-2.0104,-2.0665,-1.9959,-1.8977,-1.8266,-1.7695,-1.6554,-1.6136,-1.599,-1.599,-1.5707,-1.5429,-1.4587,-1.4022,-1.3159,-1.2423,-1.2123,-1.1823,-1.1636,-1.1924,-1.1938,-1.1778,-1.197,-1.1888,-1.1685,-1.1576,-1.1639,-1.1389,-1.1262,-1.1293,-1.1331,-1.1202,-1.1202,-1.1175,-1.1189,-1.1168,-1.1192,-1.1202,-1.1162,-1.1172,-1.1287,-1.1335,-1.1365,-1.145,-1.1504,-1.1548,-1.1592,-1.1616,-1.1616,-1.1616,-1.1616,-1.1616,-1.1616,-1.1616,-1.1616,-1.1616,-1.1767,-1.2065,-1.2205,-1.2194,-1.2065,-1.2061,-1.1907,-1.176,-1.1616,-1.1616,-1.1616,-1.1616,-1.1616,-1.176,-1.2187,-1.247,-1.2753,-1.3737,-1.4298,-1.5292,-1.6141,-1.7268,-1.7991,-1.8444,-1.8007,-1.7559,-1.654,-1.5689,-1.5593,-1.5203,-1.4193,-1.3182,-1.261,-1.2323,-0.9879,-0.9879,-0.9738,-0.9735,-1.0023,-1.0167,-1.0167,-1.0311,-1.0455,-1.0603,-1.075,-1.075,-1.1038,-1.1332,-1.218,-1.2606,-1.2892,-1.3599,-1.4018,-1.3876,-1.4018,-1.4298,-1.5146,-1.5858,-1.6992,-1.8396,-1.8535,-1.7975,-1.7414,-1.6705,-1.5717,-1.5004,-1.4445,-1.388,-1.4018,-1.4018,-1.3599,-1.3035,-1.2749,-1.2327,-1.1763,-1.1763,-1.1907,-1.1619,-1.1763,-1.1767,-1.1599,-1.1688,-1.1646,-1.1619,-1.1557,-1.1618,-1.142,-1.1274,-1.1301,-1.1365,-1.1375,-1.1375,-1.1379,-1.1375,-1.1385,-1.1369,-1.1372,-1.1379,-1.1385,-1.146,-1.1491,-1.1514,-1.1562,-1.1616,-1.1616,-1.1616,-1.1616,-1.1616,-1.1616,-1.1616,-1.1616,-1.1616,-1.1616,-1.1616,-1.1616,-1.1616,-1.1616,-1.1616,-1.1619,-1.1914,-1.1914,-1.176,-1.176,-1.1616,-1.1616,-1.1616,-1.1616,-1.1616,-1.1616,-1.176,-1.176,-1.2043,-1.247,-1.2753,-1.3178,-1.388,-1.4725,-1.573,-1.6875,-1.6442,-1.5853,-1.4694,-1.3985,-1.3456,-1.305,-1.233,-1.2043,-1.2043,-1.19,-0.9593,-0.9304,-0.9304,-0.9304,-0.9304,-0.9738,-0.9735,-0.9879,-1.0167,-1.0311,-1.0455,-1.0455,-1.0603,-1.0897,-1.1044,-1.1329,-1.1616,-1.176,-1.2183,-1.204,-1.2183,-1.2606,-1.3456,-1.388,-1.4303,-1.5425,-1.6272,-1.6277,-1.5571,-1.4583,-1.4164,-1.3456,-1.247,-1.2183,-1.176,-1.1616,-1.19,-1.19,-1.1903,-1.176,-1.1619,-1.1619,-1.1619,-1.1619,-1.1619,-1.1619,-1.1616,-1.1603,-1.1606,-1.1616,-1.1616,-1.1548,-1.1467,-1.1433,-1.1474,-1.1603,-1.1579,-1.1565,-1.1558,-1.1582,-1.1589,-1.1616,-1.1606,-1.1606,-1.1603,-1.1589,-1.1592,-1.1603,-1.1616,-1.1616,-1.1616,-1.1616,-1.1616,-1.1616,-1.1616,-1.1616,-1.1616,-1.1616,-1.1616,-1.1616,-1.1616,-1.1616,-1.1616,-1.1616,-1.1616,-1.1616,-1.1616,-1.1616,-1.1616,-1.1616,-1.1616,-1.1616,-1.1616,-1.1616,-1.1616,-1.1616,-1.1616,-1.1616,-1.1763,-1.176,-1.1903,-1.2466,-1.3456,-1.4725,-1.5296,-1.4871,-1.4307,-1.3729,-1.2881,-1.19,-1.1616,-1.176,-1.176,-1.1616,-1.1616,-0.9304,-0.9304,-0.9304,-0.9302,-0.9302,-0.9302,-0.9441,-0.9449,-0.9588,-0.9738,-1.0023,-1.0023,-1.0167,-1.0606,-1.09,-1.1188,-1.1476,-1.1619,-1.1616,-1.1616,-1.1616,-1.19,-1.204,-1.2327,-1.2323,-1.3031,-1.4445,-1.5146,-1.4445,-1.4022,-1.3174,-1.2187,-1.176,-1.1616,-1.1616,-1.1616,-1.1616,-1.1616,-1.1616,-1.1616,-1.1616,-1.1616,-1.1616,-1.1616,-1.1616,-1.1616,-1.1616,-1.1616,-1.1616,-1.1616,-1.1616,-1.1603,-1.1572,-1.1565,-1.1586,-1.1609,-1.1616,-1.1616,-1.1616,-1.1616,-1.1616,-1.1616,-1.1616,-1.1616,-1.1616,-1.1616,-1.1616,-1.1616,-1.1616,-1.1616,-1.1616,-1.1616,-1.1616,-1.1616,-1.1616,-1.1616,-1.1616,-1.1616,-1.1616,-1.1616,-1.1616,-1.1616,-1.1616,-1.1616,-1.1616,-1.1616,-1.1616,-1.1616,-1.1616,-1.1616,-1.1616,-1.1616,-1.1616,-1.1616,-1.1616,-1.1616,-1.1616,-1.1616,-1.1616,-1.1619,-1.1616,-1.1616,-1.2466,-1.3599,-1.3737,-1.3174,-1.2749,-1.261,-1.2327,-1.1616,-1.1616,-1.1616,-1.1616,-1.1616,-1.1616,-0.9304,-0.9299,-0.9242,-0.9215,-0.9217,-0.9217,-0.9217,-0.9228,-0.9277,-0.9449,-0.9593,-0.9593,-0.9735,-1.017,-1.0317,-1.0753,-1.1188,-1.1476,-1.1619,-1.1616,-1.1616,-1.1616,-1.1616,-1.1616,-1.1616,-1.2043,-1.3031,-1.3595,-1.2753,-1.2753,-1.2327,-1.19,-1.1616,-1.1616,-1.1616,-1.1616,-1.1616,-1.1616,-1.1616,-1.1616,-1.1616,-1.1616,-1.1616,-1.1616,-1.1616,-1.1616,-1.1616,-1.1616,-1.1616,-1.1616,-1.1616,-1.1616,-1.1616,-1.1616,-1.1616,-1.1616,-1.1616,-1.1616,-1.1616,-1.1616,-1.1616,-1.1616,-1.1616,-1.1616,-1.1616,-1.1616,-1.1616,-1.1616,-1.1616,-1.1616,-1.1616,-1.1616,-1.1616,-1.1616,-1.1616,-1.1616,-1.1616,-1.1616,-1.1616,-1.1616,-1.1616,-1.1616,-1.1616,-1.1616,-1.1616,-1.1616,-1.1616,-1.1616,-1.1616,-1.1616,-1.1616,-1.1616,-1.1616,-1.1616,-1.1616,-1.1616,-1.1616,-1.1616,-1.1616,-1.1616,-1.1616,-1.1616,-1.176,-1.247,-1.2187,-1.204,-1.2043,-1.2043,-1.176,-1.1616,-1.1616,-1.1616,-1.1616,-1.1616,-1.1616,-0.9291,-0.9264,-0.9174,-0.912,-0.9103,-0.9125,-0.9139,-0.9158,-0.9258,-0.9304,-0.9304,-0.9304,-0.9449,-0.9735,-1.0026,-1.0462,-1.1041,-1.1476,-1.1619,-1.1616,-1.1616,-1.1616,-1.1616,-1.1616,-1.1616,-1.1616,-1.176,-1.1616,-1.176,-1.176,-1.1616,-1.1616,-1.1616,-1.1616,-1.1616,-1.1616,-1.1616,-1.1616,-1.1616,-1.1616,-1.1616,-1.1616,-1.1616,-1.1616,-1.1616,-1.1616,-1.1616,-1.1616,-1.1616,-1.1616,-1.1616,-1.1616,-1.1616,-1.1616,-1.1616,-1.1616,-1.1616,-1.1616,-1.1616,-1.1616,-1.1616,-1.1616,-1.1616,-1.1616,-1.1616,-1.1616,-1.1616,-1.1616,-1.1616,-1.1616,-1.1616,-1.1616,-1.1616,-1.1616,-1.1616,-1.1616,-1.1616,-1.1616,-1.1616,-1.1616,-1.1616,-1.1616,-1.1616,-1.1616,-1.1616,-1.1616,-1.1616,-1.1616,-1.1616,-1.1616,-1.1616,-1.1616,-1.1616,-1.1616,-1.1616,-1.1616,-1.1616,-1.1616,-1.1616,-1.1616,-1.1616,-1.1616,-1.176,-1.1903,-1.176,-1.176,-1.1616,-1.1616,-1.1616,-1.1616,-1.1616,-1.1616,-1.1616,-1.1616,-1.1616,-0.9245,-0.9155,-0.9139,-0.9071,-0.8997,-0.9084,-0.913,-0.9144,-0.925,-0.9302,-0.9304,-0.9302,-0.9304,-0.9446,-1.002,-1.0603,-1.0897,-1.1332,-1.1619,-1.1619,-1.1616,-1.1616,-1.1616,-1.1616,-1.1616,-1.1616,-1.1616,-1.1616,-1.1616,-1.1616,-1.1616,-1.1616,-1.1616,-1.1616,-1.1616,-1.1616,-1.1616,-1.1616,-1.1616,-1.1616,-1.1616,-1.1616,-1.1616,-1.1616,-1.1616,-1.1616,-1.1616,-1.1616,-1.1616,-1.1616,-1.1616,-1.1616,-1.1616,-1.1616,-1.1616,-1.1616,-1.1616,-1.1616,-1.1616,-1.1616,-1.1616,-1.1616,-1.1616,-1.1616,-1.1616,-1.1616,-1.1616,-1.1616,-1.1616,-1.1616,-1.1616,-1.1616,-1.1616,-1.1616,-1.1616,-1.1616,-1.1616,-1.1616,-1.1616,-1.1616,-1.1616,-1.1616,-1.1616,-1.1616,-1.1616,-1.1616,-1.1616,-1.1616,-1.1616,-1.1616,-1.1616,-1.1616,-1.1616,-1.1616,-1.1616,-1.1616,-1.1616,-1.1616,-1.1616,-1.1616,-1.1616,-1.1616,-1.1616,-1.1616,-1.1616,-1.1616,-1.1616,-1.1616,-1.1616,-1.1616,-1.1616,-1.1616,-1.1616,-1.1616,-1.1616,-0.9179,-0.9122,-0.8984,-0.8897,-0.8867,-0.8978,-0.903,-0.9068,-0.9223,-0.9304,-0.9304,-0.9302,-0.8866,-0.843,-0.9441,-0.9876,-0.9729,-1.0603,-1.1332,-1.1476,-1.1616,-1.1616,-1.1616,-1.1616,-1.1616,-1.1616,-1.1616,-1.1616,-1.1616,-1.1616,-1.1616,-1.1616,-1.1616,-1.1616,-1.1616,-1.1616,-1.1616,-1.1616,-1.1616,-1.1616,-1.1616,-1.1616,-1.1616,-1.1616,-1.1616,-1.1616,-1.1616,-1.1616,-1.1616,-1.1616,-1.1616,-1.1616,-1.1616,-1.1616,-1.1616,-1.1616,-1.1616,-1.1616,-1.1616,-1.1616,-1.1616,-1.1616,-1.1616,-1.1616,-1.1616,-1.1616,-1.1616,-1.1616,-1.1616,-1.1616,-1.1616,-1.1616,-1.1616,-1.1616,-1.1616,-1.1616,-1.1616,-1.1616,-1.1616,-1.1616,-1.1616,-1.1616,-1.1616,-1.1616,-1.1616,-1.1616,-1.1616,-1.1616,-1.1616,-1.1616,-1.1616,-1.1616,-1.1616,-1.1616,-1.1616,-1.1616,-1.1616,-1.1616,-1.1616,-1.1616,-1.1616,-1.1616,-1.1616,-1.1616,-1.1616,-1.1616,-1.1616,-1.1616,-1.1616,-1.1616,-1.1616,-1.1616,-1.1616,-1.1616,-1.1616,-0.7936,-0.8036,-0.8568,-0.8753,-0.8742,-0.8886,-0.8954,-0.8984,-0.9204,-0.9304,-0.9304,-0.9302,-0.8432,-0.7704,-0.8863,-0.9296,-0.8131,-0.9732,-1.075,-1.1185,-1.1185,-1.1185,-1.1472,-1.1616,-1.1616,-1.1616,-1.1616,-1.1616,-1.1616,-1.1616,-1.1616,-1.1616,-1.1616,-1.1616,-1.1616,-1.1616,-1.1616,-1.1616,-1.1616,-1.1616,-1.1616,-1.1616,-1.1616,-1.1616,-1.1616,-1.1616,-1.1616,-1.1616,-1.1616,-1.1616,-1.1616,-1.1616,-1.1616,-1.1616,-1.1616,-1.1616,-1.1616,-1.1616,-1.1616,-1.1616,-1.1616,-1.1616,-1.1616,-1.1616,-1.1616,-1.1616,-1.1616,-1.1616,-1.1616,-1.1616,-1.1616,-1.1616,-1.1616,-1.1616,-1.1616,-1.1616,-1.1616,-1.1616,-1.1616,-1.1616,-1.1616,-1.1616,-1.1616,-1.1616,-1.1616,-1.1616,-1.1616,-1.1616,-1.1616,-1.1616,-1.1616,-1.1616,-1.1616,-1.1616,-1.1616,-1.1616,-1.1616,-1.1616,-1.1616,-1.1616,-1.1616,-1.1616,-1.1616,-1.1616,-1.1616,-1.1616,-1.1616,-1.1616,-1.1616,-1.1616,-1.1616,-1.1616,-1.1616,-1.1616,-1.1616,-0.4865,-0.5084,-0.7676,-0.8566,-0.8488,-0.8853,-0.8809,-0.8692,-0.9056,-0.901,-0.8866,-0.9013,-0.7993,-0.7557,-0.8136,-0.8569,-0.7553,-0.8425,-0.9585,-1.0164,-1.0164,-1.0455,-1.1038,-1.1619,-1.1616,-1.1616,-1.1616,-1.1616,-1.1616,-1.1616,-1.1616,-1.1616,-1.1616,-1.1616,-1.1616,-1.1616,-1.1616,-1.1616,-1.1616,-1.1616,-1.1616,-1.1616,-1.1616,-1.1616,-1.1616,-1.1616,-1.1616,-1.1616,-1.1616,-1.1616,-1.1616,-1.1616,-1.1616,-1.1616,-1.1616,-1.1616,-1.1616,-1.1616,-1.1616,-1.1616,-1.1616,-1.1616,-1.1616,-1.1616,-1.1616,-1.1616,-1.1616,-1.1616,-1.1616,-1.1616,-1.1616,-1.1616,-1.1616,-1.1616,-1.1616,-1.1616,-1.1616,-1.1616,-1.1616,-1.1616,-1.1616,-1.1616,-1.1616,-1.1616,-1.1616,-1.1616,-1.1616,-1.1616,-1.1616,-1.1616,-1.1616,-1.1616,-1.1616,-1.1616,-1.1616,-1.1616,-1.1616,-1.1616,-1.1616,-1.1616,-1.1616,-1.1616,-1.1616,-1.1616,-1.1616,-1.1616,-1.1616,-1.1616,-1.1616,-1.1616,-1.1616,-1.1616,-1.1616,-1.1616,-1.1616,-0.4521,-0.4465,-0.5545,-0.593,-0.6049,-0.7184,-0.7548,-0.7583,-0.7759,-0.7268,-0.6543,-0.6398,-0.5672,-0.4943,-0.567,-0.5958,-0.5085,-0.6103,-0.7695,-0.8853,-0.9144,-0.987,-1.0746,-1.1476,-1.1332,-1.1472,-1.1616,-1.1616,-1.1616,-1.1616,-1.1616,-1.1616,-1.1616,-1.1616,-1.1616,-1.1616,-1.1616,-1.1616,-1.1616,-1.1616,-1.1616,-1.1616,-1.1616,-1.1616,-1.1616,-1.1616,-1.1616,-1.1616,-1.1616,-1.1616,-1.1616,-1.1616,-1.1616,-1.1616,-1.1616,-1.1616,-1.1616,-1.1616,-1.1616,-1.1616,-1.1616,-1.1616,-1.1616,-1.1616,-1.1616,-1.1616,-1.1616,-1.1616,-1.1616,-1.1616,-1.1616,-1.1616,-1.1616,-1.1616,-1.1616,-1.1616,-1.1616,-1.1616,-1.1616,-1.1616,-1.1616,-1.1616,-1.1616,-1.1616,-1.1616,-1.1616,-1.1616,-1.1616,-1.1616,-1.1616,-1.1616,-1.1616,-1.1616,-1.1616,-1.1616,-1.1616,-1.1616,-1.1616,-1.1616,-1.1616,-1.1616,-1.1616,-1.1616,-1.1616,-1.1616,-1.1616,-1.1616,-1.1616,-1.1616,-1.1616,-1.1616,-1.1616,-1.1616,-1.1616,-1.1616,-0.3127,-0.2956,-0.2953,-0.349,-0.4444,-0.5663,-0.6148,-0.6179,-0.6182,-0.5818,-0.4657,-0.4657,-0.3784,-0.3057,-0.3929,-0.4074,-0.3491,-0.4217,-0.6101,-0.7261,-0.8131,-0.9291,-1.0603,-1.1332,-1.1476,-1.1616,-1.1616,-1.1616,-1.1616,-1.1616,-1.1616,-1.1616,-1.1616,-1.1616,-1.1616,-1.1616,-1.1616,-1.1616,-1.1616,-1.1616,-1.1616,-1.1616,-1.1616,-1.1616,-1.1616,-1.1616,-1.1616,-1.1616,-1.1616,-1.1616,-1.1616,-1.1616,-1.1616,-1.1616,-1.1616,-1.1616,-1.1616,-1.1616,-1.1616,-1.1616,-1.1616,-1.1616,-1.1616,-1.1616,-1.1616,-1.1616,-1.1616,-1.1616,-1.1616,-1.1616,-1.1616,-1.1616,-1.1616,-1.1616,-1.1616,-1.1616,-1.1616,-1.1616,-1.1616,-1.1616,-1.1616,-1.1616,-1.1616,-1.1616,-1.1616,-1.1616,-1.1616,-1.1616,-1.1616,-1.1616,-1.1616,-1.1616,-1.1616,-1.1616,-1.1616,-1.1616,-1.1616,-1.1616,-1.1616,-1.1616,-1.1616,-1.1616,-1.1616,-1.1616,-1.1616,-1.1616,-1.1616,-1.1616,-1.1616,-1.1616,-1.1616,-1.1616,-1.1616,-1.1616,-1.1616,0.0,-0.0135,0.0,-0.1747,-0.3908,-0.4424,-0.4477,-0.4639,-0.4747,-0.4511,-0.4221,-0.4221,-0.3494,-0.2621,-0.3348,-0.3057,-0.2329,-0.2766,-0.4364,-0.6391,-0.6827,-0.8278,-1.0023,-1.1185,-1.1476,-1.1616,-1.1616,-1.1616,-1.1616,-1.1616,-1.1616,-1.1616,-1.1616,-1.1616,-1.1616,-1.1616,-1.1616,-1.1616,-1.1616,-1.1616,-1.1616,-1.1616,-1.1616,-1.1616,-1.1616,-1.1616,-1.1616,-1.1616,-1.1616,-1.1616,-1.1616,-1.1616,-1.1616,-1.1616,-1.1616,-1.1616,-1.1616,-1.1616,-1.1616,-1.1616,-1.1616,-1.1616,-1.1616,-1.1616,-1.1616,-1.1616,-1.1616,-1.1616,-1.1616,-1.1616,-1.1616,-1.1616,-1.1616,-1.1616,-1.1616,-1.1616,-1.1616,-1.1616,-1.1616,-1.1616,-1.1616,-1.1616,-1.1616,-1.1616,-1.1616,-1.1616,-1.1616,-1.1616,-1.1616,-1.1616,-1.1616,-1.1616,-1.1616,-1.1616,-1.1616,-1.1616,-1.1616,-1.1616,-1.1616,-1.1616,-1.1616,-1.1616,-1.1616,-1.1616,-1.1616,-1.1616,-1.1616,-1.1616,-1.1616,-1.1616,-1.1616,-1.1616,-1.1616,-1.1616,-1.1616,0.0,0.0,0.0,-0.0541,-0.1502,-0.2638,-0.3092,-0.3125,-0.3031,-0.2622,-0.1749,-0.1603,-0.1458,-0.1166,0.0,0.0,0.0,-0.0875,-0.2475,-0.436,-0.5232,-0.7259,-0.9147,-1.0603,-1.1332,-1.1476,-1.1616,-1.1616,-1.1616,-1.1616,-1.1616,-1.1616,-1.1616,-1.1616,-1.1616,-1.1616,-1.1616,-1.1616,-1.1616,-1.1616,-1.1616,-1.1616,-1.1616,-1.1616,-1.1616,-1.1616,-1.1616,-1.1616,-1.1616,-1.1616,-1.1616,-1.1616,-1.1616,-1.1616,-1.1616,-1.1616,-1.1616,-1.1616,-1.1616,-1.1616,-1.1616,-1.1616,-1.1616,-1.1616,-1.1616,-1.1616,-1.1616,-1.1616,-1.1616,-1.1616,-1.1616,-1.1616,-1.1616,-1.1616,-1.1616,-1.1616,-1.1616,-1.1616,-1.1616,-1.1616,-1.1616,-1.1616,-1.1616,-1.1616,-1.1616,-1.1616,-1.1616,-1.1616,-1.1616,-1.1616,-1.1616,-1.1616,-1.1616,-1.1616,-1.1616,-1.1616,-1.1616,-1.1616,-1.1616,-1.1616,-1.1616,-1.1616,-1.1616,-1.1616,-1.1616,-1.1616,-1.1616,-1.1616,-1.1616,-1.1616,-1.1616,-1.1616,-1.1616,-1.1616,-1.1616,0.0,0.0,0.0,0.0,0.0,-0.1117,-0.1556,-0.1437,-0.1452,-0.0875,0.0,0.0,0.0,0.0,0.0,0.0,0.0,0.0,-0.0875,-0.2764,-0.4506,-0.6536,-0.8417,-1.0161,-1.1185,-1.1476,-1.1616,-1.1616,-1.1616,-1.1616,-1.1616,-1.1616,-1.1616,-1.1616,-1.1616,-1.1616,-1.1616,-1.1616,-1.1616,-1.1616,-1.1616,-1.1616,-1.1616,-1.1616,-1.1616,-1.1616,-1.1616,-1.1616,-1.1616,-1.1616,-1.1616,-1.1616,-1.1616,-1.1616,-1.1616,-1.1616,-1.1616,-1.1616,-1.1616,-1.1616,-1.1616,-1.1616,-1.1616,-1.1616,-1.1616,-1.1616,-1.1616,-1.1616,-1.1616,-1.1616,-1.1616,-1.1616,-1.1616,-1.1616,-1.1616,-1.1616,-1.1616,-1.1616,-1.1616,-1.1616,-1.1616,-1.1616,-1.1616,-1.1616,-1.1616,-1.1616,-1.1616,-1.1616,-1.1616,-1.1616,-1.1616,-1.1616,-1.1616,-1.1616,-1.1616,-1.1616,-1.1616,-1.1616,-1.1616,-1.1616,-1.1616,-1.1616,-1.1616,-1.1616,-1.1616,-1.1616,-1.1616,-1.1616,-1.1616,-1.1616,-1.1616,-1.1616,-1.1616,-1.1616,-1.1616,0.0,0.0,0.0,0.0,0.0,0.0,0.0,0.0,0.0,0.0,0.0,0.0,0.0,0.0,0.0,0.0,0.0,0.0,0.0,-0.2475,-0.4217,-0.6099,-0.7984,-0.9873,-1.1041,-1.1476,-1.1616,-1.1616,-1.1616,-1.1616,-1.1616,-1.1616,-1.1616,-1.1616,-1.1616,-1.1616,-1.1616,-1.1616,-1.1616,-1.1616,-1.1616,-1.1616,-1.1616,-1.1616,-1.1616,-1.1616,-1.1616,-1.1616,-1.1616,-1.1616,-1.1616,-1.1616,-1.1616,-1.1616,-1.1616,-1.1616,-1.1616,-1.1616,-1.1616,-1.1616,-1.1616,-1.1616,-1.1616,-1.1616,-1.1616,-1.1616,-1.1616,-1.1616,-1.1616,-1.1616,-1.1616,-1.1616,-1.1616,-1.1616,-1.1616,-1.1616,-1.1616,-1.1616,-1.1616,-1.1616,-1.1616,-1.1616,-1.1616,-1.1616,-1.1616,-1.1616,-1.1616,-1.1616,-1.1616,-1.1616,-1.1616,-1.1616,-1.1616,-1.1616,-1.1616,-1.1616,-1.1616,-1.1616,-1.1616,-1.1616,-1.1616,-1.1616,-1.1616,-1.1616,-1.1616,-1.1616,-1.1616,-1.1616,-1.1616,-1.1616,-1.1616,-1.1616,-1.1616,-1.1616,-1.1616,0.0,0.0,0.0,0.0,0.0,0.0,0.0,0.0,0.0,0.0,0.0,0.0,0.0,0.0,0.0,0.0,0.0,0.0,0.0,-0.1748,-0.3928,-0.5377,-0.7261,-0.9438,-1.0894,-1.1476,-1.1616,-1.1616,-1.1616,-1.1616,-1.1616,-1.1616,-1.1616,-1.1616,-1.1616,-1.1616,-1.1616,-1.1616,-1.1616,-1.1616,-1.1616,-1.1616,-1.1616,-1.1616,-1.1616,-1.1616,-1.1616,-1.1616,-1.1616,-1.1616,-1.1616,-1.1616,-1.1616,-1.1616,-1.1616,-1.1616,-1.1616,-1.1616,-1.1616,-1.1616,-1.1616,-1.1616,-1.1616,-1.1616,-1.1616,-1.1616,-1.1616,-1.1616,-1.1616,-1.1616,-1.1616,-1.1616,-1.1616,-1.1616,-1.1616,-1.1616,-1.1616,-1.1616,-1.1616,-1.1616,-1.1616,-1.1616,-1.1616,-1.1616,-1.1616,-1.1616,-1.1616,-1.1616,-1.1616,-1.1616,-1.1616,-1.1616,-1.1616,-1.1616,-1.1616,-1.1616,-1.1616,-1.1616,-1.1616,-1.1616,-1.1616,-1.1616,-1.1616,-1.1616,-1.1616,-1.1616,-1.1616,-1.1616,-1.1616,-1.1616,-1.1616,-1.1616,-1.1616,-1.1616,-1.1616,0.0,0.0,0.0,0.0,0.0,0.0,0.0,0.0,0.0,0.0,0.0,0.0,0.0,0.0,0.0,0.0,0.0,0.0,-0.0438,-0.1894,-0.3782,-0.5667,-0.7406,-0.9294,-1.0894,-1.1476,-1.1616,-1.1616,-1.1616,-1.1616,-1.1616,-1.1616,-1.1616,-1.1616,-1.1616,-1.1616,-1.1616,-1.1616,-1.1616,-1.1616,-1.1616,-1.1616,-1.1616,-1.1616,-1.1616,-1.1616,-1.1616,-1.1616,-1.1616,-1.1616,-1.1616,-1.1616,-1.1616,-1.1616,-1.1616,-1.1616,-1.1616,-1.1616,-1.1616,-1.1616,-1.1616,-1.1616,-1.1616,-1.1616,-1.1616,-1.1616,-1.1616,-1.1616,-1.1616,-1.1616,-1.1616,-1.1616,-1.1616,-1.1616,-1.1616,-1.1616,-1.1616,-1.1616,-1.1616,-1.1616,-1.1616,-1.1616,-1.1616,-1.1616,-1.1616,-1.1616,-1.1616,-1.1616,-1.1616,-1.1616,-1.1616,-1.1616,-1.1616,-1.1616,-1.1616,-1.1616,-1.1616,-1.1616,-1.1616,-1.1616,-1.1616,-1.1616,-1.1616,-1.1616,-1.1616,-1.1616,-1.1616,-1.1616,-1.1616,-1.1616,-1.1616,-1.1616,-1.1616,-1.1616,-1.1616,0.0,0.0,0.0,0.0,0.0,0.0,0.0,0.0,0.0,0.0,0.0,0.0,0.0,0.0,0.0,0.0,0.0,0.0,-0.0438,-0.2184,-0.3492,-0.5377,-0.7406,-0.9729,-1.0603,-1.1325,-1.1616,-1.1616,-1.1616,-1.1616,-1.1616,-1.1616,-1.1616,-1.1616,-1.1616,-1.1616,-1.1616,-1.1616,-1.1616,-1.1616,-1.1616,-1.1616,-1.1616,-1.1616,-1.1616,-1.1616,-1.1616,-1.1616,-1.1616,-1.1616,-1.1616,-1.1616,-1.1616,-1.1175,-1.1319,-1.1616,-1.1616,-1.1616,-1.1616,-1.1616,-1.1616,-1.1616,-1.1616,-1.1616,-1.1616,-1.1616,-1.1616,-1.1616,-1.1616,-1.1616,-1.1616,-1.1616,-1.1616,-1.1616,-1.1616,-1.1616,-1.1616,-1.1616,-1.1616,-1.1616,-1.1616,-1.1616,-1.1616,-1.1616,-1.1616,-1.1616,-1.1616,-1.1616,-1.1616,-1.1616,-1.1616,-1.1616,-1.1616,-1.1616,-1.1616,-1.1616,-1.1616,-1.1616,-1.1616,-1.1616,-1.1616,-1.1616,-1.1616,-1.1616,-1.1616,-1.1616,-1.1616,-1.1616,-1.1616,-1.1616,-1.1616,-1.1616,-1.1616,-1.1616,-1.1616,0.0,0.0,0.0,0.0,0.0,0.0,0.0,0.0,0.0,0.0,0.0,0.0,0.0,0.0,0.0,0.0,0.0,0.0,0.0,-0.1457,-0.2911,-0.5377,-0.6534,-0.8855,-1.0017,-1.1181,-1.1616,-1.1616,-1.1616,-1.1616,-1.1616,-1.1616,-1.1616,-1.1616,-1.1616,-1.1616,-1.1616,-1.1616,-1.1616,-1.1616,-1.1616,-1.1616,-1.1616,-1.1616,-1.1616,-1.1472,-1.1472,-1.1616,-1.1616,-1.1616,-1.1616,-1.1616,-1.1616,-1.0581,-1.0584,-1.1322,-1.1616,-1.1472,-1.1472,-1.1472,-1.1472,-1.1476,-1.1476,-1.1616,-1.1616,-1.1616,-1.1616,-1.1616,-1.1616,-1.1616,-1.1616,-1.1616,-1.1616,-1.1616,-1.1616,-1.1616,-1.1616,-1.1616,-1.1616,-1.1616,-1.1616,-1.1616,-1.1616,-1.1616,-1.1616,-1.1616,-1.1616,-1.1616,-1.1616,-1.1616,-1.1616,-1.1616,-1.1616,-1.1616,-1.1616,-1.1616,-1.1616,-1.1616,-1.1616,-1.1616,-1.1616,-1.1616,-1.1616,-1.1616,-1.1616,-1.1616,-1.1616,-1.1616,-1.1616,-1.1616,-1.1616,-1.1616,-1.1616,-1.1616,-1.1616,0.0,0.0,0.0,0.0,0.0,0.0,0.0,0.0,0.0,0.0,0.0,0.0,0.0,0.0,0.0,0.0,0.0,0.0,-0.1748,-0.2475,-0.3346,-0.6099,-0.7548,-0.8564,-1.0164,-1.1329,-1.1616,-1.1616,-1.1616,-1.1616,-1.1616,-1.1616,-1.1616,-1.1616,-1.1616,-1.1616,-1.1616,-1.1616,-1.1616,-1.1616,-1.1616,-1.1619,-1.1616,-1.1616,-1.1616,-1.1329,-1.1038,-1.089,-1.0599,-1.0308,-1.0017,-1.1034,-1.1178,-1.1025,-1.0881,-1.1322,-1.1472,-1.1325,-1.1038,-1.1181,-1.1329,-1.1181,-1.1476,-1.1476,-1.1329,-1.1329,-1.1034,-1.1034,-1.1472,-1.1616,-1.1616,-1.1616,-1.1616,-1.1616,-1.1616,-1.1616,-1.1616,-1.1616,-1.1616,-1.1616,-1.1616,-1.1616,-1.1616,-1.1616,-1.1616,-1.1616,-1.1616,-1.1616,-1.1616,-1.1616,-1.1616,-1.1616,-1.1616,-1.1616,-1.1616,-1.1616,-1.1616,-1.1616,-1.1616,-1.1616,-1.1616,-1.1616,-1.1616,-1.1616,-1.1616,-1.1616,-1.1616,-1.1616,-1.1616,-1.1616,-1.1616,-1.1616,-1.1616,-1.1616,-1.1616,0.0,0.0,0.0,0.0,0.0,0.0,0.0,0.0,0.0,0.0,0.0,0.0,0.0,0.0,0.0,0.0,0.0,0.0,-0.233,-0.3638,-0.5233,-0.6246,-0.7842,-0.9876,-1.0603,-1.1181,-1.1616,-1.1616,-1.1616,-1.1616,-1.1616,-1.1616,-1.1616,-1.1616,-1.1616,-1.1616,-1.1616,-1.1616,-1.1616,-1.1472,-1.1476,-1.1476,-1.1619,-1.1616,-1.1325,-1.0596,-1.0164,-0.9873,-0.9438,-0.8855,-0.8564,-1.0014,-1.089,-1.1034,-1.1181,-1.1476,-1.1616,-1.1034,-1.0599,-1.1038,-1.0743,-1.0599,-1.1181,-1.1329,-1.1185,-1.1038,-1.0743,-1.0743,-1.1181,-1.1181,-1.1181,-1.1616,-1.1616,-1.1325,-1.1325,-1.1472,-1.1472,-1.1472,-1.1616,-1.1616,-1.1616,-1.1616,-1.1616,-1.1616,-1.1616,-1.1616,-1.1616,-1.1616,-1.1616,-1.1616,-1.1616,-1.1616,-1.1616,-1.1616,-1.1616,-1.1616,-1.1616,-1.1616,-1.1616,-1.1616,-1.1616,-1.1616,-1.1616,-1.1616,-1.1616,-1.1616,-1.1616,-1.1616,-1.1616,-1.1616,-1.1616,-1.1616,-1.1616,-1.1616,-1.1616,0.0279,0.0,0.0,0.0,0.0,0.0,0.0,0.0,0.0,0.0,0.0,0.0,0.0,0.0,0.0,0.0,0.0,-0.0729,-0.0583,-0.102,-0.3928,-0.5088,-0.6827,-0.9294,-1.0017,-1.0887,-1.1616,-1.1616,-1.1616,-1.1616,-1.1616,-1.1616,-1.1616,-1.1616,-1.1616,-1.1472,-1.1329,-1.1325,-1.1034,-1.0746,-1.0452,-1.0743,-1.1472,-1.1181,-1.0305,-0.987,-0.9435,-0.9579,-0.8564,-0.7695,-0.7406,-0.9144,-1.0161,-1.0599,-1.0746,-1.1332,-1.1472,-1.089,-1.0599,-1.089,-1.0452,-1.0452,-1.1038,-1.1472,-1.1185,-1.0894,-1.0746,-1.0452,-1.0599,-1.0014,-1.0161,-1.1181,-1.1472,-1.0746,-1.0455,-1.1038,-1.1329,-1.1329,-1.1325,-1.1472,-1.1616,-1.1616,-1.1616,-1.1616,-1.1616,-1.1616,-1.1616,-1.1616,-1.1616,-1.1616,-1.1616,-1.1616,-1.1616,-1.1616,-1.1616,-1.1616,-1.1616,-1.1616,-1.1616,-1.1616,-1.1616,-1.1616,-1.1616,-1.1616,-1.1616,-1.1616,-1.1616,-1.1616,-1.1616,-1.1616,-1.1616,-1.1616,-1.1616,-1.1616,-1.1616]}]]